LA METEO DE GRANDFRESNOY - OISE - (60) - ALT.75 m
Donnes mto: Actuelle lundi, 09/12/2019 14:51
Date Horaire Temp. E. Hum. E. P.atmo. Pluie Vent Direction Direction Ensoleilleme Horaire Temp Ev.Tr. UV Ray;solaire P. de rose Temp au vent Rafales Rception
09/12/2019 14:51 8,8 C 80 % 1013,1 hPa 0,0 mm 15,4 km/h (3 Bft) O-NO 294 0 min 0 min 0,000 mm 0,0 UV-I 90 W/m 5,5 C 3,5 C 30,1 km/h (5 Bft) 100,00 %
09/12/2019 14:50 8,8 C 79 % 1013,1 hPa 0,0 mm 14,2 km/h (3 Bft) N 360 0 min 0 min 0,000 mm 0,0 UV-I 83 W/m 5,4 C 4,0 C 19,5 km/h (3 Bft) 100,00 %
09/12/2019 14:49 8,8 C 80 % 1013,1 hPa 0,0 mm 14,3 km/h (3 Bft) N 350 0 min 0 min 0,000 mm 0,0 UV-I 72 W/m 5,5 C 4,0 C 24,8 km/h (4 Bft) 96,43 %
09/12/2019 14:48 8,8 C 79 % 1013,1 hPa 0,0 mm 16,4 km/h (3 Bft) O-NO 297 0 min 0 min 0,000 mm 0,0 UV-I 70 W/m 5,4 C 3,1 C 23,0 km/h (4 Bft) 100,00 %
09/12/2019 14:47 8,8 C 79 % 1013,1 hPa 0,0 mm 19,7 km/h (3 Bft) O-NO 290 0 min 0 min 0,000 mm 0,0 UV-I 71 W/m 5,4 C 1,8 C 30,1 km/h (5 Bft) 100,00 %
09/12/2019 14:46 8,8 C 79 % 1013,0 hPa 0,0 mm 23,7 km/h (4 Bft) N 11 0 min 0 min 0,000 mm 0,0 UV-I 66 W/m 5,4 C 0,6 C 37,2 km/h (5 Bft) 95,83 %
09/12/2019 14:45 8,8 C 79 % 1013,0 hPa 0,0 mm 18,0 km/h (3 Bft) O-SO 254 0 min 0 min 0,000 mm 0,0 UV-I 67 W/m 5,4 C 2,5 C 28,3 km/h (5 Bft) 100,00 %
09/12/2019 14:44 8,8 C 80 % 1013,0 hPa 0,0 mm 23,1 km/h (4 Bft) N-NO 347 0 min 0 min 0,000 mm 0,0 UV-I 73 W/m 5,5 C 0,7 C 33,6 km/h (5 Bft) 100,00 %
09/12/2019 14:43 8,8 C 80 % 1013,0 hPa 0,0 mm 17,0 km/h (3 Bft) NO 309 0 min 0 min 0,000 mm 0,0 UV-I 92 W/m 5,5 C 2,8 C 33,6 km/h (5 Bft) 100,00 %
09/12/2019 14:42 8,8 C 80 % 1013,0 hPa 0,0 mm 18,4 km/h (3 Bft) N-NO 338 0 min 0 min 0,000 mm 0,0 UV-I 113 W/m 5,5 C 2,3 C 35,4 km/h (5 Bft) 100,00 %
09/12/2019 14:41 8,8 C 80 % 1012,9 hPa 0,0 mm 18,6 km/h (3 Bft) N-NO 346 0 min 0 min 0,000 mm 0,0 UV-I 83 W/m 5,5 C 2,2 C 33,6 km/h (5 Bft) 96,15 %
09/12/2019 14:40 8,8 C 80 % 1013,0 hPa 0,0 mm 18,3 km/h (3 Bft) NO 317 0 min 0 min 0,000 mm 0,0 UV-I 79 W/m 5,5 C 2,3 C 31,9 km/h (5 Bft) 100,00 %
09/12/2019 14:39 8,8 C 80 % 1012,8 hPa 0,0 mm 24,0 km/h (4 Bft) O-NO 285 0 min 0 min 0,000 mm 0,0 UV-I 108 W/m 5,5 C 0,5 C 40,7 km/h (6 Bft) 100,00 %
09/12/2019 14:38 8,8 C 80 % 1012,9 hPa 0,0 mm 22,6 km/h (4 Bft) O-NO 294 0 min 0 min 0,000 mm 0,0 UV-I 116 W/m 5,5 C 0,9 C 38,9 km/h (6 Bft) 95,83 %
09/12/2019 14:37 8,8 C 80 % 1012,8 hPa 0,0 mm 21,0 km/h (4 Bft) O-NO 292 1 min 0 min 0,000 mm 0,0 UV-I 134 W/m 5,5 C 1,4 C 28,3 km/h (5 Bft) 100,00 %
09/12/2019 14:36 8,8 C 80 % 1012,8 hPa 0,0 mm 18,0 km/h (3 Bft) O-NO 300 1 min 0 min 0,000 mm 0,0 UV-I 136 W/m 5,5 C 2,5 C 28,3 km/h (5 Bft) 100,00 %
09/12/2019 14:35 8,8 C 80 % 1012,7 hPa 0,0 mm 19,8 km/h (3 Bft) NO 311 0 min 0 min 0,000 mm 0,0 UV-I 127 W/m 5,5 C 1,8 C 35,4 km/h (5 Bft) 100,00 %
09/12/2019 14:34 8,8 C 80 % 1012,6 hPa 0,0 mm 25,7 km/h (4 Bft) O-NO 300 0 min 0 min 0,000 mm 0,0 UV-I 127 W/m 5,5 C 0,0 C 37,2 km/h (5 Bft) 100,00 %
09/12/2019 14:33 8,8 C 80 % 1012,4 hPa 0,0 mm 27,5 km/h (5 Bft) NO 322 0 min 0 min 0,000 mm 0,0 UV-I 88 W/m 5,5 C -0,4 C 44,3 km/h (6 Bft) 100,00 %
09/12/2019 14:32 8,8 C 80 % 1012,6 hPa 0,0 mm 21,1 km/h (4 Bft) O-NO 291 0 min 0 min 0,000 mm 0,0 UV-I 48 W/m 5,5 C 1,4 C 31,9 km/h (5 Bft) 93,33 %
09/12/2019 14:31 8,8 C 80 % 1012,6 hPa 0,0 mm 21,2 km/h (4 Bft) N-NE 26 0 min 0 min 0,000 mm 0,0 UV-I 47 W/m 5,5 C 1,3 C 33,6 km/h (5 Bft) 100,00 %
09/12/2019 14:30 8,8 C 81 % 1012,5 hPa 0,0 mm 18,8 km/h (3 Bft) O-NO 288 0 min 0 min 0,000 mm 0,0 UV-I 46 W/m 5,7 C 2,2 C 26,6 km/h (4 Bft) 100,00 %
09/12/2019 14:29 8,8 C 81 % 1012,4 hPa 0,0 mm 22,4 km/h (4 Bft) O 263 0 min 0 min 0,000 mm 0,0 UV-I 47 W/m 5,7 C 1,0 C 40,7 km/h (6 Bft) 96,30 %
09/12/2019 14:28 8,9 C 81 % 1012,4 hPa 0,0 mm 20,5 km/h (4 Bft) O-NO 296 0 min 0 min 0,000 mm 0,0 UV-I 59 W/m 5,8 C 1,7 C 30,1 km/h (5 Bft) 93,33 %
09/12/2019 14:27 8,9 C 81 % 1012,4 hPa 0,0 mm 18,2 km/h (3 Bft) N-NO 348 0 min 0 min 0,000 mm 0,0 UV-I 65 W/m 5,8 C 2,5 C 37,2 km/h (5 Bft) 92,86 %
09/12/2019 14:26 8,9 C 81 % 1012,4 hPa 0,0 mm 17,6 km/h (3 Bft) N 351 0 min 0 min 0,000 mm 0,0 UV-I 63 W/m 5,8 C 2,7 C 26,6 km/h (4 Bft) 100,00 %
09/12/2019 14:25 8,8 C 82 % 1012,5 hPa 0,0 mm 23,2 km/h (4 Bft) O-SO 246 0 min 0 min 0,000 mm 0,0 UV-I 63 W/m 5,9 C 0,7 C 37,2 km/h (5 Bft) 92,00 %
09/12/2019 14:24 8,9 C 82 % 1012,4 hPa 0,0 mm 17,2 km/h (3 Bft) N-NO 344 0 min 0 min 0,000 mm 0,0 UV-I 68 W/m 6,0 C 2,9 C 28,3 km/h (5 Bft) 100,00 %
09/12/2019 14:23 8,9 C 82 % 1012,3 hPa 0,0 mm 17,1 km/h (3 Bft) O-SO 254 0 min 0 min 0,000 mm 0,0 UV-I 72 W/m 6,0 C 2,9 C 33,6 km/h (5 Bft) 87,50 %
09/12/2019 14:22 8,8 C 82 % 1012,3 hPa 0,0 mm 11,5 km/h (2 Bft) N-NO 330 0 min 0 min 0,000 mm 0,0 UV-I 72 W/m 5,9 C 5,4 C 19,5 km/h (3 Bft) 100,00 %
09/12/2019 14:21 8,8 C 82 % 1012,3 hPa 0,0 mm 16,4 km/h (3 Bft) NO 309 0 min 0 min 0,000 mm 0,0 UV-I 75 W/m 5,9 C 3,1 C 28,3 km/h (5 Bft) 92,00 %
09/12/2019 14:20 8,8 C 82 % 1012,2 hPa 0,0 mm 16,9 km/h (3 Bft) O-NO 296 0 min 0 min 0,000 mm 0,0 UV-I 78 W/m 5,9 C 2,9 C 30,1 km/h (5 Bft) 100,00 %
09/12/2019 14:19 8,8 C 82 % 1012,2 hPa 0,0 mm 19,4 km/h (3 Bft) N 9 0 min 0 min 0,000 mm 0,0 UV-I 76 W/m 5,9 C 1,9 C 35,4 km/h (5 Bft) 89,29 %
09/12/2019 14:18 8,8 C 82 % 1012,2 hPa 0,0 mm 16,5 km/h (3 Bft) O-NO 293 0 min 0 min 0,000 mm 0,0 UV-I 73 W/m 5,9 C 3,0 C 26,6 km/h (4 Bft) 100,00 %
09/12/2019 14:17 8,8 C 82 % 1012,1 hPa 0,0 mm 12,3 km/h (2 Bft) N-NO 327 0 min 0 min 0,000 mm 0,0 UV-I 72 W/m 5,9 C 5,0 C 23,0 km/h (4 Bft) 96,30 %
09/12/2019 14:16 8,8 C 82 % 1012,1 hPa 0,0 mm 20,2 km/h (4 Bft) N 5 0 min 0 min 0,000 mm 0,0 UV-I 82 W/m 5,9 C 1,7 C 30,1 km/h (5 Bft) 100,00 %
09/12/2019 14:15 8,8 C 82 % 1012,1 hPa 0,0 mm 17,4 km/h (3 Bft) O-NO 302 0 min 0 min 0,000 mm 0,0 UV-I 92 W/m 5,9 C 2,7 C 23,0 km/h (4 Bft) 100,00 %
09/12/2019 14:14 8,8 C 82 % 1012,1 hPa 0,0 mm 17,9 km/h (3 Bft) O-NO 286 0 min 0 min 0,000 mm 0,0 UV-I 81 W/m 5,9 C 2,5 C 26,6 km/h (4 Bft) 91,67 %
09/12/2019 14:13 8,8 C 82 % 1012,0 hPa 0,0 mm 15,6 km/h (3 Bft) O-NO 294 0 min 0 min 0,000 mm 0,0 UV-I 70 W/m 5,9 C 3,4 C 26,6 km/h (4 Bft) 100,00 %
09/12/2019 14:12 8,8 C 82 % 1012,0 hPa 0,0 mm 16,4 km/h (3 Bft) O 272 0 min 0 min 0,000 mm 0,0 UV-I 69 W/m 5,9 C 3,1 C 33,6 km/h (5 Bft) 96,00 %
09/12/2019 14:11 8,8 C 82 % 1012,0 hPa 0,0 mm 15,7 km/h (3 Bft) O-SO 245 0 min 0 min 0,000 mm 0,0 UV-I 75 W/m 5,9 C 3,4 C 30,1 km/h (5 Bft) 100,00 %
09/12/2019 14:10 8,8 C 83 % 1011,9 hPa 0,0 mm 17,2 km/h (3 Bft) NO 312 0 min 0 min 0,000 mm 0,0 UV-I 80 W/m 6,1 C 2,8 C 31,9 km/h (5 Bft) 96,30 %
09/12/2019 14:09 8,8 C 83 % 1011,9 hPa 0,0 mm 17,9 km/h (3 Bft) NO 305 0 min 0 min 0,000 mm 0,0 UV-I 85 W/m 6,1 C 2,5 C 21,2 km/h (4 Bft) 96,30 %
09/12/2019 14:08 8,7 C 83 % 1011,8 hPa 0,0 mm 19,1 km/h (3 Bft) N 350 0 min 0 min 0,000 mm 0,0 UV-I 86 W/m 6,0 C 1,9 C 31,9 km/h (5 Bft) 95,92 %
09/12/2019 14:06 8,7 C 83 % 1011,8 hPa 0,0 mm 16,7 km/h (3 Bft) N-NO 338 0 min 0 min 0,000 mm 0,0 UV-I 70 W/m 6,0 C 2,8 C 28,3 km/h (5 Bft) 100,00 %
09/12/2019 14:05 8,7 C 83 % 1011,8 hPa 0,0 mm 10,9 km/h (2 Bft) N-NO 329 0 min 0 min 0,000 mm 0,0 UV-I 59 W/m 6,0 C 5,6 C 19,5 km/h (3 Bft) 91,67 %
09/12/2019 14:04 8,7 C 84 % 1011,7 hPa 0,0 mm 15,6 km/h (3 Bft) N 9 0 min 0 min 0,000 mm 0,0 UV-I 54 W/m 6,2 C 3,3 C 26,6 km/h (4 Bft) 100,00 %
09/12/2019 14:03 8,7 C 84 % 1011,7 hPa 0,0 mm 15,4 km/h (3 Bft) NO 325 0 min 0 min 0,000 mm 0,0 UV-I 54 W/m 6,2 C 3,4 C 24,8 km/h (4 Bft) 91,67 %
09/12/2019 14:02 8,7 C 84 % 1011,6 hPa 0,0 mm 15,7 km/h (3 Bft) N 11 0 min 0 min 0,000 mm 0,0 UV-I 57 W/m 6,2 C 3,3 C 28,3 km/h (5 Bft) 100,00 %
09/12/2019 14:01 8,7 C 84 % 1011,6 hPa 0,0 mm 14,9 km/h (3 Bft) N 360 0 min 0 min 0,076 mm 0,0 UV-I 54 W/m 6,2 C 3,6 C 23,0 km/h (4 Bft) 95,83 %
09/12/2019 14:00 8,7 C 84 % 1011,5 hPa 0,0 mm 10,6 km/h (2 Bft) O-SO 250 0 min 0 min 0,000 mm 0,0 UV-I 54 W/m 6,2 C 5,8 C 21,2 km/h (4 Bft) 96,43 %
09/12/2019 13:59 8,7 C 84 % 1011,6 hPa 0,0 mm 14,2 km/h (3 Bft) NO 314 0 min 0 min 0,000 mm 0,0 UV-I 58 W/m 6,2 C 3,9 C 24,8 km/h (4 Bft) 100,00 %
09/12/2019 13:58 8,7 C 84 % 1011,5 hPa 0,0 mm 13,5 km/h (3 Bft) O-NO 300 0 min 0 min 0,000 mm 0,0 UV-I 56 W/m 6,2 C 4,3 C 21,2 km/h (4 Bft) 91,67 %
09/12/2019 13:57 8,7 C 84 % 1011,5 hPa 0,0 mm 17,6 km/h (3 Bft) O-NO 299 0 min 0 min 0,000 mm 0,0 UV-I 53 W/m 6,2 C 2,5 C 28,3 km/h (5 Bft) 100,00 %
09/12/2019 13:56 8,7 C 84 % 1011,4 hPa 0,0 mm 19,4 km/h (3 Bft) N 355 0 min 0 min 0,000 mm 0,0 UV-I 55 W/m 6,2 C 1,8 C 26,6 km/h (4 Bft) 95,83 %
09/12/2019 13:55 8,7 C 84 % 1011,4 hPa 0,0 mm 13,1 km/h (3 Bft) NO 314 0 min 0 min 0,000 mm 0,0 UV-I 51 W/m 6,2 C 4,5 C 21,2 km/h (4 Bft) 96,97 %
09/12/2019 13:54 8,7 C 84 % 1011,3 hPa 0,0 mm 12,8 km/h (3 Bft) O-NO 292 0 min 0 min 0,000 mm 0,0 UV-I 40 W/m 6,2 C 4,6 C 23,0 km/h (4 Bft) 100,00 %
09/12/2019 13:53 8,7 C 84 % 1011,3 hPa 0,0 mm 9,2 km/h (2 Bft) N-NE 17 0 min 0 min 0,000 mm 0,0 UV-I 37 W/m 6,2 C 6,7 C 15,9 km/h (3 Bft) 93,33 %
09/12/2019 13:52 8,8 C 84 % 1011,4 hPa 0,0 mm 10,3 km/h (2 Bft) NO 325 0 min 0 min 0,000 mm 0,0 UV-I 36 W/m 6,2 C 6,1 C 17,7 km/h (3 Bft) 96,43 %
09/12/2019 13:51 8,8 C 84 % 1011,3 hPa 0,0 mm 11,7 km/h (2 Bft) O-NO 300 0 min 0 min 0,000 mm 0,0 UV-I 48 W/m 6,2 C 5,3 C 21,2 km/h (4 Bft) 88,89 %
09/12/2019 13:50 8,8 C 84 % 1011,3 hPa 0,0 mm 11,6 km/h (2 Bft) NO 312 0 min 0 min 0,000 mm 0,0 UV-I 60 W/m 6,2 C 5,3 C 17,7 km/h (3 Bft) 100,00 %
09/12/2019 13:49 8,8 C 84 % 1011,3 hPa 0,0 mm 14,4 km/h (3 Bft) S-SO 201 0 min 0 min 0,000 mm 0,0 UV-I 71 W/m 6,2 C 4,0 C 30,1 km/h (5 Bft) 95,83 %
09/12/2019 13:48 8,8 C 84 % 1011,2 hPa 0,0 mm 11,7 km/h (2 Bft) N-NO 327 0 min 0 min 0,000 mm 0,0 UV-I 77 W/m 6,2 C 5,3 C 26,6 km/h (4 Bft) 100,00 %
09/12/2019 13:47 8,8 C 84 % 1011,2 hPa 0,0 mm 14,3 km/h (3 Bft) N-NE 27 0 min 0 min 0,000 mm 0,0 UV-I 80 W/m 6,2 C 4,0 C 26,6 km/h (4 Bft) 95,83 %
09/12/2019 13:46 8,8 C 83 % 1011,1 hPa 0,0 mm 18,8 km/h (3 Bft) N-NO 329 0 min 0 min 0,000 mm 0,0 UV-I 93 W/m 6,1 C 2,2 C 30,1 km/h (5 Bft) 100,00 %
09/12/2019 13:45 8,8 C 83 % 1011,2 hPa 0,0 mm 14,8 km/h (3 Bft) NO 309 0 min 0 min 0,000 mm 0,0 UV-I 105 W/m 6,1 C 3,8 C 28,3 km/h (5 Bft) 95,83 %
09/12/2019 13:44 8,8 C 83 % 1011,1 hPa 0,0 mm 16,3 km/h (3 Bft) NO 312 0 min 0 min 0,000 mm 0,0 UV-I 110 W/m 6,1 C 3,1 C 26,6 km/h (4 Bft) 96,15 %
09/12/2019 13:43 8,8 C 83 % 1011,1 hPa 0,0 mm 19,3 km/h (3 Bft) O-NO 288 0 min 0 min 0,000 mm 0,0 UV-I 115 W/m 6,1 C 2,0 C 26,6 km/h (4 Bft) 100,00 %
09/12/2019 13:42 8,8 C 83 % 1011,0 hPa 0,0 mm 17,9 km/h (3 Bft) NE 54 0 min 0 min 0,000 mm 0,0 UV-I 108 W/m 6,1 C 2,5 C 28,3 km/h (5 Bft) 100,00 %
09/12/2019 13:41 8,8 C 83 % 1011,1 hPa 0,0 mm 15,9 km/h (3 Bft) N 355 0 min 0 min 0,000 mm 0,0 UV-I 97 W/m 6,1 C 3,3 C 24,8 km/h (4 Bft) 100,00 %
09/12/2019 13:40 8,9 C 83 % 1011,0 hPa 0,0 mm 16,2 km/h (3 Bft) NE 36 0 min 0 min 0,000 mm 0,0 UV-I 91 W/m 6,2 C 3,3 C 28,3 km/h (5 Bft) 100,00 %
09/12/2019 13:39 8,9 C 83 % 1011,0 hPa 0,0 mm 24,6 km/h (4 Bft) N-NO 341 0 min 0 min 0,000 mm 0,0 UV-I 82 W/m 6,2 C 0,5 C 38,9 km/h (6 Bft) 100,00 %
09/12/2019 13:38 8,9 C 83 % 1010,9 hPa 0,0 mm 17,4 km/h (3 Bft) NO 316 0 min 0 min 0,000 mm 0,0 UV-I 71 W/m 6,2 C 2,8 C 30,1 km/h (5 Bft) 100,00 %
09/12/2019 13:37 9,0 C 83 % 1011,0 hPa 0,0 mm 18,0 km/h (3 Bft) E-SE 106 0 min 0 min 0,000 mm 0,0 UV-I 52 W/m 6,3 C 2,7 C 30,1 km/h (5 Bft) 98,31 %
09/12/2019 13:35 9,0 C 82 % 1010,8 hPa 0,0 mm 13,4 km/h (3 Bft) NO 305 0 min 0 min 0,000 mm 0,0 UV-I 43 W/m 6,1 C 4,7 C 21,2 km/h (4 Bft) 100,00 %
09/12/2019 13:34 9,1 C 83 % 1010,8 hPa 0,0 mm 13,7 km/h (3 Bft) O 278 0 min 0 min 0,000 mm 0,0 UV-I 43 W/m 6,4 C 4,6 C 21,2 km/h (4 Bft) 100,00 %
09/12/2019 13:33 9,1 C 83 % 1010,7 hPa 0,0 mm 17,8 km/h (3 Bft) O 279 0 min 0 min 0,000 mm 0,0 UV-I 44 W/m 6,4 C 2,9 C 26,6 km/h (4 Bft) 100,00 %
09/12/2019 13:32 9,1 C 83 % 1010,7 hPa 0,0 mm 17,2 km/h (3 Bft) N 10 0 min 0 min 0,000 mm 0,0 UV-I 44 W/m 6,4 C 3,1 C 31,9 km/h (5 Bft) 100,00 %
09/12/2019 13:31 9,2 C 82 % 1010,6 hPa 0,0 mm 18,2 km/h (3 Bft) O-NO 302 0 min 0 min 0,000 mm 0,0 UV-I 46 W/m 6,3 C 2,9 C 28,3 km/h (5 Bft) 100,00 %
09/12/2019 13:30 9,2 C 82 % 1010,6 hPa 0,0 mm 18,7 km/h (3 Bft) N-NO 338 0 min 0 min 0,000 mm 0,0 UV-I 58 W/m 6,3 C 2,7 C 30,1 km/h (5 Bft) 100,00 %
09/12/2019 13:29 9,3 C 82 % 1010,6 hPa 0,0 mm 16,4 km/h (3 Bft) N-NO 340 0 min 0 min 0,000 mm 0,0 UV-I 69 W/m 6,4 C 3,7 C 42,5 km/h (6 Bft) 100,00 %
09/12/2019 13:28 9,3 C 82 % 1010,6 hPa 0,0 mm 19,7 km/h (3 Bft) NO 310 0 min 0 min 0,000 mm 0,0 UV-I 80 W/m 6,4 C 2,5 C 33,6 km/h (5 Bft) 100,00 %
09/12/2019 13:27 9,3 C 82 % 1010,5 hPa 0,0 mm 13,4 km/h (3 Bft) O-NO 296 0 min 0 min 0,000 mm 0,0 UV-I 101 W/m 6,4 C 5,0 C 21,2 km/h (4 Bft) 100,00 %
09/12/2019 13:26 9,3 C 83 % 1010,5 hPa 0,0 mm 18,1 km/h (3 Bft) O-NO 290 0 min 0 min 0,000 mm 0,0 UV-I 152 W/m 6,6 C 3,0 C 28,3 km/h (5 Bft) 100,00 %
09/12/2019 13:25 9,3 C 83 % 1010,4 hPa 0,0 mm 22,9 km/h (4 Bft) SE 127 1 min 0 min 0,000 mm 0,0 UV-I 199 W/m 6,6 C 1,5 C 35,4 km/h (5 Bft) 100,00 %
09/12/2019 13:24 9,2 C 84 % 1010,3 hPa 0,0 mm 21,2 km/h (4 Bft) NO 321 1 min 0 min 0,000 mm 0,3 UV-I 243 W/m 6,6 C 1,9 C 33,6 km/h (5 Bft) 100,00 %
09/12/2019 13:23 9,1 C 83 % 1010,3 hPa 0,0 mm 17,2 km/h (3 Bft) N-NO 340 1 min 0 min 0,000 mm 0,5 UV-I 292 W/m 6,4 C 3,1 C 26,6 km/h (4 Bft) 100,00 %
09/12/2019 13:22 9,1 C 83 % 1010,3 hPa 0,0 mm 13,8 km/h (3 Bft) O 278 1 min 0 min 0,000 mm 0,5 UV-I 185 W/m 6,4 C 4,6 C 26,6 km/h (4 Bft) 100,00 %
09/12/2019 13:21 9,0 C 83 % 1010,3 hPa 0,0 mm 18,1 km/h (3 Bft) NO 319 0 min 0 min 0,000 mm 0,5 UV-I 142 W/m 6,3 C 2,7 C 33,6 km/h (5 Bft) 100,00 %
09/12/2019 13:20 9,0 C 84 % 1010,2 hPa 0,0 mm 19,4 km/h (3 Bft) N-NE 29 0 min 0 min 0,000 mm 0,5 UV-I 94 W/m 6,4 C 2,2 C 28,3 km/h (5 Bft) 95,83 %
09/12/2019 13:19 9,0 C 84 % 1010,2 hPa 0,0 mm 16,4 km/h (3 Bft) NO 318 1 min 0 min 0,000 mm 0,5 UV-I 171 W/m 6,4 C 3,3 C 30,1 km/h (5 Bft) 96,43 %
09/12/2019 13:18 8,9 C 84 % 1010,1 hPa 0,0 mm 19,7 km/h (3 Bft) NE 49 1 min 0 min 0,000 mm 0,5 UV-I 225 W/m 6,3 C 2,0 C 26,6 km/h (4 Bft) 100,00 %
09/12/2019 13:17 8,9 C 84 % 1010,1 hPa 0,0 mm 16,6 km/h (3 Bft) O-NO 282 1 min 0 min 0,000 mm 0,5 UV-I 199 W/m 6,3 C 3,1 C 37,2 km/h (5 Bft) 96,30 %
09/12/2019 13:16 8,9 C 84 % 1010,1 hPa 0,0 mm 17,8 km/h (3 Bft) S 191 0 min 0 min 0,000 mm 0,5 UV-I 153 W/m 6,3 C 2,7 C 30,1 km/h (5 Bft) 100,00 %
09/12/2019 13:15 8,9 C 84 % 1010,1 hPa 0,0 mm 15,9 km/h (3 Bft) O 261 0 min 0 min 0,000 mm 0,4 UV-I 139 W/m 6,3 C 3,4 C 33,6 km/h (5 Bft) 96,30 %
09/12/2019 13:14 8,9 C 84 % 1010,0 hPa 0,0 mm 17,5 km/h (3 Bft) N-NE 14 0 min 0 min 0,000 mm 0,0 UV-I 121 W/m 6,3 C 2,8 C 23,0 km/h (4 Bft) 100,00 %
09/12/2019 13:13 8,9 C 84 % 1010,0 hPa 0,0 mm 16,7 km/h (3 Bft) O-SO 251 0 min 0 min 0,000 mm 0,0 UV-I 121 W/m 6,3 C 3,1 C 28,3 km/h (5 Bft) 95,83 %
09/12/2019 13:12 8,9 C 84 % 1009,9 hPa 0,0 mm 18,0 km/h (3 Bft) N 355 0 min 0 min 0,000 mm 0,0 UV-I 124 W/m 6,3 C 2,6 C 28,3 km/h (5 Bft) 100,00 %
09/12/2019 13:11 8,9 C 84 % 1009,9 hPa 0,0 mm 14,5 km/h (3 Bft) N-NO 331 0 min 0 min 0,000 mm 0,0 UV-I 164 W/m 6,3 C 4,0 C 23,0 km/h (4 Bft) 100,00 %
09/12/2019 13:10 8,9 C 84 % 1009,9 hPa 0,0 mm 22,2 km/h (4 Bft) NO 304 1 min 0 min 0,000 mm 0,4 UV-I 209 W/m 6,3 C 1,2 C 37,2 km/h (5 Bft) 100,00 %
09/12/2019 13:09 8,9 C 84 % 1009,9 hPa 0,0 mm 19,7 km/h (3 Bft) NO 313 0 min 0 min 0,000 mm 0,0 UV-I 152 W/m 6,3 C 2,0 C 35,4 km/h (5 Bft) 100,00 %
09/12/2019 13:08 9,0 C 83 % 1009,8 hPa 0,0 mm 19,0 km/h (3 Bft) O-NO 295 0 min 0 min 0,000 mm 0,0 UV-I 96 W/m 6,3 C 2,3 C 28,3 km/h (5 Bft) 100,00 %
09/12/2019 13:07 9,0 C 83 % 1009,9 hPa 0,0 mm 19,7 km/h (3 Bft) O 275 0 min 0 min 0,000 mm 0,0 UV-I 76 W/m 6,3 C 2,1 C 35,4 km/h (5 Bft) 100,00 %
09/12/2019 13:06 9,1 C 83 % 1009,8 hPa 0,0 mm 20,2 km/h (4 Bft) O 263 0 min 0 min 0,000 mm 0,0 UV-I 86 W/m 6,4 C 2,1 C 37,2 km/h (5 Bft) 100,00 %
09/12/2019 13:04 9,1 C 83 % 1009,8 hPa 0,0 mm 17,9 km/h (3 Bft) N-NO 336 0 min 0 min 0,000 mm 0,0 UV-I 97 W/m 6,4 C 2,9 C 28,3 km/h (5 Bft) 100,00 %
09/12/2019 13:03 9,1 C 83 % 1009,7 hPa 0,0 mm 20,7 km/h (4 Bft) N 355 0 min 0 min 0,000 mm 0,0 UV-I 105 W/m 6,4 C 1,9 C 33,6 km/h (5 Bft) 100,00 %
09/12/2019 13:02 9,2 C 83 % 1009,8 hPa 0,0 mm 16,6 km/h (3 Bft) N-NO 329 0 min 0 min 0,000 mm 0,0 UV-I 112 W/m 6,5 C 3,5 C 31,9 km/h (5 Bft) 95,83 %
09/12/2019 13:01 9,2 C 83 % 1009,7 hPa 0,0 mm 15,5 km/h (3 Bft) O-NO 290 0 min 0 min 0,102 mm 0,0 UV-I 101 W/m 6,5 C 4,0 C 24,8 km/h (4 Bft) 100,00 %
09/12/2019 13:00 9,2 C 83 % 1009,7 hPa 0,0 mm 17,5 km/h (3 Bft) N 355 0 min 0 min 0,000 mm 0,0 UV-I 98 W/m 6,5 C 3,1 C 30,1 km/h (5 Bft) 100,00 %
09/12/2019 12:59 9,2 C 83 % 1009,7 hPa 0,0 mm 17,5 km/h (3 Bft) N-NO 346 0 min 0 min 0,000 mm 0,0 UV-I 102 W/m 6,5 C 3,1 C 33,6 km/h (5 Bft) 100,00 %
09/12/2019 12:58 9,2 C 83 % 1009,6 hPa 0,0 mm 15,6 km/h (3 Bft) N 355 0 min 0 min 0,000 mm 0,0 UV-I 121 W/m 6,5 C 3,9 C 24,8 km/h (4 Bft) 100,00 %
09/12/2019 12:57 9,2 C 82 % 1009,5 hPa 0,0 mm 18,1 km/h (3 Bft) NO 305 0 min 0 min 0,000 mm 0,0 UV-I 107 W/m 6,3 C 2,9 C 24,8 km/h (4 Bft) 95,65 %
09/12/2019 12:56 9,3 C 83 % 1009,5 hPa 0,0 mm 15,5 km/h (3 Bft) N-NO 340 0 min 0 min 0,000 mm 0,0 UV-I 105 W/m 6,6 C 4,1 C 31,9 km/h (5 Bft) 100,00 %
09/12/2019 12:55 9,3 C 83 % 1009,5 hPa 0,0 mm 19,7 km/h (3 Bft) NO 319 0 min 0 min 0,000 mm 0,0 UV-I 103 W/m 6,6 C 2,5 C 33,6 km/h (5 Bft) 100,00 %
09/12/2019 12:54 9,3 C 82 % 1009,5 hPa 0,0 mm 16,0 km/h (3 Bft) NE 53 0 min 0 min 0,000 mm 0,0 UV-I 95 W/m 6,4 C 3,9 C 26,6 km/h (4 Bft) 100,00 %
09/12/2019 12:53 9,4 C 82 % 1009,5 hPa 0,0 mm 19,0 km/h (3 Bft) NO 310 0 min 0 min 0,000 mm 0,0 UV-I 95 W/m 6,5 C 2,9 C 31,9 km/h (5 Bft) 100,00 %
09/12/2019 12:52 9,4 C 82 % 1009,5 hPa 0,0 mm 15,2 km/h (3 Bft) N-NE 19 0 min 0 min 0,000 mm 0,0 UV-I 91 W/m 6,5 C 4,3 C 24,8 km/h (4 Bft) 92,86 %
09/12/2019 12:51 9,5 C 82 % 1009,4 hPa 0,0 mm 25,6 km/h (4 Bft) O 278 0 min 0 min 0,000 mm 0,0 UV-I 80 W/m 6,6 C 1,0 C 33,6 km/h (5 Bft) 100,00 %
09/12/2019 12:50 9,6 C 83 % 1009,4 hPa 0,0 mm 21,6 km/h (4 Bft) NO 304 0 min 0 min 0,000 mm 0,0 UV-I 74 W/m 6,9 C 2,3 C 38,9 km/h (6 Bft) 100,00 %
09/12/2019 12:49 9,6 C 83 % 1009,4 hPa 0,0 mm 17,3 km/h (3 Bft) O-NO 298 0 min 0 min 0,000 mm 0,0 UV-I 81 W/m 6,9 C 3,7 C 30,1 km/h (5 Bft) 93,33 %
09/12/2019 12:48 9,7 C 82 % 1009,4 hPa 0,0 mm 16,7 km/h (3 Bft) N-NO 329 0 min 0 min 0,000 mm 0,0 UV-I 102 W/m 6,8 C 4,1 C 31,9 km/h (5 Bft) 96,15 %
09/12/2019 12:47 9,7 C 83 % 1009,3 hPa 0,0 mm 19,5 km/h (3 Bft) O 271 0 min 0 min 0,000 mm 0,0 UV-I 127 W/m 7,0 C 3,1 C 35,4 km/h (5 Bft) 96,30 %
09/12/2019 12:46 9,7 C 83 % 1009,3 hPa 0,0 mm 19,3 km/h (3 Bft) NO 317 0 min 0 min 0,000 mm 0,0 UV-I 135 W/m 7,0 C 3,1 C 33,6 km/h (5 Bft) 100,00 %
09/12/2019 12:45 9,8 C 83 % 1009,2 hPa 0,0 mm 17,1 km/h (3 Bft) N 355 1 min 0 min 0,000 mm 0,0 UV-I 383 W/m 7,1 C 4,1 C 24,8 km/h (4 Bft) 91,67 %
09/12/2019 12:44 9,8 C 83 % 1009,2 hPa 0,0 mm 19,0 km/h (3 Bft) N 355 1 min 0 min 0,000 mm 0,2 UV-I 383 W/m 7,1 C 3,4 C 26,6 km/h (4 Bft) 100,00 %
09/12/2019 12:43 9,7 C 84 % 1009,2 hPa 0,0 mm 20,0 km/h (4 Bft) N-NO 336 1 min 0 min 0,000 mm 0,5 UV-I 383 W/m 7,1 C 2,9 C 37,2 km/h (5 Bft) 96,30 %
09/12/2019 12:42 9,7 C 83 % 1009,1 hPa 0,0 mm 20,1 km/h (4 Bft) NO 323 1 min 0 min 0,000 mm 0,5 UV-I 382 W/m 7,0 C 2,9 C 28,3 km/h (5 Bft) 100,00 %
09/12/2019 12:41 9,6 C 84 % 1009,1 hPa 0,0 mm 21,9 km/h (4 Bft) O-NO 296 1 min 0 min 0,000 mm 0,6 UV-I 372 W/m 7,0 C 2,2 C 31,9 km/h (5 Bft) 96,00 %
09/12/2019 12:40 9,6 C 84 % 1009,0 hPa 0,0 mm 19,9 km/h (4 Bft) N-NO 331 1 min 0 min 0,000 mm 0,6 UV-I 358 W/m 7,0 C 2,8 C 35,4 km/h (5 Bft) 100,00 %
09/12/2019 12:39 9,5 C 84 % 1009,0 hPa 0,0 mm 19,9 km/h (4 Bft) N-NO 348 1 min 0 min 0,000 mm 0,6 UV-I 347 W/m 6,9 C 2,7 C 31,9 km/h (5 Bft) 100,00 %
09/12/2019 12:38 9,4 C 84 % 1009,0 hPa 0,0 mm 16,4 km/h (3 Bft) NO 320 1 min 0 min 0,000 mm 0,6 UV-I 345 W/m 6,8 C 3,8 C 28,3 km/h (5 Bft) 100,00 %
09/12/2019 12:37 9,4 C 84 % 1008,9 hPa 0,0 mm 17,8 km/h (3 Bft) N-NE 27 1 min 0 min 0,000 mm 0,6 UV-I 346 W/m 6,8 C 3,3 C 24,8 km/h (4 Bft) 92,00 %
09/12/2019 12:36 9,4 C 84 % 1008,8 hPa 0,0 mm 23,8 km/h (4 Bft) O-NO 292 1 min 0 min 0,000 mm 0,6 UV-I 338 W/m 6,8 C 1,3 C 31,9 km/h (5 Bft) 100,00 %
09/12/2019 12:35 9,3 C 85 % 1009,0 hPa 0,0 mm 21,0 km/h (4 Bft) N-NO 334 1 min 0 min 0,000 mm 0,6 UV-I 276 W/m 6,9 C 2,1 C 33,6 km/h (5 Bft) 100,00 %
09/12/2019 12:34 9,3 C 86 % 1008,8 hPa 0,0 mm 22,8 km/h (4 Bft) O-NO 302 1 min 0 min 0,000 mm 0,5 UV-I 322 W/m 7,1 C 1,5 C 38,9 km/h (6 Bft) 100,00 %
09/12/2019 12:33 9,3 C 86 % 1008,8 hPa 0,0 mm 21,8 km/h (4 Bft) NO 307 1 min 0 min 0,000 mm 0,5 UV-I 350 W/m 7,1 C 1,8 C 30,1 km/h (5 Bft) 100,00 %
09/12/2019 12:32 9,3 C 86 % 1008,8 hPa 0,0 mm 19,3 km/h (3 Bft) O-NO 290 1 min 0 min 0,000 mm 0,5 UV-I 339 W/m 7,1 C 2,6 C 28,3 km/h (5 Bft) 100,00 %
09/12/2019 12:31 9,2 C 86 % 1008,7 hPa 0,0 mm 17,4 km/h (3 Bft) N-NO 338 1 min 0 min 0,000 mm 0,5 UV-I 193 W/m 7,0 C 3,2 C 24,8 km/h (4 Bft) 100,00 %
09/12/2019 12:30 9,2 C 86 % 1008,7 hPa 0,0 mm 18,3 km/h (3 Bft) NO 323 1 min 0 min 0,000 mm 0,5 UV-I 181 W/m 7,0 C 2,8 C 37,2 km/h (5 Bft) 100,00 %
09/12/2019 12:29 9,2 C 86 % 1008,8 hPa 0,0 mm 17,3 km/h (3 Bft) N 9 1 min 0 min 0,000 mm 0,5 UV-I 179 W/m 7,0 C 3,2 C 28,3 km/h (5 Bft) 100,00 %
09/12/2019 12:28 9,2 C 86 % 1008,7 hPa 0,0 mm 16,9 km/h (3 Bft) NO 319 1 min 0 min 0,000 mm 0,5 UV-I 183 W/m 7,0 C 3,4 C 33,6 km/h (5 Bft) 100,00 %
09/12/2019 12:27 9,2 C 86 % 1008,6 hPa 0,0 mm 20,4 km/h (4 Bft) O-NO 298 1 min 0 min 0,000 mm 0,5 UV-I 179 W/m 7,0 C 2,1 C 26,6 km/h (4 Bft) 100,00 %
09/12/2019 12:26 9,2 C 86 % 1008,6 hPa 0,0 mm 17,8 km/h (3 Bft) O-NO 291 0 min 0 min 0,000 mm 0,3 UV-I 141 W/m 7,0 C 3,0 C 23,0 km/h (4 Bft) 100,00 %
09/12/2019 12:25 9,2 C 86 % 1008,6 hPa 0,0 mm 18,9 km/h (3 Bft) N-NO 331 0 min 0 min 0,000 mm 0,0 UV-I 140 W/m 7,0 C 2,6 C 26,6 km/h (4 Bft) 100,00 %
09/12/2019 12:24 9,2 C 86 % 1008,5 hPa 0,0 mm 16,5 km/h (3 Bft) O-NO 285 0 min 0 min 0,000 mm 0,0 UV-I 151 W/m 7,0 C 3,5 C 30,1 km/h (5 Bft) 100,00 %
09/12/2019 12:23 9,2 C 86 % 1008,5 hPa 0,0 mm 21,1 km/h (4 Bft) N-NE 28 0 min 0 min 0,000 mm 0,0 UV-I 161 W/m 7,0 C 1,9 C 37,2 km/h (5 Bft) 100,00 %
09/12/2019 12:22 9,2 C 86 % 1008,5 hPa 0,0 mm 12,6 km/h (3 Bft) NO 312 0 min 0 min 0,000 mm 0,0 UV-I 143 W/m 7,0 C 5,3 C 26,6 km/h (4 Bft) 100,00 %
09/12/2019 12:21 9,2 C 87 % 1008,5 hPa 0,0 mm 15,4 km/h (3 Bft) NO 313 0 min 0 min 0,000 mm 0,0 UV-I 145 W/m 7,2 C 4,0 C 31,9 km/h (5 Bft) 100,00 %
09/12/2019 12:20 9,2 C 87 % 1008,5 hPa 0,0 mm 16,9 km/h (3 Bft) N 360 0 min 0 min 0,000 mm 0,0 UV-I 167 W/m 7,2 C 3,4 C 35,4 km/h (5 Bft) 100,00 %
09/12/2019 12:19 9,2 C 87 % 1008,4 hPa 0,0 mm 18,4 km/h (3 Bft) O-NO 301 1 min 0 min 0,000 mm 0,0 UV-I 190 W/m 7,2 C 2,8 C 30,1 km/h (5 Bft) 100,00 %
09/12/2019 12:18 9,1 C 87 % 1008,3 hPa 0,0 mm 20,4 km/h (4 Bft) NO 307 1 min 0 min 0,000 mm 0,0 UV-I 202 W/m 7,1 C 2,0 C 40,7 km/h (6 Bft) 95,65 %
09/12/2019 12:17 9,1 C 87 % 1008,3 hPa 0,0 mm 15,6 km/h (3 Bft) O-NO 298 1 min 0 min 0,000 mm 0,4 UV-I 195 W/m 7,1 C 3,8 C 19,5 km/h (3 Bft) 100,00 %
09/12/2019 12:16 9,1 C 88 % 1008,3 hPa 0,0 mm 24,5 km/h (4 Bft) N-NO 343 2 min 0 min 0,000 mm 0,0 UV-I 182 W/m 7,2 C 0,7 C 35,4 km/h (5 Bft) 95,92 %
09/12/2019 12:14 9,0 C 88 % 1008,2 hPa 0,0 mm 19,9 km/h (4 Bft) O-NO 284 0 min 0 min 0,000 mm 0,2 UV-I 125 W/m 7,1 C 2,0 C 31,9 km/h (5 Bft) 91,67 %
09/12/2019 12:13 9,0 C 88 % 1008,2 hPa 0,0 mm 15,8 km/h (3 Bft) O-NO 300 0 min 0 min 0,000 mm 0,5 UV-I 142 W/m 7,1 C 3,6 C 28,3 km/h (5 Bft) 97,83 %
09/12/2019 12:12 9,0 C 89 % 1008,2 hPa 0,0 mm 17,3 km/h (3 Bft) N-NE 17 0 min 0 min 0,000 mm 0,1 UV-I 131 W/m 7,3 C 3,0 C 26,6 km/h (4 Bft) 94,44 %
09/12/2019 12:11 8,9 C 89 % 1008,1 hPa 0,0 mm 16,7 km/h (3 Bft) N-NO 327 0 min 0 min 0,000 mm 0,0 UV-I 124 W/m 7,2 C 3,1 C 26,6 km/h (4 Bft) 96,15 %
09/12/2019 12:10 8,8 C 89 % 1008,1 hPa 0,0 mm 16,3 km/h (3 Bft) N-NO 327 0 min 0 min 0,000 mm 0,5 UV-I 128 W/m 7,1 C 3,1 C 23,0 km/h (4 Bft) 100,00 %
09/12/2019 12:09 8,8 C 89 % 1008,1 hPa 0,0 mm 17,8 km/h (3 Bft) O 266 0 min 0 min 0,000 mm 0,2 UV-I 106 W/m 7,1 C 2,5 C 33,6 km/h (5 Bft) 92,86 %
09/12/2019 12:07 8,7 C 89 % 1008,0 hPa 0,0 mm 18,1 km/h (3 Bft) N 355 0 min 0 min 0,000 mm 0,3 UV-I 105 W/m 7,0 C 2,3 C 24,8 km/h (4 Bft) 92,59 %
09/12/2019 12:06 8,7 C 89 % 1008,0 hPa 0,0 mm 19,3 km/h (3 Bft) NO 311 0 min 0 min 0,000 mm 0,5 UV-I 125 W/m 7,0 C 1,9 C 30,1 km/h (5 Bft) 100,00 %
09/12/2019 12:05 8,7 C 90 % 1007,9 hPa 0,0 mm 21,1 km/h (4 Bft) O-NO 285 0 min 0 min 0,000 mm 0,5 UV-I 125 W/m 7,2 C 1,2 C 24,8 km/h (4 Bft) 91,67 %
09/12/2019 12:04 8,6 C 89 % 1007,9 hPa 0,0 mm 16,3 km/h (3 Bft) NE 38 0 min 0 min 0,000 mm 0,5 UV-I 164 W/m 6,9 C 2,9 C 30,1 km/h (5 Bft) 96,88 %
09/12/2019 12:02 8,6 C 89 % 1007,8 hPa 0,0 mm 17,2 km/h (3 Bft) E-NE 58 0 min 0 min 0,000 mm 0,5 UV-I 136 W/m 6,9 C 2,5 C 26,6 km/h (4 Bft) 94,12 %
09/12/2019 12:01 8,6 C 89 % 1007,8 hPa 0,0 mm 18,5 km/h (3 Bft) O-NO 283 0 min 0 min 0,051 mm 0,5 UV-I 130 W/m 6,9 C 2,0 C 24,8 km/h (4 Bft) 100,00 %
09/12/2019 12:00 8,6 C 89 % 1007,7 hPa 0,0 mm 18,0 km/h (3 Bft) NO 312 0 min 0 min 0,000 mm 0,1 UV-I 92 W/m 6,9 C 2,2 C 28,3 km/h (5 Bft) 96,43 %
09/12/2019 11:59 8,6 C 89 % 1007,7 hPa 0,0 mm 19,1 km/h (3 Bft) N 355 0 min 0 min 0,000 mm 0,0 UV-I 49 W/m 6,9 C 1,8 C 30,1 km/h (5 Bft) 100,00 %
09/12/2019 11:58 8,6 C 89 % 1007,6 hPa 0,0 mm 13,5 km/h (3 Bft) O-NO 295 0 min 0 min 0,000 mm 0,0 UV-I 56 W/m 6,9 C 4,1 C 31,9 km/h (5 Bft) 96,77 %
09/12/2019 11:57 8,6 C 89 % 1007,6 hPa 0,0 mm 17,0 km/h (3 Bft) NE 34 0 min 0 min 0,000 mm 0,0 UV-I 69 W/m 6,9 C 2,6 C 31,9 km/h (5 Bft) 100,00 %
09/12/2019 11:56 8,7 C 89 % 1007,6 hPa 0,0 mm 16,0 km/h (3 Bft) O-NO 299 0 min 0 min 0,000 mm 0,0 UV-I 65 W/m 7,0 C 3,1 C 26,6 km/h (4 Bft) 95,92 %
09/12/2019 11:54 8,7 C 90 % 1007,6 hPa 0,0 mm 20,6 km/h (4 Bft) NO 310 0 min 0 min 0,000 mm 0,0 UV-I 78 W/m 7,2 C 1,4 C 33,6 km/h (5 Bft) 96,30 %
09/12/2019 11:53 8,7 C 90 % 1007,6 hPa 0,0 mm 20,2 km/h (4 Bft) N-NO 345 0 min 0 min 0,000 mm 0,0 UV-I 89 W/m 7,2 C 1,5 C 30,1 km/h (5 Bft) 96,00 %
09/12/2019 11:52 8,7 C 90 % 1007,5 hPa 0,0 mm 14,5 km/h (3 Bft) O-NO 285 0 min 0 min 0,000 mm 0,0 UV-I 102 W/m 7,2 C 3,8 C 28,3 km/h (5 Bft) 95,83 %
09/12/2019 11:51 8,7 C 90 % 1007,5 hPa 0,0 mm 21,1 km/h (4 Bft) N-NO 343 0 min 0 min 0,000 mm 0,0 UV-I 100 W/m 7,2 C 1,2 C 30,1 km/h (5 Bft) 100,00 %
09/12/2019 11:50 8,7 C 90 % 1007,5 hPa 0,0 mm 18,3 km/h (3 Bft) NO 326 0 min 0 min 0,000 mm 0,0 UV-I 91 W/m 7,2 C 2,2 C 30,1 km/h (5 Bft) 96,15 %
09/12/2019 11:49 8,7 C 90 % 1007,5 hPa 0,0 mm 19,0 km/h (3 Bft) NO 317 0 min 0 min 0,000 mm 0,0 UV-I 110 W/m 7,2 C 2,0 C 35,4 km/h (5 Bft) 96,00 %
09/12/2019 11:48 8,7 C 90 % 1007,4 hPa 0,0 mm 19,5 km/h (3 Bft) NO 307 0 min 0 min 0,000 mm 0,0 UV-I 134 W/m 7,2 C 1,8 C 31,9 km/h (5 Bft) 100,00 %
09/12/2019 11:47 8,6 C 90 % 1007,4 hPa 0,0 mm 16,6 km/h (3 Bft) N-NE 32 0 min 0 min 0,000 mm 0,0 UV-I 132 W/m 7,1 C 2,8 C 26,6 km/h (4 Bft) 95,65 %
09/12/2019 11:46 8,6 C 90 % 1007,4 hPa 0,0 mm 19,1 km/h (3 Bft) O 264 0 min 0 min 0,000 mm 0,0 UV-I 108 W/m 7,1 C 1,8 C 31,9 km/h (5 Bft) 92,00 %
09/12/2019 11:45 8,6 C 90 % 1007,2 hPa 0,0 mm 17,5 km/h (3 Bft) N 10 0 min 0 min 0,000 mm 0,0 UV-I 86 W/m 7,1 C 2,4 C 31,9 km/h (5 Bft) 85,71 %
09/12/2019 11:44 8,6 C 91 % 1007,2 hPa 0,0 mm 24,6 km/h (4 Bft) O-NO 293 0 min 0 min 0,000 mm 0,0 UV-I 83 W/m 7,2 C 0,0 C 35,4 km/h (5 Bft) 100,00 %
09/12/2019 11:43 8,6 C 91 % 1007,3 hPa 0,0 mm 12,6 km/h (3 Bft) N 360 0 min 0 min 0,000 mm 0,0 UV-I 151 W/m 7,2 C 4,6 C 21,2 km/h (4 Bft) 96,88 %
09/12/2019 11:42 8,4 C 91 % 1007,2 hPa 0,0 mm 20,8 km/h (4 Bft) O-NO 298 1 min 0 min 0,000 mm 0,0 UV-I 230 W/m 7,0 C 0,9 C 31,9 km/h (5 Bft) 100,00 %
09/12/2019 11:41 8,4 C 91 % 1007,2 hPa 0,0 mm 23,5 km/h (4 Bft) N-NO 336 1 min 0 min 0,000 mm 0,0 UV-I 187 W/m 7,0 C 0,1 C 35,4 km/h (5 Bft) 92,59 %
09/12/2019 11:40 8,3 C 91 % 1007,1 hPa 0,0 mm 22,0 km/h (4 Bft) N-NE 22 1 min 0 min 0,000 mm 0,0 UV-I 224 W/m 6,9 C 0,4 C 33,6 km/h (5 Bft) 96,43 %
09/12/2019 11:39 8,3 C 91 % 1007,1 hPa 0,0 mm 20,4 km/h (4 Bft) N 350 0 min 0 min 0,000 mm 0,0 UV-I 147 W/m 6,9 C 1,0 C 31,9 km/h (5 Bft) 93,33 %
09/12/2019 11:38 8,3 C 91 % 1007,0 hPa 0,0 mm 19,2 km/h (3 Bft) O-NO 302 0 min 0 min 0,000 mm 0,0 UV-I 85 W/m 6,9 C 1,4 C 35,4 km/h (5 Bft) 96,23 %
09/12/2019 11:36 8,3 C 90 % 1007,0 hPa 0,0 mm 16,3 km/h (3 Bft) O 276 0 min 0 min 0,000 mm 0,0 UV-I 62 W/m 6,8 C 2,5 C 23,0 km/h (4 Bft) 95,83 %
09/12/2019 11:35 8,3 C 90 % 1007,0 hPa 0,0 mm 20,2 km/h (4 Bft) NO 318 0 min 0 min 0,000 mm 0,0 UV-I 67 W/m 6,8 C 1,0 C 33,6 km/h (5 Bft) 91,67 %
09/12/2019 11:34 8,3 C 90 % 1006,9 hPa 0,0 mm 20,6 km/h (4 Bft) NO 309 0 min 0 min 0,000 mm 0,0 UV-I 94 W/m 6,8 C 0,9 C 37,2 km/h (5 Bft) 100,00 %
09/12/2019 11:33 8,3 C 90 % 1006,9 hPa 0,0 mm 22,2 km/h (4 Bft) O-NO 285 0 min 0 min 0,000 mm 0,0 UV-I 113 W/m 6,8 C 0,4 C 33,6 km/h (5 Bft) 91,67 %
09/12/2019 11:32 8,3 C 90 % 1006,9 hPa 0,0 mm 23,9 km/h (4 Bft) NO 319 0 min 0 min 0,000 mm 0,0 UV-I 111 W/m 6,8 C -0,2 C 35,4 km/h (5 Bft) 96,00 %
09/12/2019 11:31 8,3 C 90 % 1006,8 hPa 0,0 mm 20,5 km/h (4 Bft) N 355 0 min 0 min 0,000 mm 0,0 UV-I 99 W/m 6,8 C 0,9 C 37,2 km/h (5 Bft) 96,55 %
09/12/2019 11:30 8,3 C 90 % 1006,8 hPa 0,0 mm 19,4 km/h (3 Bft) SO 221 0 min 0 min 0,000 mm 0,0 UV-I 87 W/m 6,8 C 1,3 C 31,9 km/h (5 Bft) 100,00 %
09/12/2019 11:29 8,4 C 90 % 1006,7 hPa 0,0 mm 22,1 km/h (4 Bft) N-NO 331 0 min 0 min 0,000 mm 0,0 UV-I 75 W/m 6,9 C 0,5 C 33,6 km/h (5 Bft) 96,67 %
09/12/2019 11:28 8,4 C 90 % 1006,6 hPa 0,0 mm 23,1 km/h (4 Bft) N-NO 336 0 min 0 min 0,000 mm 0,0 UV-I 65 W/m 6,9 C 0,2 C 37,2 km/h (5 Bft) 100,00 %
09/12/2019 11:27 8,4 C 90 % 1006,6 hPa 0,0 mm 26,2 km/h (4 Bft) O-NO 282 0 min 0 min 0,000 mm 0,0 UV-I 66 W/m 6,9 C -0,7 C 33,6 km/h (5 Bft) 100,00 %
09/12/2019 11:26 8,4 C 90 % 1006,6 hPa 0,0 mm 19,4 km/h (3 Bft) N-NO 333 0 min 0 min 0,000 mm 0,0 UV-I 73 W/m 6,9 C 1,4 C 26,6 km/h (4 Bft) 100,00 %
09/12/2019 11:25 8,5 C 90 % 1006,5 hPa 0,0 mm 21,7 km/h (4 Bft) NO 324 0 min 0 min 0,000 mm 0,0 UV-I 80 W/m 7,0 C 0,8 C 30,1 km/h (5 Bft) 100,00 %
09/12/2019 11:24 8,5 C 91 % 1006,4 hPa 0,0 mm 20,5 km/h (4 Bft) NO 309 0 min 0 min 0,000 mm 0,0 UV-I 93 W/m 7,1 C 1,2 C 33,6 km/h (5 Bft) 100,00 %
09/12/2019 11:23 8,6 C 91 % 1006,4 hPa 0,0 mm 19,4 km/h (3 Bft) O-NO 303 0 min 0 min 0,000 mm 0,0 UV-I 102 W/m 7,2 C 1,7 C 30,1 km/h (5 Bft) 100,00 %
09/12/2019 11:22 8,6 C 91 % 1006,4 hPa 0,0 mm 18,7 km/h (3 Bft) N-NE 27 0 min 0 min 0,000 mm 0,0 UV-I 83 W/m 7,2 C 1,9 C 28,3 km/h (5 Bft) 100,00 %
09/12/2019 11:21 8,6 C 91 % 1006,4 hPa 0,0 mm 20,6 km/h (4 Bft) NO 304 0 min 0 min 0,000 mm 0,0 UV-I 70 W/m 7,2 C 1,3 C 30,1 km/h (5 Bft) 100,00 %
09/12/2019 11:20 8,6 C 91 % 1006,3 hPa 0,0 mm 22,6 km/h (4 Bft) NO 314 0 min 0 min 0,000 mm 0,0 UV-I 65 W/m 7,2 C 0,6 C 33,6 km/h (5 Bft) 100,00 %
09/12/2019 11:19 8,6 C 91 % 1006,3 hPa 0,0 mm 19,7 km/h (3 Bft) N 355 0 min 0 min 0,000 mm 0,0 UV-I 67 W/m 7,2 C 1,6 C 33,6 km/h (5 Bft) 100,00 %
09/12/2019 11:18 8,7 C 91 % 1006,3 hPa 0,0 mm 16,3 km/h (3 Bft) NO 312 0 min 0 min 0,000 mm 0,0 UV-I 79 W/m 7,3 C 3,0 C 28,3 km/h (5 Bft) 100,00 %
09/12/2019 11:17 8,7 C 91 % 1006,3 hPa 0,0 mm 18,1 km/h (3 Bft) NO 323 0 min 0 min 0,000 mm 0,0 UV-I 82 W/m 7,3 C 2,3 C 28,3 km/h (5 Bft) 100,00 %
09/12/2019 11:16 8,7 C 91 % 1006,2 hPa 0,0 mm 18,6 km/h (3 Bft) N-NE 16 0 min 0 min 0,000 mm 0,0 UV-I 58 W/m 7,3 C 2,1 C 33,6 km/h (5 Bft) 100,00 %
09/12/2019 11:15 8,7 C 92 % 1006,1 hPa 0,0 mm 25,9 km/h (4 Bft) O-NO 286 0 min 0 min 0,000 mm 0,0 UV-I 46 W/m 7,5 C -0,2 C 38,9 km/h (6 Bft) 96,00 %
09/12/2019 11:14 8,7 C 92 % 1006,2 hPa 0,0 mm 21,0 km/h (4 Bft) O 281 0 min 0 min 0,000 mm 0,0 UV-I 54 W/m 7,5 C 1,3 C 28,3 km/h (5 Bft) 95,83 %
09/12/2019 11:13 8,7 C 92 % 1006,1 hPa 0,0 mm 20,6 km/h (4 Bft) NO 323 0 min 0 min 0,000 mm 0,0 UV-I 83 W/m 7,5 C 1,4 C 30,1 km/h (5 Bft) 100,00 %
09/12/2019 11:12 8,6 C 92 % 1006,0 hPa 0,0 mm 16,7 km/h (3 Bft) NO 308 0 min 0 min 0,000 mm 0,0 UV-I 116 W/m 7,4 C 2,7 C 26,6 km/h (4 Bft) 100,00 %
09/12/2019 11:11 8,6 C 92 % 1005,9 hPa 0,0 mm 15,9 km/h (3 Bft) N-NO 327 0 min 0 min 0,000 mm 0,0 UV-I 112 W/m 7,4 C 3,0 C 28,3 km/h (5 Bft) 100,00 %
09/12/2019 11:10 8,6 C 92 % 1005,9 hPa 0,0 mm 18,4 km/h (3 Bft) SO 230 0 min 0 min 0,000 mm 0,0 UV-I 96 W/m 7,4 C 2,1 C 31,9 km/h (5 Bft) 95,83 %
09/12/2019 11:09 8,6 C 93 % 1005,9 hPa 0,0 mm 11,2 km/h (2 Bft) NO 325 0 min 0 min 0,000 mm 0,0 UV-I 90 W/m 7,5 C 5,3 C 24,8 km/h (4 Bft) 100,00 %
09/12/2019 11:08 8,6 C 93 % 1005,8 hPa 0,0 mm 17,1 km/h (3 Bft) O-NO 294 0 min 0 min 0,000 mm 0,0 UV-I 90 W/m 7,5 C 2,6 C 26,6 km/h (4 Bft) 96,00 %
09/12/2019 11:07 8,6 C 93 % 1005,8 hPa 0,0 mm 15,3 km/h (3 Bft) NO 317 0 min 0 min 0,000 mm 0,0 UV-I 96 W/m 7,5 C 3,3 C 30,1 km/h (5 Bft) 97,78 %
09/12/2019 11:05 8,4 C 94 % 1005,7 hPa 0,0 mm 17,9 km/h (3 Bft) O 265 0 min 0 min 0,000 mm 0,0 UV-I 93 W/m 7,5 C 2,0 C 24,8 km/h (4 Bft) 97,50 %
09/12/2019 11:04 8,4 C 94 % 1005,7 hPa 0,0 mm 17,9 km/h (3 Bft) O-NO 292 0 min 0 min 0,000 mm 0,0 UV-I 110 W/m 7,5 C 2,0 C 31,9 km/h (5 Bft) 90,91 %
09/12/2019 11:03 8,3 C 94 % 1005,6 hPa 0,0 mm 18,9 km/h (3 Bft) N-NO 342 0 min 0 min 0,000 mm 0,0 UV-I 109 W/m 7,4 C 1,5 C 28,3 km/h (5 Bft) 96,00 %
09/12/2019 11:02 8,3 C 94 % 1005,6 hPa 0,0 mm 13,3 km/h (3 Bft) O 281 0 min 0 min 0,000 mm 0,0 UV-I 114 W/m 7,4 C 3,9 C 23,0 km/h (4 Bft) 100,00 %
09/12/2019 11:01 8,3 C 94 % 1005,5 hPa 0,0 mm 17,9 km/h (3 Bft) NO 319 0 min 0 min 0,025 mm 0,0 UV-I 133 W/m 7,4 C 1,9 C 28,3 km/h (5 Bft) 93,33 %
09/12/2019 11:00 8,2 C 94 % 1005,5 hPa 0,0 mm 20,8 km/h (4 Bft) N 5 1 min 0 min 0,000 mm 0,0 UV-I 147 W/m 7,3 C 0,7 C 31,9 km/h (5 Bft) 100,00 %
09/12/2019 10:59 8,2 C 94 % 1005,4 hPa 0,0 mm 19,1 km/h (3 Bft) N-NE 30 0 min 0 min 0,000 mm 0,0 UV-I 121 W/m 7,3 C 1,3 C 33,6 km/h (5 Bft) 92,59 %
09/12/2019 10:58 8,2 C 94 % 1005,4 hPa 0,0 mm 22,6 km/h (4 Bft) O 260 0 min 0 min 0,000 mm 0,0 UV-I 113 W/m 7,3 C 0,1 C 35,4 km/h (5 Bft) 100,00 %
09/12/2019 10:57 8,2 C 94 % 1005,3 hPa 0,0 mm 24,9 km/h (4 Bft) NO 318 0 min 0 min 0,000 mm 0,0 UV-I 83 W/m 7,3 C -0,6 C 35,4 km/h (5 Bft) 100,00 %
09/12/2019 10:56 8,2 C 95 % 1005,2 hPa 0,0 mm 14,3 km/h (3 Bft) O-NO 284 0 min 0 min 0,000 mm 0,0 UV-I 68 W/m 7,4 C 3,3 C 24,8 km/h (4 Bft) 100,00 %
09/12/2019 10:55 8,1 C 95 % 1005,1 hPa 0,0 mm 16,8 km/h (3 Bft) SO 219 0 min 0 min 0,000 mm 0,0 UV-I 64 W/m 7,3 C 2,1 C 26,6 km/h (4 Bft) 100,00 %
09/12/2019 10:54 8,2 C 95 % 1005,0 hPa 0,0 mm 15,4 km/h (3 Bft) O 263 0 min 0 min 0,000 mm 0,0 UV-I 60 W/m 7,4 C 2,8 C 30,1 km/h (5 Bft) 100,00 %
09/12/2019 10:53 8,1 C 95 % 1005,0 hPa 0,0 mm 16,2 km/h (3 Bft) S-SO 194 0 min 0 min 0,000 mm 0,0 UV-I 55 W/m 7,3 C 2,3 C 24,8 km/h (4 Bft) 100,00 %
09/12/2019 10:52 8,1 C 95 % 1005,0 hPa 0,0 mm 15,1 km/h (3 Bft) O 264 0 min 0 min 0,000 mm 0,0 UV-I 53 W/m 7,3 C 2,8 C 24,8 km/h (4 Bft) 96,00 %
09/12/2019 10:51 8,1 C 95 % 1005,0 hPa 0,0 mm 21,6 km/h (4 Bft) NO 304 0 min 0 min 0,000 mm 0,0 UV-I 52 W/m 7,3 C 0,3 C 33,6 km/h (5 Bft) 100,00 %
09/12/2019 10:50 8,1 C 95 % 1004,9 hPa 0,0 mm 17,9 km/h (3 Bft) NO 309 0 min 0 min 0,000 mm 0,0 UV-I 51 W/m 7,3 C 1,6 C 30,1 km/h (5 Bft) 100,00 %
09/12/2019 10:49 8,1 C 95 % 1004,9 hPa 0,0 mm 11,1 km/h (2 Bft) NO 321 0 min 0 min 0,000 mm 0,0 UV-I 47 W/m 7,3 C 4,8 C 19,5 km/h (3 Bft) 100,00 %
09/12/2019 10:48 8,1 C 95 % 1004,8 hPa 0,0 mm 18,4 km/h (3 Bft) N-NO 329 0 min 0 min 0,000 mm 0,0 UV-I 51 W/m 7,3 C 1,4 C 35,4 km/h (5 Bft) 100,00 %
09/12/2019 10:47 8,1 C 95 % 1004,7 hPa 0,0 mm 19,4 km/h (3 Bft) NO 325 0 min 0 min 0,000 mm 0,0 UV-I 56 W/m 7,3 C 1,0 C 28,3 km/h (5 Bft) 100,00 %
09/12/2019 10:46 8,1 C 95 % 1004,7 hPa 0,0 mm 14,5 km/h (3 Bft) NO 320 0 min 0 min 0,000 mm 0,0 UV-I 57 W/m 7,3 C 3,1 C 30,1 km/h (5 Bft) 94,03 %
09/12/2019 10:45 8,1 C 95 % 1004,7 hPa 0,0 mm 16,1 km/h (3 Bft) N 5 0 min 0 min 0,000 mm 0,0 UV-I 57 W/m 7,3 C 2,3 C 26,6 km/h (4 Bft) 100,00 %
09/12/2019 10:44 8,1 C 95 % 1004,6 hPa 0,0 mm 16,0 km/h (3 Bft) N-NO 327 0 min 0 min 0,000 mm 0,0 UV-I 60 W/m 7,3 C 2,4 C 26,6 km/h (4 Bft) 100,00 %
09/12/2019 10:43 8,0 C 95 % 1004,6 hPa 0,0 mm 15,8 km/h (3 Bft) O 262 0 min 0 min 0,000 mm 0,0 UV-I 65 W/m 7,2 C 2,4 C 30,1 km/h (5 Bft) 100,00 %
09/12/2019 10:42 8,0 C 95 % 1004,5 hPa 0,0 mm 16,6 km/h (3 Bft) NO 320 0 min 0 min 0,000 mm 0,0 UV-I 59 W/m 7,2 C 2,0 C 35,4 km/h (5 Bft) 100,00 %
09/12/2019 10:41 8,0 C 95 % 1004,5 hPa 0,0 mm 11,4 km/h (2 Bft) N-NO 334 0 min 0 min 0,000 mm 0,0 UV-I 53 W/m 7,2 C 4,5 C 17,7 km/h (3 Bft) 100,00 %
09/12/2019 10:40 8,0 C 95 % 1004,4 hPa 0,0 mm 18,3 km/h (3 Bft) NO 315 0 min 0 min 0,000 mm 0,0 UV-I 52 W/m 7,2 C 1,3 C 31,9 km/h (5 Bft) 100,00 %
09/12/2019 10:39 8,0 C 95 % 1004,4 hPa 0,0 mm 19,4 km/h (3 Bft) O-NO 292 0 min 0 min 0,000 mm 0,0 UV-I 49 W/m 7,2 C 0,9 C 26,6 km/h (4 Bft) 100,00 %
09/12/2019 10:38 8,0 C 95 % 1004,3 hPa 0,0 mm 18,3 km/h (3 Bft) NO 306 0 min 0 min 0,000 mm 0,0 UV-I 44 W/m 7,2 C 1,3 C 28,3 km/h (5 Bft) 95,83 %
09/12/2019 10:37 8,0 C 95 % 1004,3 hPa 0,0 mm 18,5 km/h (3 Bft) NO 312 0 min 0 min 0,000 mm 0,0 UV-I 40 W/m 7,2 C 1,3 C 28,3 km/h (5 Bft) 96,00 %
09/12/2019 10:36 8,0 C 95 % 1004,3 hPa 0,0 mm 18,6 km/h (3 Bft) O-NO 303 0 min 0 min 0,000 mm 0,0 UV-I 33 W/m 7,2 C 1,2 C 31,9 km/h (5 Bft) 100,00 %
09/12/2019 10:35 8,0 C 96 % 1004,3 hPa 0,0 mm 15,5 km/h (3 Bft) N-NO 344 0 min 0 min 0,000 mm 0,0 UV-I 26 W/m 7,4 C 2,5 C 33,6 km/h (5 Bft) 100,00 %
09/12/2019 10:34 8,0 C 96 % 1004,2 hPa 0,0 mm 16,3 km/h (3 Bft) NO 309 0 min 0 min 0,000 mm 0,0 UV-I 27 W/m 7,4 C 2,1 C 23,0 km/h (4 Bft) 100,00 %
09/12/2019 10:33 8,0 C 96 % 1004,2 hPa 0,0 mm 12,9 km/h (3 Bft) O-NO 291 0 min 0 min 0,000 mm 0,0 UV-I 30 W/m 7,4 C 3,7 C 19,5 km/h (3 Bft) 100,00 %
09/12/2019 10:32 8,0 C 96 % 1004,2 hPa 0,0 mm 16,5 km/h (3 Bft) NO 322 0 min 0 min 0,000 mm 0,0 UV-I 30 W/m 7,4 C 2,1 C 26,6 km/h (4 Bft) 97,62 %
09/12/2019 10:31 8,0 C 96 % 1004,1 hPa 0,0 mm 12,7 km/h (3 Bft) N 5 0 min 0 min 0,000 mm 0,0 UV-I 28 W/m 7,4 C 3,8 C 21,2 km/h (4 Bft) 93,91 %
09/12/2019 10:30 8,0 C 96 % 1004,0 hPa 0,0 mm 16,1 km/h (3 Bft) NO 317 0 min 0 min 0,000 mm 0,0 UV-I 24 W/m 7,4 C 2,2 C 30,1 km/h (5 Bft) 96,00 %
09/12/2019 10:29 8,0 C 96 % 1003,9 hPa 0,0 mm 13,7 km/h (3 Bft) NO 315 0 min 0 min 0,000 mm 0,0 UV-I 26 W/m 7,4 C 3,3 C 24,8 km/h (4 Bft) 95,83 %
09/12/2019 10:28 8,0 C 96 % 1003,9 hPa 0,0 mm 12,6 km/h (3 Bft) NO 316 0 min 0 min 0,000 mm 0,0 UV-I 24 W/m 7,4 C 3,9 C 21,2 km/h (4 Bft) 100,00 %
09/12/2019 10:27 8,0 C 96 % 1003,9 hPa 0,0 mm 13,1 km/h (3 Bft) N-NO 344 0 min 0 min 0,000 mm 0,0 UV-I 20 W/m 7,4 C 3,6 C 26,6 km/h (4 Bft) 95,83 %
09/12/2019 10:26 7,9 C 96 % 1003,9 hPa 0,0 mm 12,4 km/h (2 Bft) NO 315 0 min 0 min 0,000 mm 0,0 UV-I 17 W/m 7,3 C 3,9 C 24,8 km/h (4 Bft) 93,55 %
09/12/2019 10:25 7,9 C 96 % 1003,8 hPa 0,0 mm 21,4 km/h (4 Bft) N-NO 339 0 min 0 min 0,000 mm 0,0 UV-I 18 W/m 7,3 C 0,1 C 28,3 km/h (5 Bft) 100,00 %
09/12/2019 10:24 7,9 C 96 % 1003,7 hPa 0,0 mm 16,6 km/h (3 Bft) N 11 0 min 0 min 0,000 mm 0,0 UV-I 16 W/m 7,3 C 1,9 C 24,8 km/h (4 Bft) 71,43 %
09/12/2019 10:23 7,9 C 96 % 1003,7 hPa 0,0 mm 17,4 km/h (3 Bft) NO 326 0 min 0 min 0,000 mm 0,0 UV-I 16 W/m 7,3 C 1,6 C 26,6 km/h (4 Bft) 93,95 %
09/12/2019 10:22 7,9 C 96 % 1003,8 hPa 0,0 mm 12,6 km/h (3 Bft) NO 316 0 min 0 min 0,000 mm 0,0 UV-I 21 W/m 7,3 C 3,8 C 19,5 km/h (3 Bft) 62,96 %
09/12/2019 10:21 7,9 C 96 % 1003,6 hPa 0,0 mm 15,5 km/h (3 Bft) O-NO 294 0 min 0 min 0,000 mm 0,0 UV-I 21 W/m 7,3 C 2,4 C 30,1 km/h (5 Bft) 52,00 %
09/12/2019 10:20 7,9 C 96 % 1003,6 hPa 0,2 mm 13,8 km/h (3 Bft) O-NO 289 0 min 0 min 0,000 mm 0,0 UV-I 21 W/m 7,3 C 3,2 C 19,5 km/h (3 Bft) 46,43 %
09/12/2019 10:19 7,9 C 96 % 1003,5 hPa 0,0 mm 16,6 km/h (3 Bft) O-NO 292 0 min 0 min 0,000 mm 0,0 UV-I 21 W/m 7,3 C 1,9 C 26,6 km/h (4 Bft) 64,29 %
09/12/2019 10:18 7,9 C 96 % 1003,6 hPa 0,0 mm 12,2 km/h (2 Bft) O 273 0 min 0 min 0,000 mm 0,0 UV-I 19 W/m 7,3 C 4,0 C 23,0 km/h (4 Bft) 100,00 %
09/12/2019 10:17 7,9 C 96 % 1003,6 hPa 0,0 mm 12,8 km/h (3 Bft) NO 313 0 min 0 min 0,000 mm 0,0 UV-I 19 W/m 7,3 C 3,7 C 23,0 km/h (4 Bft) 100,00 %
09/12/2019 10:16 7,9 C 96 % 1003,5 hPa 0,0 mm 14,5 km/h (3 Bft) O-NO 290 0 min 0 min 0,000 mm 0,0 UV-I 16 W/m 7,3 C 2,8 C 21,2 km/h (4 Bft) 100,00 %
09/12/2019 10:15 7,8 C 96 % 1003,5 hPa 0,0 mm 12,2 km/h (2 Bft) O-SO 238 0 min 0 min 0,000 mm 0,0 UV-I 12 W/m 7,2 C 3,9 C 19,5 km/h (3 Bft) 91,67 %
09/12/2019 10:14 7,8 C 96 % 1003,4 hPa 0,0 mm 13,0 km/h (3 Bft) O-NO 298 0 min 0 min 0,000 mm 0,0 UV-I 12 W/m 7,2 C 3,4 C 21,2 km/h (4 Bft) 96,30 %
09/12/2019 10:13 7,8 C 96 % 1003,3 hPa 0,0 mm 11,3 km/h (2 Bft) NO 319 0 min 0 min 0,000 mm 0,0 UV-I 14 W/m 7,2 C 4,4 C 17,7 km/h (3 Bft) 100,00 %
09/12/2019 10:12 7,8 C 96 % 1003,1 hPa 0,2 mm 14,2 km/h (3 Bft) O-SO 239 0 min 0 min 0,000 mm 0,0 UV-I 15 W/m 7,2 C 2,8 C 19,5 km/h (3 Bft) 45,83 %
09/12/2019 10:11 7,8 C 95 % 1003,2 hPa 0,0 mm 8,7 km/h (2 Bft) O-NO 288 0 min 0 min 0,000 mm 0,0 UV-I 12 W/m 7,0 C 6,0 C 14,2 km/h (3 Bft) 13,33 %
09/12/2019 10:10 7,8 C 95 % 1003,1 hPa 0,0 mm 9,7 km/h (2 Bft) O-NO 301 0 min 0 min 0,000 mm 0,0 UV-I 12 W/m 7,0 C 5,4 C 17,7 km/h (3 Bft) 29,17 %
09/12/2019 10:08 7,8 C 95 % 1003,0 hPa 0,2 mm 11,5 km/h (2 Bft) O-NO 295 0 min 0 min 0,000 mm 0,0 UV-I 22 W/m 7,0 C 4,3 C 21,2 km/h (4 Bft) 87,50 %
09/12/2019 10:07 7,8 C 95 % 1003,0 hPa 0,0 mm 7,7 km/h (2 Bft) O-NO 299 0 min 0 min 0,000 mm 0,0 UV-I 26 W/m 7,0 C 6,8 C 17,7 km/h (3 Bft) 100,00 %
09/12/2019 10:06 7,7 C 95 % 1002,9 hPa 0,0 mm 7,5 km/h (2 Bft) O 277 0 min 0 min 0,000 mm 0,0 UV-I 33 W/m 7,0 C 6,8 C 12,4 km/h (2 Bft) 100,00 %
09/12/2019 10:05 7,7 C 95 % 1003,0 hPa 0,2 mm 4,7 km/h (1 Bft) O-SO 243 0 min 0 min 0,000 mm 0,0 UV-I 37 W/m 7,0 C 7,7 C 8,9 km/h (2 Bft) 100,00 %
09/12/2019 10:04 7,7 C 95 % 1002,9 hPa 0,0 mm 11,9 km/h (2 Bft) O-SO 247 0 min 0 min 0,000 mm 0,0 UV-I 45 W/m 7,0 C 3,9 C 23,0 km/h (4 Bft) 100,00 %
09/12/2019 10:03 7,6 C 96 % 1002,8 hPa 0,0 mm 11,3 km/h (2 Bft) N-NO 338 0 min 0 min 0,000 mm 0,0 UV-I 48 W/m 7,0 C 4,1 C 19,5 km/h (3 Bft) 96,43 %
09/12/2019 10:02 7,6 C 95 % 1002,8 hPa 0,0 mm 10,4 km/h (2 Bft) O-SO 257 0 min 0 min 0,000 mm 0,0 UV-I 43 W/m 6,9 C 4,7 C 23,0 km/h (4 Bft) 92,59 %
09/12/2019 10:01 7,6 C 95 % 1002,8 hPa 0,0 mm 7,5 km/h (2 Bft) N 5 0 min 0 min 0,000 mm 0,0 UV-I 33 W/m 6,9 C 6,7 C 15,9 km/h (3 Bft) 94,44 %
09/12/2019 10:00 7,5 C 95 % 1002,7 hPa 0,0 mm 9,6 km/h (2 Bft) O-NO 302 0 min 0 min 0,000 mm 0,0 UV-I 19 W/m 6,8 C 5,1 C 15,9 km/h (3 Bft) 94,12 %
09/12/2019 09:59 7,5 C 95 % 1002,6 hPa 0,0 mm 11,5 km/h (2 Bft) O-SO 246 0 min 0 min 0,000 mm 0,0 UV-I 12 W/m 6,8 C 3,9 C 23,0 km/h (4 Bft) 94,29 %
09/12/2019 09:58 7,5 C 95 % 1002,6 hPa 0,0 mm 6,6 km/h (2 Bft) O 275 0 min 0 min 0,000 mm 0,0 UV-I 11 W/m 6,8 C 7,4 C 10,6 km/h (2 Bft) 85,71 %
09/12/2019 09:57 7,4 C 95 % 1002,6 hPa 0,0 mm 10,9 km/h (2 Bft) SO 226 0 min 0 min 0,000 mm 0,0 UV-I 10 W/m 6,7 C 4,2 C 17,7 km/h (3 Bft) 96,43 %
09/12/2019 09:56 7,4 C 95 % 1002,5 hPa 0,0 mm 8,5 km/h (2 Bft) O-NO 293 0 min 0 min 0,000 mm 0,0 UV-I 11 W/m 6,7 C 5,8 C 15,9 km/h (3 Bft) 80,00 %
09/12/2019 09:55 7,4 C 95 % 1002,5 hPa 0,0 mm 8,4 km/h (2 Bft) NO 317 0 min 0 min 0,000 mm 0,0 UV-I 12 W/m 6,7 C 5,8 C 24,8 km/h (4 Bft) 68,00 %
09/12/2019 09:54 7,4 C 95 % 1002,5 hPa 0,0 mm 3,6 km/h (1 Bft) O-SO 250 0 min 0 min 0,000 mm 0,0 UV-I 12 W/m 6,7 C 7,4 C 7,1 km/h (2 Bft) 62,50 %
09/12/2019 09:53 7,3 C 95 % 1002,4 hPa 0,2 mm 7,8 km/h (2 Bft) O-SO 244 0 min 0 min 0,000 mm 0,0 UV-I 13 W/m 6,6 C 6,2 C 14,2 km/h (3 Bft) 77,78 %
09/12/2019 09:52 7,3 C 95 % 1002,4 hPa 0,0 mm 8,4 km/h (2 Bft) O 262 0 min 0 min 0,000 mm 0,0 UV-I 15 W/m 6,6 C 5,7 C 15,9 km/h (3 Bft) 100,00 %
09/12/2019 09:51 7,3 C 95 % 1002,4 hPa 0,0 mm 8,4 km/h (2 Bft) O 268 0 min 0 min 0,000 mm 0,0 UV-I 17 W/m 6,6 C 5,7 C 15,9 km/h (3 Bft) 95,83 %
09/12/2019 09:50 7,3 C 95 % 1002,3 hPa 0,0 mm 7,2 km/h (2 Bft) O-SO 257 0 min 0 min 0,000 mm 0,0 UV-I 16 W/m 6,6 C 6,7 C 12,4 km/h (2 Bft) 100,00 %
09/12/2019 09:49 7,3 C 95 % 1002,2 hPa 0,0 mm 9,6 km/h (2 Bft) O-SO 244 0 min 0 min 0,000 mm 0,0 UV-I 14 W/m 6,6 C 4,9 C 17,7 km/h (3 Bft) 95,83 %
09/12/2019 09:48 7,3 C 95 % 1002,2 hPa 0,0 mm 12,6 km/h (3 Bft) O 262 0 min 0 min 0,000 mm 0,0 UV-I 11 W/m 6,6 C 3,1 C 19,5 km/h (3 Bft) 96,30 %
09/12/2019 09:47 7,3 C 95 % 1002,2 hPa 0,0 mm 11,7 km/h (2 Bft) O-NO 285 0 min 0 min 0,000 mm 0,0 UV-I 11 W/m 6,6 C 3,6 C 17,7 km/h (3 Bft) 100,00 %
09/12/2019 09:46 7,2 C 95 % 1002,1 hPa 0,0 mm 13,3 km/h (3 Bft) O-SO 250 0 min 0 min 0,000 mm 0,0 UV-I 14 W/m 6,5 C 2,6 C 21,2 km/h (4 Bft) 100,00 %
09/12/2019 09:45 7,2 C 95 % 1002,2 hPa 0,0 mm 11,5 km/h (2 Bft) O-SO 252 0 min 0 min 0,000 mm 0,0 UV-I 17 W/m 6,5 C 3,6 C 15,9 km/h (3 Bft) 93,33 %
09/12/2019 09:44 7,2 C 95 % 1002,1 hPa 0,0 mm 8,7 km/h (2 Bft) SO 232 0 min 0 min 0,000 mm 0,0 UV-I 18 W/m 6,5 C 5,4 C 14,2 km/h (3 Bft) 100,00 %
09/12/2019 09:43 7,2 C 95 % 1002,1 hPa 0,0 mm 10,5 km/h (2 Bft) SO 234 0 min 0 min 0,000 mm 0,0 UV-I 12 W/m 6,5 C 4,2 C 14,2 km/h (3 Bft) 100,00 %
09/12/2019 09:42 7,2 C 95 % 1002,2 hPa 0,0 mm 11,5 km/h (2 Bft) NO 317 0 min 0 min 0,000 mm 0,0 UV-I 8 W/m 6,5 C 3,6 C 17,7 km/h (3 Bft) 100,00 %
09/12/2019 09:41 7,2 C 95 % 1002,1 hPa 0,0 mm 8,5 km/h (2 Bft) O-SO 257 0 min 0 min 0,000 mm 0,0 UV-I 6 W/m 6,5 C 5,5 C 12,4 km/h (2 Bft) 94,44 %
09/12/2019 09:40 7,2 C 95 % 1002,1 hPa 0,0 mm 14,6 km/h (3 Bft) O-SO 253 0 min 0 min 0,000 mm 0,0 UV-I 0 W/m 6,5 C 1,9 C 23,0 km/h (4 Bft) 92,86 %
09/12/2019 09:39 7,2 C 95 % 1002,0 hPa 0,0 mm 15,0 km/h (3 Bft) O-SO 258 0 min 0 min 0,000 mm 0,0 UV-I 2 W/m 6,5 C 1,7 C 21,2 km/h (4 Bft) 100,00 %
09/12/2019 09:38 7,1 C 95 % 1001,9 hPa 0,0 mm 13,7 km/h (3 Bft) O 270 0 min 0 min 0,000 mm 0,0 UV-I 5 W/m 6,4 C 2,3 C 17,7 km/h (3 Bft) 90,70 %
09/12/2019 09:37 7,1 C 95 % 1001,9 hPa 0,2 mm 17,8 km/h (3 Bft) SO 226 0 min 0 min 0,000 mm 0,0 UV-I 5 W/m 6,4 C 0,4 C 24,8 km/h (4 Bft) 81,25 %
09/12/2019 09:36 7,1 C 95 % 1001,8 hPa 0,0 mm 20,1 km/h (4 Bft) O-SO 246 0 min 0 min 0,000 mm 0,0 UV-I 4 W/m 6,4 C -0,5 C 28,3 km/h (5 Bft) 71,43 %
09/12/2019 09:35 7,1 C 95 % 1001,8 hPa 0,0 mm 9,8 km/h (2 Bft) S-SO 213 0 min 0 min 0,000 mm 0,0 UV-I 0 W/m 6,4 C 4,5 C 15,9 km/h (3 Bft) 92,00 %
09/12/2019 09:34 7,1 C 95 % 1001,8 hPa 0,2 mm 13,0 km/h (3 Bft) SO 229 0 min 0 min 0,000 mm 0,0 UV-I 4 W/m 6,4 C 2,6 C 23,0 km/h (4 Bft) 77,55 %
09/12/2019 09:32 7,1 C 95 % 1001,7 hPa 0,0 mm 7,5 km/h (2 Bft) S-SO 205 0 min 0 min 0,000 mm 0,0 UV-I 5 W/m 6,4 C 6,2 C 14,2 km/h (3 Bft) 96,00 %
09/12/2019 09:31 7,0 C 95 % 1001,8 hPa 0,0 mm 14,2 km/h (3 Bft) S 182 0 min 0 min 0,000 mm 0,0 UV-I 5 W/m 6,3 C 1,9 C 24,8 km/h (4 Bft) 100,00 %
09/12/2019 09:30 7,0 C 95 % 1001,7 hPa 0,2 mm 12,0 km/h (2 Bft) S-SO 206 0 min 0 min 0,000 mm 0,0 UV-I 6 W/m 6,3 C 3,1 C 17,7 km/h (3 Bft) 73,91 %
09/12/2019 09:29 7,0 C 95 % 1001,7 hPa 0,0 mm 12,5 km/h (2 Bft) S-SO 198 0 min 0 min 0,000 mm 0,0 UV-I 8 W/m 6,3 C 2,8 C 21,2 km/h (4 Bft) 79,17 %
09/12/2019 09:28 6,9 C 95 % 1001,7 hPa 0,0 mm 11,0 km/h (2 Bft) O-SO 243 0 min 0 min 0,000 mm 0,0 UV-I 9 W/m 6,2 C 3,5 C 17,7 km/h (3 Bft) 72,00 %
09/12/2019 09:27 6,9 C 95 % 1001,7 hPa 0,2 mm 16,3 km/h (3 Bft) SO 235 0 min 0 min 0,000 mm 0,0 UV-I 9 W/m 6,2 C 0,8 C 23,0 km/h (4 Bft) 45,83 %
09/12/2019 09:26 6,9 C 95 % 1001,7 hPa 0,0 mm 13,8 km/h (3 Bft) SO 230 0 min 0 min 0,000 mm 0,0 UV-I 9 W/m 6,2 C 2,0 C 21,2 km/h (4 Bft) 96,00 %
09/12/2019 09:25 6,9 C 95 % 1001,7 hPa 0,0 mm 13,4 km/h (3 Bft) O 261 0 min 0 min 0,000 mm 0,0 UV-I 7 W/m 6,2 C 2,2 C 19,5 km/h (3 Bft) 95,83 %
09/12/2019 09:24 6,9 C 95 % 1001,7 hPa 0,0 mm 8,6 km/h (2 Bft) O-NO 302 0 min 0 min 0,000 mm 0,0 UV-I 5 W/m 6,2 C 5,1 C 14,2 km/h (3 Bft) 96,67 %
09/12/2019 09:23 6,8 C 95 % 1001,7 hPa 0,0 mm 13,3 km/h (3 Bft) SO 219 0 min 0 min 0,000 mm 0,0 UV-I 5 W/m 6,1 C 2,1 C 19,5 km/h (3 Bft) 100,00 %
09/12/2019 09:22 6,8 C 95 % 1001,6 hPa 0,0 mm 12,9 km/h (3 Bft) SO 224 0 min 0 min 0,000 mm 0,0 UV-I 5 W/m 6,1 C 2,3 C 17,7 km/h (3 Bft) 93,75 %
09/12/2019 09:21 6,8 C 95 % 1001,4 hPa 0,2 mm 9,6 km/h (2 Bft) SO 220 0 min 0 min 0,000 mm 0,0 UV-I 1 W/m 6,1 C 4,3 C 14,2 km/h (3 Bft) 66,67 %
09/12/2019 09:20 6,8 C 95 % 1001,4 hPa 0,0 mm 13,5 km/h (3 Bft) S 187 0 min 0 min 0,000 mm 0,0 UV-I 0 W/m 6,1 C 2,0 C 24,8 km/h (4 Bft) 83,33 %
09/12/2019 09:19 6,8 C 95 % 1001,4 hPa 0,0 mm 10,5 km/h (2 Bft) S 188 0 min 0 min 0,000 mm 0,0 UV-I 0 W/m 6,1 C 3,7 C 17,7 km/h (3 Bft) 56,00 %
09/12/2019 09:18 6,8 C 95 % 1001,5 hPa 0,0 mm 9,7 km/h (2 Bft) S-SO 202 0 min 0 min 0,000 mm 0,0 UV-I 0 W/m 6,1 C 4,3 C 15,9 km/h (3 Bft) 68,57 %
09/12/2019 09:17 6,8 C 95 % 1001,5 hPa 0,2 mm 9,7 km/h (2 Bft) SO 229 0 min 0 min 0,000 mm 0,0 UV-I 0 W/m 6,1 C 4,3 C 15,9 km/h (3 Bft) 81,82 %
09/12/2019 09:16 6,8 C 95 % 1001,5 hPa 0,0 mm 14,8 km/h (3 Bft) S-SO 196 0 min 0 min 0,000 mm 0,0 UV-I 0 W/m 6,1 C 1,4 C 30,1 km/h (5 Bft) 92,00 %
09/12/2019 09:15 6,8 C 95 % 1001,4 hPa 0,0 mm 13,9 km/h (3 Bft) S-SO 193 0 min 0 min 0,000 mm 0,0 UV-I 0 W/m 6,1 C 1,8 C 21,2 km/h (4 Bft) 96,00 %
09/12/2019 09:14 6,8 C 95 % 1001,6 hPa 0,2 mm 11,1 km/h (2 Bft) O-SO 239 0 min 0 min 0,000 mm 0,0 UV-I 0 W/m 6,1 C 3,4 C 15,9 km/h (3 Bft) 100,00 %
09/12/2019 09:13 6,8 C 95 % 1001,5 hPa 0,2 mm 13,9 km/h (3 Bft) O-SO 242 0 min 0 min 0,000 mm 0,0 UV-I 0 W/m 6,1 C 1,8 C 21,2 km/h (4 Bft) 57,14 %
09/12/2019 09:11 6,7 C 95 % 1001,5 hPa 0,0 mm 7,6 km/h (2 Bft) SO 214 0 min 0 min 0,000 mm 0,0 UV-I 0 W/m 6,0 C 5,7 C 12,4 km/h (2 Bft) 58,33 %
09/12/2019 09:10 6,7 C 95 % 1001,5 hPa 0,0 mm 8,6 km/h (2 Bft) O-SO 257 0 min 0 min 0,000 mm 0,0 UV-I 0 W/m 6,0 C 4,9 C 12,4 km/h (2 Bft) 87,50 %
09/12/2019 09:09 6,7 C 95 % 1001,5 hPa 0,0 mm 7,9 km/h (2 Bft) O 259 0 min 0 min 0,000 mm 0,0 UV-I 0 W/m 6,0 C 5,5 C 19,5 km/h (3 Bft) 96,00 %
09/12/2019 09:08 6,7 C 95 % 1001,5 hPa 0,0 mm 9,7 km/h (2 Bft) O-NO 299 0 min 0 min 0,000 mm 0,0 UV-I 0 W/m 6,0 C 4,2 C 17,7 km/h (3 Bft) 100,00 %
09/12/2019 09:07 6,7 C 95 % 1001,5 hPa 0,2 mm 10,2 km/h (2 Bft) O-NO 294 0 min 0 min 0,000 mm 0,0 UV-I 0 W/m 6,0 C 3,8 C 17,7 km/h (3 Bft) 92,00 %
09/12/2019 09:06 6,7 C 95 % 1001,5 hPa 0,0 mm 13,2 km/h (3 Bft) NO 304 0 min 0 min 0,000 mm 0,0 UV-I 0 W/m 6,0 C 2,0 C 17,7 km/h (3 Bft) 62,50 %
09/12/2019 09:05 6,7 C 95 % 1001,5 hPa 0,0 mm 11,8 km/h (2 Bft) N 5 0 min 0 min 0,000 mm 0,0 UV-I 0 W/m 6,0 C 2,8 C 15,9 km/h (3 Bft) 57,14 %
09/12/2019 09:04 6,7 C 95 % 1001,5 hPa 0,0 mm 13,0 km/h (3 Bft) O-NO 282 0 min 0 min 0,000 mm 0,0 UV-I 0 W/m 6,0 C 2,2 C 17,7 km/h (3 Bft) 86,67 %
09/12/2019 09:03 6,7 C 95 % 1001,5 hPa 0,2 mm 10,7 km/h (2 Bft) O-NO 282 0 min 0 min 0,000 mm 0,0 UV-I 0 W/m 6,0 C 3,5 C 17,7 km/h (3 Bft) 68,97 %
09/12/2019 09:02 6,7 C 95 % 1001,5 hPa 0,0 mm 8,0 km/h (2 Bft) N 5 0 min 0 min 0,000 mm 0,0 UV-I 0 W/m 6,0 C 5,4 C 12,4 km/h (2 Bft) 91,11 %
09/12/2019 09:01 6,7 C 95 % 1001,5 hPa 0,2 mm 5,5 km/h (2 Bft) NO 317 0 min 0 min 0,000 mm 0,0 UV-I 0 W/m 6,0 C 6,7 C 10,6 km/h (2 Bft) 95,55 %
09/12/2019 09:00 6,7 C 95 % 1001,4 hPa 0,0 mm 12,0 km/h (2 Bft) S-SO 211 0 min 0 min 0,000 mm 0,0 UV-I 0 W/m 6,0 C 2,7 C 17,7 km/h (3 Bft) 64,29 %
09/12/2019 08:59 6,7 C 94 % 1001,4 hPa 0,0 mm 15,1 km/h (3 Bft) SO 223 0 min 0 min 0,000 mm 0,0 UV-I 0 W/m 5,8 C 1,1 C 21,2 km/h (4 Bft) 6,67 %
09/12/2019 08:58 6,7 C 94 % 1001,4 hPa 0,2 mm 7,2 km/h (2 Bft) SO 217 0 min 0 min 0,000 mm 0,0 UV-I 0 W/m 5,8 C 6,0 C 10,6 km/h (2 Bft) 70,37 %
09/12/2019 08:57 6,7 C 94 % 1001,2 hPa 0,0 mm 12,6 km/h (3 Bft) S-SO 205 0 min 0 min 0,000 mm 0,0 UV-I 0 W/m 5,8 C 2,4 C 15,9 km/h (3 Bft) 100,00 %
09/12/2019 08:56 6,7 C 94 % 1001,3 hPa 0,0 mm 10,7 km/h (2 Bft) S 186 0 min 0 min 0,000 mm 0,0 UV-I 0 W/m 5,8 C 3,5 C 17,7 km/h (3 Bft) 93,33 %
09/12/2019 08:55 6,7 C 94 % 1001,3 hPa 0,0 mm 10,2 km/h (2 Bft) S-SO 205 0 min 0 min 0,000 mm 0,0 UV-I 0 W/m 5,8 C 3,8 C 19,5 km/h (3 Bft) 100,00 %
09/12/2019 08:54 6,7 C 94 % 1001,2 hPa 0,0 mm 7,1 km/h (2 Bft) S 177 0 min 0 min 0,000 mm 0,0 UV-I 0 W/m 5,8 C 6,1 C 10,6 km/h (2 Bft) 97,50 %
09/12/2019 08:53 6,7 C 94 % 1001,2 hPa 0,2 mm 9,1 km/h (2 Bft) S-SO 192 0 min 0 min 0,000 mm 0,0 UV-I 0 W/m 5,8 C 4,6 C 12,4 km/h (2 Bft) 100,00 %
09/12/2019 08:52 6,7 C 94 % 1001,3 hPa 0,0 mm 14,0 km/h (3 Bft) O-SO 240 0 min 0 min 0,000 mm 0,0 UV-I 0 W/m 5,8 C 1,6 C 23,0 km/h (4 Bft) 95,76 %
09/12/2019 08:51 6,7 C 94 % 1001,2 hPa 0,0 mm 5,4 km/h (2 Bft) SO 215 0 min 0 min 0,000 mm 0,0 UV-I 0 W/m 5,8 C 6,7 C 7,1 km/h (2 Bft) 95,76 %
09/12/2019 08:50 6,7 C 94 % 1001,2 hPa 0,2 mm 9,3 km/h (2 Bft) SO 230 0 min 0 min 0,000 mm 0,0 UV-I 0 W/m 5,8 C 4,4 C 14,2 km/h (3 Bft) 31,25 %
09/12/2019 08:49 6,7 C 94 % 1001,2 hPa 0,0 mm 16,9 km/h (3 Bft) S 171 0 min 0 min 0,000 mm 0,0 UV-I 0 W/m 5,8 C 0,3 C 26,6 km/h (4 Bft) 11,54 %
09/12/2019 08:48 6,7 C 94 % 1001,2 hPa 0,0 mm 11,2 km/h (2 Bft) SO 231 0 min 0 min 0,000 mm 0,0 UV-I 0 W/m 5,8 C 3,2 C 21,2 km/h (4 Bft) 64,00 %
09/12/2019 08:47 6,7 C 94 % 1001,2 hPa 0,0 mm 12,9 km/h (3 Bft) S 187 0 min 0 min 0,000 mm 0,0 UV-I 0 W/m 5,8 C 2,2 C 19,5 km/h (3 Bft) 100,00 %
09/12/2019 08:46 6,7 C 94 % 1001,2 hPa 0,2 mm 11,9 km/h (2 Bft) S 189 0 min 0 min 0,000 mm 0,0 UV-I 0 W/m 5,8 C 2,8 C 21,2 km/h (4 Bft) 100,00 %
09/12/2019 08:45 6,7 C 94 % 1001,1 hPa 0,0 mm 7,5 km/h (2 Bft) S-SO 205 0 min 0 min 0,000 mm 0,0 UV-I 0 W/m 5,8 C 5,8 C 10,6 km/h (2 Bft) 80,00 %
09/12/2019 08:44 6,7 C 94 % 1001,2 hPa 0,0 mm 11,4 km/h (2 Bft) SO 233 0 min 0 min 0,000 mm 0,0 UV-I 0 W/m 5,8 C 3,1 C 19,5 km/h (3 Bft) 70,83 %
09/12/2019 08:43 6,7 C 94 % 1001,1 hPa 0,2 mm 17,7 km/h (3 Bft) O-SO 240 0 min 0 min 0,000 mm 0,0 UV-I 0 W/m 5,8 C -0,1 C 24,8 km/h (4 Bft) 56,25 %
09/12/2019 08:42 6,7 C 94 % 1001,1 hPa 0,0 mm 19,0 km/h (3 Bft) S-SE 163 0 min 0 min 0,000 mm 0,0 UV-I 0 W/m 5,8 C -0,6 C 30,1 km/h (5 Bft) 79,17 %
09/12/2019 08:41 6,7 C 94 % 1001,1 hPa 0,0 mm 15,3 km/h (3 Bft) S-SO 207 0 min 0 min 0,000 mm 0,0 UV-I 0 W/m 5,8 C 1,0 C 21,2 km/h (4 Bft) 100,00 %
09/12/2019 08:40 6,7 C 94 % 1001,2 hPa 0,2 mm 9,6 km/h (2 Bft) S-SE 163 0 min 0 min 0,000 mm 0,0 UV-I 0 W/m 5,8 C 4,2 C 15,9 km/h (3 Bft) 92,86 %
09/12/2019 08:39 6,7 C 94 % 1001,1 hPa 0,0 mm 11,8 km/h (2 Bft) SO 222 0 min 0 min 0,000 mm 0,0 UV-I 0 W/m 5,8 C 2,8 C 15,9 km/h (3 Bft) 58,33 %
09/12/2019 08:38 6,7 C 94 % 1001,1 hPa 0,0 mm 6,8 km/h (2 Bft) S 188 0 min 0 min 0,000 mm 0,0 UV-I 0 W/m 5,8 C 6,4 C 14,2 km/h (3 Bft) 66,67 %
09/12/2019 08:37 6,7 C 94 % 1001,2 hPa 0,2 mm 8,3 km/h (2 Bft) SO 226 0 min 0 min 0,000 mm 0,0 UV-I 0 W/m 5,8 C 5,2 C 19,5 km/h (3 Bft) 81,48 %
09/12/2019 08:36 6,7 C 94 % 1001,2 hPa 0,0 mm 7,8 km/h (2 Bft) S-SO 211 0 min 0 min 0,000 mm 0,0 UV-I 0 W/m 5,8 C 5,5 C 12,4 km/h (2 Bft) 96,30 %
09/12/2019 08:35 6,7 C 94 % 1001,3 hPa 0,2 mm 13,1 km/h (3 Bft) S 187 0 min 0 min 0,000 mm 0,0 UV-I 0 W/m 5,8 C 2,1 C 21,2 km/h (4 Bft) 94,44 %
09/12/2019 08:34 6,7 C 94 % 1001,2 hPa 0,0 mm 6,3 km/h (2 Bft) O 267 0 min 0 min 0,000 mm 0,0 UV-I 0 W/m 5,8 C 6,7 C 10,6 km/h (2 Bft) 76,92 %
09/12/2019 08:33 6,7 C 94 % 1001,2 hPa 0,2 mm 7,8 km/h (2 Bft) O-SO 238 0 min 0 min 0,000 mm 0,0 UV-I 0 W/m 5,8 C 5,5 C 12,4 km/h (2 Bft) 84,62 %
09/12/2019 08:32 6,7 C 94 % 1001,2 hPa 0,0 mm 9,9 km/h (2 Bft) SO 232 0 min 0 min 0,000 mm 0,0 UV-I 0 W/m 5,8 C 4,0 C 19,5 km/h (3 Bft) 100,00 %
09/12/2019 08:31 6,7 C 94 % 1001,2 hPa 0,2 mm 11,7 km/h (2 Bft) O-SO 252 0 min 0 min 0,000 mm 0,0 UV-I 0 W/m 5,8 C 2,9 C 23,0 km/h (4 Bft) 93,33 %
09/12/2019 08:30 6,7 C 94 % 1001,3 hPa 0,0 mm 12,6 km/h (3 Bft) SO 224 0 min 0 min 0,000 mm 0,0 UV-I 0 W/m 5,8 C 2,4 C 23,0 km/h (4 Bft) 96,43 %
09/12/2019 08:29 6,7 C 94 % 1001,3 hPa 0,2 mm 10,8 km/h (2 Bft) S-SO 209 0 min 0 min 0,000 mm 0,0 UV-I 0 W/m 5,8 C 3,4 C 23,0 km/h (4 Bft) 100,00 %
09/12/2019 08:28 6,7 C 94 % 1001,2 hPa 0,0 mm 8,7 km/h (2 Bft) S-SO 205 0 min 0 min 0,000 mm 0,0 UV-I 0 W/m 5,8 C 4,9 C 21,2 km/h (4 Bft) 100,00 %
09/12/2019 08:27 6,7 C 94 % 1001,1 hPa 0,0 mm 11,5 km/h (2 Bft) S-SO 195 0 min 0 min 0,000 mm 0,0 UV-I 0 W/m 5,8 C 3,0 C 15,9 km/h (3 Bft) 100,00 %
09/12/2019 08:26 6,7 C 94 % 1001,3 hPa 0,0 mm 10,9 km/h (2 Bft) SO 214 0 min 0 min 0,000 mm 0,0 UV-I 0 W/m 5,8 C 3,4 C 15,9 km/h (3 Bft) 100,00 %
09/12/2019 08:25 6,7 C 94 % 1001,1 hPa 0,2 mm 10,2 km/h (2 Bft) SO 215 0 min 0 min 0,000 mm 0,0 UV-I 0 W/m 5,8 C 3,8 C 14,2 km/h (3 Bft) 100,00 %
09/12/2019 08:24 6,7 C 94 % 1001,0 hPa 0,0 mm 15,2 km/h (3 Bft) S 182 0 min 0 min 0,000 mm 0,0 UV-I 0 W/m 5,8 C 1,0 C 23,0 km/h (4 Bft) 100,00 %
09/12/2019 08:23 6,7 C 94 % 1001,0 hPa 0,0 mm 13,5 km/h (3 Bft) S-SO 196 0 min 0 min 0,000 mm 0,0 UV-I 0 W/m 5,8 C 1,9 C 21,2 km/h (4 Bft) 95,83 %
09/12/2019 08:22 6,7 C 94 % 1001,1 hPa 0,0 mm 9,7 km/h (2 Bft) S-SO 194 0 min 0 min 0,000 mm 0,0 UV-I 0 W/m 5,8 C 4,2 C 14,2 km/h (3 Bft) 100,00 %
09/12/2019 08:21 6,7 C 94 % 1001,0 hPa 0,0 mm 10,5 km/h (2 Bft) S 184 0 min 0 min 0,000 mm 0,0 UV-I 0 W/m 5,8 C 3,6 C 14,2 km/h (3 Bft) 93,33 %
09/12/2019 08:20 6,7 C 94 % 1001,0 hPa 0,2 mm 12,5 km/h (2 Bft) SO 219 0 min 0 min 0,000 mm 0,0 UV-I 0 W/m 5,8 C 2,4 C 19,5 km/h (3 Bft) 92,86 %
09/12/2019 08:19 6,7 C 94 % 1001,0 hPa 0,0 mm 8,6 km/h (2 Bft) S-SO 206 0 min 0 min 0,000 mm 0,0 UV-I 0 W/m 5,8 C 4,9 C 12,4 km/h (2 Bft) 100,00 %
09/12/2019 08:18 6,7 C 94 % 1001,0 hPa 0,0 mm 9,7 km/h (2 Bft) S 185 0 min 0 min 0,000 mm 0,0 UV-I 0 W/m 5,8 C 4,2 C 15,9 km/h (3 Bft) 100,00 %
09/12/2019 08:17 6,7 C 94 % 1001,0 hPa 0,0 mm 14,7 km/h (3 Bft) S-SO 213 0 min 0 min 0,000 mm 0,0 UV-I 0 W/m 5,8 C 1,3 C 24,8 km/h (4 Bft) 96,43 %
09/12/2019 08:16 6,7 C 94 % 1001,1 hPa 0,0 mm 16,9 km/h (3 Bft) O-SO 241 0 min 0 min 0,000 mm 0,0 UV-I 0 W/m 5,8 C 0,3 C 21,2 km/h (4 Bft) 100,00 %
09/12/2019 08:15 6,7 C 94 % 1001,1 hPa 0,0 mm 8,2 km/h (2 Bft) S-SO 199 0 min 0 min 0,000 mm 0,0 UV-I 0 W/m 5,8 C 5,2 C 10,6 km/h (2 Bft) 100,00 %
09/12/2019 08:14 6,7 C 94 % 1001,1 hPa 0,0 mm 17,1 km/h (3 Bft) O-SO 243 0 min 0 min 0,000 mm 0,0 UV-I 0 W/m 5,8 C 0,2 C 24,8 km/h (4 Bft) 93,55 %
09/12/2019 08:13 6,7 C 94 % 1001,0 hPa 0,0 mm 15,0 km/h (3 Bft) SO 235 0 min 0 min 0,000 mm 0,0 UV-I 0 W/m 5,8 C 1,1 C 19,5 km/h (3 Bft) 100,00 %
09/12/2019 08:12 6,7 C 94 % 1001,1 hPa 0,0 mm 13,9 km/h (3 Bft) S-SO 197 0 min 0 min 0,000 mm 0,0 UV-I 0 W/m 5,8 C 1,7 C 23,0 km/h (4 Bft) 92,59 %
09/12/2019 08:11 6,7 C 94 % 1001,1 hPa 0,0 mm 11,2 km/h (2 Bft) S-SO 202 0 min 0 min 0,000 mm 0,0 UV-I 0 W/m 5,8 C 3,2 C 15,9 km/h (3 Bft) 100,00 %
09/12/2019 08:10 6,7 C 94 % 1001,0 hPa 0,0 mm 18,9 km/h (3 Bft) SO 216 0 min 0 min 0,000 mm 0,0 UV-I 0 W/m 5,8 C -0,6 C 28,3 km/h (5 Bft) 100,00 %
09/12/2019 08:09 6,7 C 94 % 1001,1 hPa 0,0 mm 13,4 km/h (3 Bft) SO 224 0 min 0 min 0,000 mm 0,0 UV-I 0 W/m 5,8 C 1,9 C 30,1 km/h (5 Bft) 95,83 %
09/12/2019 08:08 6,7 C 94 % 1001,0 hPa 0,2 mm 9,3 km/h (2 Bft) SO 228 0 min 0 min 0,000 mm 0,0 UV-I 0 W/m 5,8 C 4,4 C 17,7 km/h (3 Bft) 100,00 %
09/12/2019 08:07 6,7 C 94 % 1000,9 hPa 0,0 mm 16,2 km/h (3 Bft) O-SO 243 0 min 0 min 0,000 mm 0,0 UV-I 0 W/m 5,8 C 0,6 C 21,2 km/h (4 Bft) 95,83 %
09/12/2019 08:06 6,7 C 94 % 1001,0 hPa 0,0 mm 6,1 km/h (2 Bft) SO 219 0 min 0 min 0,000 mm 0,0 UV-I 0 W/m 5,8 C 6,7 C 12,4 km/h (2 Bft) 92,00 %
09/12/2019 08:05 6,7 C 94 % 1001,0 hPa 0,0 mm 8,8 km/h (2 Bft) SO 215 0 min 0 min 0,000 mm 0,0 UV-I 0 W/m 5,8 C 4,8 C 12,4 km/h (2 Bft) 96,00 %
09/12/2019 08:04 6,7 C 94 % 1001,0 hPa 0,0 mm 13,8 km/h (3 Bft) S 182 0 min 0 min 0,000 mm 0,0 UV-I 0 W/m 5,8 C 1,7 C 17,7 km/h (3 Bft) 100,00 %
09/12/2019 08:03 6,7 C 94 % 1001,0 hPa 0,0 mm 6,5 km/h (2 Bft) O-SO 238 0 min 0 min 0,000 mm 0,0 UV-I 0 W/m 5,8 C 6,6 C 17,7 km/h (3 Bft) 96,00 %
09/12/2019 08:02 6,7 C 94 % 1001,0 hPa 0,0 mm 10,8 km/h (2 Bft) S 189 0 min 0 min 0,000 mm 0,0 UV-I 0 W/m 5,8 C 3,4 C 12,4 km/h (2 Bft) 93,10 %
09/12/2019 08:01 6,7 C 94 % 1001,0 hPa 0,0 mm 6,0 km/h (2 Bft) S 185 0 min 0 min 0,000 mm 0,0 UV-I 0 W/m 5,8 C 6,7 C 15,9 km/h (3 Bft) 91,67 %
09/12/2019 08:00 6,7 C 94 % 1001,0 hPa 0,0 mm 4,2 km/h (1 Bft) S-SO 198 0 min 0 min 0,000 mm 0,0 UV-I 0 W/m 5,8 C 6,7 C 14,2 km/h (3 Bft) 100,00 %
09/12/2019 07:59 6,7 C 94 % 1001,0 hPa 0,0 mm 5,6 km/h (2 Bft) S 190 0 min 0 min 0,000 mm 0,0 UV-I 0 W/m 5,8 C 6,7 C 10,6 km/h (2 Bft) 92,59 %
09/12/2019 07:58 6,7 C 94 % 1001,1 hPa 0,0 mm 8,2 km/h (2 Bft) S 174 0 min 0 min 0,000 mm 0,0 UV-I 0 W/m 5,8 C 5,2 C 10,6 km/h (2 Bft) 89,29 %
09/12/2019 07:57 6,7 C 94 % 1001,0 hPa 0,0 mm 6,3 km/h (2 Bft) O-SO 239 0 min 0 min 0,000 mm 0,0 UV-I 0 W/m 5,8 C 6,7 C 12,4 km/h (2 Bft) 91,67 %
09/12/2019 07:56 6,7 C 94 % 1001,0 hPa 0,0 mm 9,1 km/h (2 Bft) O 259 0 min 0 min 0,000 mm 0,0 UV-I 0 W/m 5,8 C 4,6 C 14,2 km/h (3 Bft) 87,50 %
09/12/2019 07:55 6,7 C 94 % 1001,0 hPa 0,0 mm 13,7 km/h (3 Bft) SO 232 0 min 0 min 0,000 mm 0,0 UV-I 0 W/m 5,8 C 1,8 C 19,5 km/h (3 Bft) 92,59 %
09/12/2019 07:54 6,7 C 94 % 1001,0 hPa 0,0 mm 8,0 km/h (2 Bft) S-SO 202 0 min 0 min 0,000 mm 0,0 UV-I 0 W/m 5,8 C 5,4 C 14,2 km/h (3 Bft) 100,00 %
09/12/2019 07:53 6,7 C 94 % 1001,0 hPa 0,0 mm 13,8 km/h (3 Bft) O-SO 255 0 min 0 min 0,000 mm 0,0 UV-I 0 W/m 5,8 C 1,7 C 24,8 km/h (4 Bft) 96,15 %
09/12/2019 07:52 6,7 C 94 % 1001,0 hPa 0,0 mm 14,8 km/h (3 Bft) S-SO 209 0 min 0 min 0,000 mm 0,0 UV-I 0 W/m 5,8 C 1,2 C 21,2 km/h (4 Bft) 92,86 %
09/12/2019 07:51 6,7 C 94 % 1001,0 hPa 0,0 mm 14,6 km/h (3 Bft) O-SO 248 0 min 0 min 0,000 mm 0,0 UV-I 0 W/m 5,8 C 1,3 C 24,8 km/h (4 Bft) 96,43 %
09/12/2019 07:49 6,7 C 93 % 1001,1 hPa 0,2 mm 17,6 km/h (3 Bft) SO 226 0 min 0 min 0,000 mm 0,0 UV-I 0 W/m 5,6 C -0,0 C 35,4 km/h (5 Bft) 100,00 %
09/12/2019 07:48 6,7 C 93 % 1001,0 hPa 0,0 mm 11,5 km/h (2 Bft) SO 214 0 min 0 min 0,000 mm 0,0 UV-I 0 W/m 5,6 C 3,0 C 17,7 km/h (3 Bft) 100,00 %
09/12/2019 07:47 6,7 C 93 % 1001,0 hPa 0,0 mm 16,7 km/h (3 Bft) S-SO 202 0 min 0 min 0,000 mm 0,0 UV-I 0 W/m 5,6 C 0,4 C 28,3 km/h (5 Bft) 100,00 %
09/12/2019 07:46 6,7 C 93 % 1001,0 hPa 0,2 mm 14,4 km/h (3 Bft) SO 230 0 min 0 min 0,000 mm 0,0 UV-I 0 W/m 5,6 C 1,4 C 24,8 km/h (4 Bft) 96,00 %
09/12/2019 07:45 6,7 C 93 % 1001,0 hPa 0,0 mm 12,5 km/h (2 Bft) O-SO 257 0 min 0 min 0,000 mm 0,0 UV-I 0 W/m 5,6 C 2,4 C 17,7 km/h (3 Bft) 74,07 %
09/12/2019 07:44 6,7 C 93 % 1001,1 hPa 0,0 mm 10,5 km/h (2 Bft) SO 229 0 min 0 min 0,000 mm 0,0 UV-I 0 W/m 5,6 C 3,6 C 17,7 km/h (3 Bft) 95,83 %
09/12/2019 07:43 6,7 C 93 % 1001,0 hPa 0,0 mm 18,9 km/h (3 Bft) SO 224 0 min 0 min 0,000 mm 0,0 UV-I 0 W/m 5,6 C -0,6 C 23,0 km/h (4 Bft) 100,00 %
09/12/2019 07:42 6,7 C 93 % 1001,0 hPa 0,2 mm 22,5 km/h (4 Bft) SO 217 0 min 0 min 0,000 mm 0,0 UV-I 0 W/m 5,6 C -1,9 C 30,1 km/h (5 Bft) 95,83 %
09/12/2019 07:41 6,7 C 93 % 1001,1 hPa 0,2 mm 13,2 km/h (3 Bft) O-SO 248 0 min 0 min 0,000 mm 0,0 UV-I 0 W/m 5,6 C 2,0 C 31,9 km/h (5 Bft) 93,88 %
09/12/2019 07:39 6,6 C 93 % 1001,1 hPa 0,0 mm 15,5 km/h (3 Bft) SO 234 0 min 0 min 0,000 mm 0,0 UV-I 0 W/m 5,6 C 0,8 C 28,3 km/h (5 Bft) 88,00 %
09/12/2019 07:38 6,6 C 93 % 1001,2 hPa 0,0 mm 15,8 km/h (3 Bft) O-SO 245 0 min 0 min 0,000 mm 0,0 UV-I 0 W/m 5,6 C 0,6 C 28,3 km/h (5 Bft) 95,83 %
09/12/2019 07:37 6,6 C 93 % 1001,2 hPa 0,0 mm 12,1 km/h (2 Bft) O-SO 252 0 min 0 min 0,000 mm 0,0 UV-I 0 W/m 5,6 C 2,5 C 21,2 km/h (4 Bft) 92,31 %
09/12/2019 07:36 6,6 C 93 % 1001,1 hPa 0,0 mm 9,6 km/h (2 Bft) S-SO 207 0 min 0 min 0,000 mm 0,0 UV-I 0 W/m 5,6 C 4,1 C 15,9 km/h (3 Bft) 100,00 %
09/12/2019 07:35 6,6 C 93 % 1001,1 hPa 0,0 mm 12,5 km/h (2 Bft) SO 214 0 min 0 min 0,000 mm 0,0 UV-I 0 W/m 5,6 C 2,3 C 21,2 km/h (4 Bft) 95,83 %
09/12/2019 07:34 6,6 C 93 % 1001,1 hPa 0,0 mm 11,9 km/h (2 Bft) SO 229 0 min 0 min 0,000 mm 0,0 UV-I 0 W/m 5,6 C 2,7 C 26,6 km/h (4 Bft) 100,00 %
09/12/2019 07:33 6,6 C 93 % 1001,1 hPa 0,0 mm 6,6 km/h (2 Bft) O 266 0 min 0 min 0,000 mm 0,0 UV-I 0 W/m 5,6 C 6,5 C 14,2 km/h (3 Bft) 83,33 %
09/12/2019 07:32 6,7 C 93 % 1001,2 hPa 0,0 mm 8,1 km/h (2 Bft) O-SO 241 0 min 0 min 0,000 mm 0,0 UV-I 0 W/m 5,6 C 5,3 C 15,9 km/h (3 Bft) 96,43 %
09/12/2019 07:31 6,6 C 93 % 1001,1 hPa 0,0 mm 11,8 km/h (2 Bft) O-SO 252 0 min 0 min 0,000 mm 0,0 UV-I 0 W/m 5,6 C 2,7 C 15,9 km/h (3 Bft) 100,00 %
09/12/2019 07:30 6,6 C 93 % 1001,2 hPa 0,0 mm 8,7 km/h (2 Bft) O-SO 244 0 min 0 min 0,000 mm 0,0 UV-I 0 W/m 5,6 C 4,8 C 14,2 km/h (3 Bft) 74,07 %
09/12/2019 07:29 6,7 C 93 % 1001,2 hPa 0,0 mm 8,9 km/h (2 Bft) S 183 0 min 0 min 0,000 mm 0,0 UV-I 0 W/m 5,6 C 4,7 C 14,2 km/h (3 Bft) 100,00 %
09/12/2019 07:28 6,7 C 93 % 1001,3 hPa 0,0 mm 12,9 km/h (3 Bft) O-SO 243 0 min 0 min 0,000 mm 0,0 UV-I 0 W/m 5,6 C 2,2 C 17,7 km/h (3 Bft) 90,91 %
09/12/2019 07:27 6,7 C 93 % 1001,2 hPa 0,0 mm 7,6 km/h (2 Bft) O-SO 244 0 min 0 min 0,000 mm 0,0 UV-I 0 W/m 5,6 C 5,7 C 15,9 km/h (3 Bft) 96,00 %
09/12/2019 07:26 6,7 C 93 % 1001,2 hPa 0,0 mm 6,9 km/h (2 Bft) SO 234 0 min 0 min 0,000 mm 0,0 UV-I 0 W/m 5,6 C 6,3 C 12,4 km/h (2 Bft) 100,00 %
09/12/2019 07:25 6,7 C 93 % 1001,2 hPa 0,0 mm 15,1 km/h (3 Bft) S 190 0 min 0 min 0,000 mm 0,0 UV-I 0 W/m 5,6 C 1,1 C 28,3 km/h (5 Bft) 91,30 %
09/12/2019 07:24 6,7 C 93 % 1001,2 hPa 0,0 mm 12,5 km/h (2 Bft) S 182 0 min 0 min 0,000 mm 0,0 UV-I 0 W/m 5,6 C 2,4 C 24,8 km/h (4 Bft) 100,00 %
09/12/2019 07:23 6,7 C 93 % 1001,0 hPa 0,0 mm 8,2 km/h (2 Bft) S-SE 159 0 min 0 min 0,000 mm 0,0 UV-I 0 W/m 5,6 C 5,2 C 19,5 km/h (3 Bft) 91,67 %
09/12/2019 07:22 6,7 C 93 % 1001,0 hPa 0,0 mm 5,8 km/h (2 Bft) SO 225 0 min 0 min 0,000 mm 0,0 UV-I 0 W/m 5,6 C 6,7 C 10,6 km/h (2 Bft) 92,00 %
09/12/2019 07:21 6,7 C 93 % 1001,2 hPa 0,0 mm 11,5 km/h (2 Bft) S-SO 202 0 min 0 min 0,000 mm 0,0 UV-I 0 W/m 5,6 C 3,0 C 19,5 km/h (3 Bft) 75,00 %
09/12/2019 07:20 6,7 C 93 % 1001,2 hPa 0,0 mm 13,3 km/h (3 Bft) O-SO 243 0 min 0 min 0,000 mm 0,0 UV-I 0 W/m 5,6 C 2,0 C 19,5 km/h (3 Bft) 80,00 %
09/12/2019 07:19 6,7 C 92 % 1001,3 hPa 0,0 mm 8,5 km/h (2 Bft) S-SO 209 0 min 0 min 0,000 mm 0,0 UV-I 0 W/m 5,5 C 5,0 C 14,2 km/h (3 Bft) 68,00 %
09/12/2019 07:18 6,7 C 92 % 1001,4 hPa 0,2 mm 13,5 km/h (3 Bft) O 260 0 min 0 min 0,000 mm 0,0 UV-I 0 W/m 5,5 C 1,9 C 21,2 km/h (4 Bft) 50,00 %
09/12/2019 07:17 6,7 C 92 % 1001,4 hPa 0,0 mm 9,4 km/h (2 Bft) S-SO 201 0 min 0 min 0,000 mm 0,0 UV-I 0 W/m 5,5 C 4,4 C 14,2 km/h (3 Bft) 91,67 %
09/12/2019 07:16 6,7 C 92 % 1001,4 hPa 0,0 mm 11,4 km/h (2 Bft) O 259 0 min 0 min 0,000 mm 0,0 UV-I 0 W/m 5,5 C 3,1 C 24,8 km/h (4 Bft) 91,67 %
09/12/2019 07:15 6,8 C 92 % 1001,3 hPa 0,0 mm 16,9 km/h (3 Bft) S-SO 198 0 min 0 min 0,000 mm 0,0 UV-I 0 W/m 5,6 C 0,4 C 24,8 km/h (4 Bft) 96,00 %
09/12/2019 07:14 6,8 C 92 % 1001,4 hPa 0,0 mm 9,7 km/h (2 Bft) O-SO 247 0 min 0 min 0,000 mm 0,0 UV-I 0 W/m 5,6 C 4,3 C 15,9 km/h (3 Bft) 91,67 %
09/12/2019 07:13 6,8 C 92 % 1001,4 hPa 0,0 mm 9,7 km/h (2 Bft) S 188 0 min 0 min 0,000 mm 0,0 UV-I 0 W/m 5,6 C 4,3 C 12,4 km/h (2 Bft) 95,83 %
09/12/2019 07:12 6,8 C 92 % 1001,3 hPa 0,2 mm 9,4 km/h (2 Bft) SO 229 0 min 0 min 0,000 mm 0,0 UV-I 0 W/m 5,6 C 4,5 C 15,9 km/h (3 Bft) 96,43 %
09/12/2019 07:11 6,8 C 92 % 1001,3 hPa 0,0 mm 16,3 km/h (3 Bft) O-SO 243 0 min 0 min 0,000 mm 0,0 UV-I 0 W/m 5,6 C 0,7 C 23,0 km/h (4 Bft) 86,96 %
09/12/2019 07:10 6,8 C 92 % 1001,3 hPa 0,0 mm 13,3 km/h (3 Bft) O-SO 240 0 min 0 min 0,000 mm 0,0 UV-I 0 W/m 5,6 C 2,1 C 17,7 km/h (3 Bft) 100,00 %
09/12/2019 07:09 6,8 C 92 % 1001,3 hPa 0,0 mm 8,3 km/h (2 Bft) S 191 0 min 0 min 0,000 mm 0,0 UV-I 0 W/m 5,6 C 5,3 C 14,2 km/h (3 Bft) 96,30 %
09/12/2019 07:08 6,8 C 92 % 1001,4 hPa 0,0 mm 9,4 km/h (2 Bft) S-SO 198 0 min 0 min 0,000 mm 0,0 UV-I 0 W/m 5,6 C 4,5 C 12,4 km/h (2 Bft) 100,00 %
09/12/2019 07:07 6,8 C 92 % 1001,4 hPa 0,0 mm 11,1 km/h (2 Bft) S-SO 198 0 min 0 min 0,000 mm 0,0 UV-I 0 W/m 5,6 C 3,4 C 15,9 km/h (3 Bft) 95,83 %
09/12/2019 07:06 6,8 C 92 % 1001,3 hPa 0,0 mm 9,4 km/h (2 Bft) S-SO 196 0 min 0 min 0,000 mm 0,0 UV-I 0 W/m 5,6 C 4,5 C 14,2 km/h (3 Bft) 96,67 %
09/12/2019 07:05 6,8 C 92 % 1001,3 hPa 0,0 mm 12,3 km/h (2 Bft) S-SO 200 0 min 0 min 0,000 mm 0,0 UV-I 0 W/m 5,6 C 2,7 C 17,7 km/h (3 Bft) 100,00 %
09/12/2019 07:04 6,8 C 92 % 1001,4 hPa 0,0 mm 12,4 km/h (2 Bft) SO 217 0 min 0 min 0,000 mm 0,0 UV-I 0 W/m 5,6 C 2,6 C 23,0 km/h (4 Bft) 100,00 %
09/12/2019 07:03 6,8 C 92 % 1001,4 hPa 0,0 mm 12,1 km/h (2 Bft) O-SO 239 0 min 0 min 0,000 mm 0,0 UV-I 0 W/m 5,6 C 2,8 C 17,7 km/h (3 Bft) 96,43 %
09/12/2019 07:02 6,9 C 92 % 1001,4 hPa 0,0 mm 8,5 km/h (2 Bft) O-SO 246 0 min 0 min 0,000 mm 0,0 UV-I 0 W/m 5,7 C 5,2 C 12,4 km/h (2 Bft) 94,12 %
09/12/2019 07:01 6,9 C 92 % 1001,4 hPa 0,0 mm 12,7 km/h (3 Bft) SO 233 0 min 0 min 0,026 mm 0,0 UV-I 0 W/m 5,7 C 2,6 C 19,5 km/h (3 Bft) 68,89 %
09/12/2019 07:00 6,9 C 92 % 1001,5 hPa 0,0 mm 17,3 km/h (3 Bft) S-SO 198 0 min 0 min 0,000 mm 0,0 UV-I 0 W/m 5,7 C 0,3 C 26,6 km/h (4 Bft) 46,15 %
09/12/2019 06:59 6,9 C 92 % 1001,5 hPa 0,0 mm 13,0 km/h (3 Bft) SO 233 0 min 0 min 0,000 mm 0,0 UV-I 0 W/m 5,7 C 2,4 C 24,8 km/h (4 Bft) 70,37 %
09/12/2019 06:58 6,9 C 92 % 1001,5 hPa 0,0 mm 10,9 km/h (2 Bft) O 259 0 min 0 min 0,000 mm 0,0 UV-I 0 W/m 5,7 C 3,6 C 17,7 km/h (3 Bft) 50,00 %
09/12/2019 06:57 6,9 C 92 % 1001,5 hPa 0,0 mm 12,2 km/h (2 Bft) S-SO 201 0 min 0 min 0,000 mm 0,0 UV-I 0 W/m 5,7 C 2,8 C 21,2 km/h (4 Bft) 95,83 %
09/12/2019 06:56 6,9 C 92 % 1001,5 hPa 0,2 mm 17,0 km/h (3 Bft) O-SO 238 0 min 0 min 0,000 mm 0,0 UV-I 0 W/m 5,7 C 0,5 C 28,3 km/h (5 Bft) 56,00 %
09/12/2019 06:55 6,9 C 92 % 1001,5 hPa 0,0 mm 16,8 km/h (3 Bft) O-SO 238 0 min 0 min 0,000 mm 0,0 UV-I 0 W/m 5,7 C 0,6 C 24,8 km/h (4 Bft) 12,50 %
09/12/2019 06:54 6,9 C 92 % 1001,5 hPa 0,0 mm 16,0 km/h (3 Bft) SO 227 0 min 0 min 0,000 mm 0,0 UV-I 0 W/m 5,7 C 0,9 C 23,0 km/h (4 Bft) 33,33 %
09/12/2019 06:53 6,9 C 92 % 1001,5 hPa 0,0 mm 14,7 km/h (3 Bft) SO 225 0 min 0 min 0,000 mm 0,0 UV-I 0 W/m 5,7 C 1,5 C 21,2 km/h (4 Bft) 96,00 %
09/12/2019 06:52 6,9 C 92 % 1001,5 hPa 0,0 mm 18,2 km/h (3 Bft) SO 223 0 min 0 min 0,000 mm 0,0 UV-I 0 W/m 5,7 C -0,0 C 24,8 km/h (4 Bft) 100,00 %
09/12/2019 06:51 6,9 C 92 % 1001,5 hPa 0,0 mm 11,2 km/h (2 Bft) SO 224 0 min 0 min 0,000 mm 0,0 UV-I 0 W/m 5,7 C 3,4 C 15,9 km/h (3 Bft) 91,67 %
09/12/2019 06:50 6,9 C 92 % 1001,4 hPa 0,0 mm 13,9 km/h (3 Bft) O-SO 245 0 min 0 min 0,000 mm 0,0 UV-I 0 W/m 5,7 C 1,9 C 26,6 km/h (4 Bft) 100,00 %
09/12/2019 06:49 6,9 C 92 % 1001,4 hPa 0,0 mm 16,5 km/h (3 Bft) O-SO 243 0 min 0 min 0,000 mm 0,0 UV-I 0 W/m 5,7 C 0,7 C 21,2 km/h (4 Bft) 92,86 %
09/12/2019 06:48 6,9 C 92 % 1001,4 hPa 0,0 mm 18,5 km/h (3 Bft) O-NO 283 0 min 0 min 0,000 mm 0,0 UV-I 0 W/m 5,7 C -0,1 C 28,3 km/h (5 Bft) 100,00 %
09/12/2019 06:47 6,9 C 92 % 1001,4 hPa 0,0 mm 17,4 km/h (3 Bft) SO 232 0 min 0 min 0,000 mm 0,0 UV-I 0 W/m 5,7 C 0,3 C 24,8 km/h (4 Bft) 91,67 %
09/12/2019 06:46 7,0 C 92 % 1001,4 hPa 0,0 mm 18,3 km/h (3 Bft) O-SO 248 0 min 0 min 0,000 mm 0,0 UV-I 0 W/m 5,8 C 0,1 C 28,3 km/h (5 Bft) 96,00 %
09/12/2019 06:45 7,0 C 92 % 1001,4 hPa 0,0 mm 9,8 km/h (2 Bft) O 259 0 min 0 min 0,000 mm 0,0 UV-I 0 W/m 5,8 C 4,4 C 14,2 km/h (3 Bft) 95,83 %
09/12/2019 06:44 7,0 C 92 % 1001,4 hPa 0,0 mm 15,8 km/h (3 Bft) O-SO 244 0 min 0 min 0,000 mm 0,0 UV-I 0 W/m 5,8 C 1,1 C 23,0 km/h (4 Bft) 93,75 %
09/12/2019 06:43 7,0 C 92 % 1001,4 hPa 0,0 mm 12,4 km/h (2 Bft) O-SO 242 0 min 0 min 0,000 mm 0,0 UV-I 0 W/m 5,8 C 2,8 C 19,5 km/h (3 Bft) 97,06 %
09/12/2019 06:42 7,0 C 92 % 1001,4 hPa 0,0 mm 17,1 km/h (3 Bft) SO 219 0 min 0 min 0,000 mm 0,0 UV-I 0 W/m 5,8 C 0,6 C 23,0 km/h (4 Bft) 93,33 %
09/12/2019 06:41 7,0 C 92 % 1001,4 hPa 0,0 mm 20,1 km/h (4 Bft) O-SO 251 0 min 0 min 0,000 mm 0,0 UV-I 0 W/m 5,8 C -0,6 C 26,6 km/h (4 Bft) 91,30 %
09/12/2019 06:40 7,0 C 92 % 1001,4 hPa 0,0 mm 12,0 km/h (2 Bft) SO 223 0 min 0 min 0,000 mm 0,0 UV-I 0 W/m 5,8 C 3,1 C 21,2 km/h (4 Bft) 92,59 %
09/12/2019 06:39 7,1 C 92 % 1001,4 hPa 0,0 mm 16,0 km/h (3 Bft) O 263 0 min 0 min 0,000 mm 0,0 UV-I 0 W/m 5,9 C 1,2 C 26,6 km/h (4 Bft) 97,62 %
09/12/2019 06:38 7,1 C 92 % 1001,5 hPa 0,0 mm 19,4 km/h (3 Bft) O-SO 244 0 min 0 min 0,000 mm 0,0 UV-I 0 W/m 5,9 C -0,2 C 28,3 km/h (5 Bft) 97,93 %
09/12/2019 06:37 7,1 C 92 % 1001,4 hPa 0,2 mm 13,7 km/h (3 Bft) O 261 0 min 0 min 0,000 mm 0,0 UV-I 0 W/m 5,9 C 2,3 C 23,0 km/h (4 Bft) 85,71 %
09/12/2019 06:36 7,1 C 92 % 1001,4 hPa 0,0 mm 14,1 km/h (3 Bft) NO 306 0 min 0 min 0,000 mm 0,0 UV-I 0 W/m 5,9 C 2,1 C 23,0 km/h (4 Bft) 50,00 %
09/12/2019 06:35 7,1 C 92 % 1001,5 hPa 0,2 mm 17,2 km/h (3 Bft) O-SO 251 0 min 0 min 0,000 mm 0,0 UV-I 0 W/m 5,9 C 0,6 C 24,8 km/h (4 Bft) 73,33 %
09/12/2019 06:34 7,1 C 92 % 1001,5 hPa 0,2 mm 17,0 km/h (3 Bft) S 173 0 min 0 min 0,000 mm 0,0 UV-I 0 W/m 5,9 C 0,7 C 23,0 km/h (4 Bft) 92,59 %
09/12/2019 06:33 7,1 C 92 % 1001,6 hPa 0,2 mm 24,3 km/h (4 Bft) SO 227 0 min 0 min 0,000 mm 0,0 UV-I 0 W/m 5,9 C -1,9 C 35,4 km/h (5 Bft) 87,50 %
09/12/2019 06:32 7,1 C 92 % 1001,5 hPa 0,4 mm 20,0 km/h (4 Bft) SO 219 0 min 0 min 0,000 mm 0,0 UV-I 0 W/m 5,9 C -0,5 C 31,9 km/h (5 Bft) 75,00 %
09/12/2019 06:31 7,1 C 92 % 1001,5 hPa 0,2 mm 22,0 km/h (4 Bft) S 170 0 min 0 min 0,000 mm 0,0 UV-I 0 W/m 5,9 C -1,2 C 35,4 km/h (5 Bft) 95,83 %
09/12/2019 06:30 7,1 C 92 % 1001,6 hPa 0,2 mm 22,6 km/h (4 Bft) S-SO 213 0 min 0 min 0,000 mm 0,0 UV-I 0 W/m 5,9 C -1,4 C 30,1 km/h (5 Bft) 88,00 %
09/12/2019 06:29 7,1 C 92 % 1001,6 hPa 0,0 mm 23,2 km/h (4 Bft) SO 217 0 min 0 min 0,000 mm 0,0 UV-I 0 W/m 5,9 C -1,5 C 35,4 km/h (5 Bft) 95,83 %
09/12/2019 06:28 7,1 C 92 % 1001,6 hPa 0,2 mm 17,7 km/h (3 Bft) O 259 0 min 0 min 0,000 mm 0,0 UV-I 0 W/m 5,9 C 0,4 C 28,3 km/h (5 Bft) 87,50 %
09/12/2019 06:27 7,2 C 91 % 1001,6 hPa 0,2 mm 17,0 km/h (3 Bft) SO 236 0 min 0 min 0,000 mm 0,0 UV-I 0 W/m 5,8 C 0,8 C 30,1 km/h (5 Bft) 100,00 %
09/12/2019 06:26 7,1 C 91 % 1001,7 hPa 0,0 mm 18,2 km/h (3 Bft) O-SO 241 0 min 0 min 0,000 mm 0,0 UV-I 0 W/m 5,7 C 0,2 C 28,3 km/h (5 Bft) 100,00 %
09/12/2019 06:25 7,2 C 91 % 1001,6 hPa 0,2 mm 9,9 km/h (2 Bft) SO 235 0 min 0 min 0,000 mm 0,0 UV-I 0 W/m 5,8 C 4,6 C 15,9 km/h (3 Bft) 92,31 %
09/12/2019 06:24 7,2 C 91 % 1001,5 hPa 0,4 mm 15,8 km/h (3 Bft) S-SE 167 0 min 0 min 0,000 mm 0,0 UV-I 0 W/m 5,8 C 1,4 C 33,6 km/h (5 Bft) 96,61 %
09/12/2019 06:22 7,2 C 91 % 1001,7 hPa 0,0 mm 14,2 km/h (3 Bft) SO 223 0 min 0 min 0,000 mm 0,0 UV-I 0 W/m 5,8 C 2,1 C 21,2 km/h (4 Bft) 100,00 %
09/12/2019 06:21 7,2 C 91 % 1001,7 hPa 0,2 mm 12,6 km/h (3 Bft) O 279 0 min 0 min 0,000 mm 0,0 UV-I 0 W/m 5,8 C 3,0 C 23,0 km/h (4 Bft) 100,00 %
09/12/2019 06:20 7,2 C 91 % 1001,7 hPa 0,0 mm 13,5 km/h (3 Bft) O-SO 252 0 min 0 min 0,000 mm 0,0 UV-I 0 W/m 5,8 C 2,5 C 17,7 km/h (3 Bft) 100,00 %
09/12/2019 06:19 7,2 C 91 % 1001,6 hPa 0,2 mm 18,1 km/h (3 Bft) O-SO 251 0 min 0 min 0,000 mm 0,0 UV-I 0 W/m 5,8 C 0,4 C 28,3 km/h (5 Bft) 96,30 %
09/12/2019 06:18 7,2 C 91 % 1001,7 hPa 0,0 mm 23,2 km/h (4 Bft) O-SO 240 0 min 0 min 0,000 mm 0,0 UV-I 0 W/m 5,8 C -1,4 C 30,1 km/h (5 Bft) 100,00 %
09/12/2019 06:17 7,2 C 91 % 1001,6 hPa 0,0 mm 14,2 km/h (3 Bft) SO 235 0 min 0 min 0,000 mm 0,0 UV-I 0 W/m 5,8 C 2,1 C 21,2 km/h (4 Bft) 100,00 %
09/12/2019 06:16 7,2 C 91 % 1001,6 hPa 0,0 mm 19,0 km/h (3 Bft) SO 217 0 min 0 min 0,000 mm 0,0 UV-I 0 W/m 5,8 C 0,0 C 26,6 km/h (4 Bft) 100,00 %
09/12/2019 06:15 7,2 C 91 % 1001,6 hPa 0,2 mm 17,3 km/h (3 Bft) SO 215 0 min 0 min 0,000 mm 0,0 UV-I 0 W/m 5,8 C 0,7 C 23,0 km/h (4 Bft) 96,55 %
09/12/2019 06:14 7,2 C 91 % 1001,6 hPa 0,0 mm 11,4 km/h (2 Bft) SO 232 0 min 0 min 0,000 mm 0,0 UV-I 0 W/m 5,8 C 3,6 C 15,9 km/h (3 Bft) 100,00 %
09/12/2019 06:13 7,2 C 91 % 1001,5 hPa 0,0 mm 13,0 km/h (3 Bft) S-SO 212 0 min 0 min 0,000 mm 0,0 UV-I 0 W/m 5,8 C 2,7 C 19,5 km/h (3 Bft) 95,24 %
09/12/2019 06:12 7,2 C 91 % 1001,5 hPa 0,0 mm 7,7 km/h (2 Bft) O-SO 248 0 min 0 min 0,000 mm 0,0 UV-I 0 W/m 5,8 C 6,1 C 10,6 km/h (2 Bft) 96,30 %
09/12/2019 06:11 7,2 C 91 % 1001,6 hPa 0,0 mm 20,1 km/h (4 Bft) O 271 0 min 0 min 0,000 mm 0,0 UV-I 0 W/m 5,8 C -0,4 C 30,1 km/h (5 Bft) 96,00 %
09/12/2019 06:10 7,2 C 91 % 1001,5 hPa 0,0 mm 22,0 km/h (4 Bft) O 266 0 min 0 min 0,000 mm 0,0 UV-I 0 W/m 5,8 C -1,0 C 28,3 km/h (5 Bft) 100,00 %
09/12/2019 06:09 7,2 C 91 % 1001,5 hPa 0,0 mm 18,6 km/h (3 Bft) S-SO 211 0 min 0 min 0,000 mm 0,0 UV-I 0 W/m 5,8 C 0,2 C 26,6 km/h (4 Bft) 95,83 %
09/12/2019 06:08 7,2 C 91 % 1001,5 hPa 0,0 mm 14,9 km/h (3 Bft) O-NO 282 0 min 0 min 0,000 mm 0,0 UV-I 0 W/m 5,8 C 1,8 C 26,6 km/h (4 Bft) 95,83 %
09/12/2019 06:07 7,2 C 91 % 1001,4 hPa 0,0 mm 15,1 km/h (3 Bft) O 278 0 min 0 min 0,000 mm 0,0 UV-I 0 W/m 5,8 C 1,7 C 21,2 km/h (4 Bft) 91,67 %
09/12/2019 06:06 7,2 C 90 % 1001,5 hPa 0,0 mm 19,3 km/h (3 Bft) O-SO 244 0 min 0 min 0,000 mm 0,0 UV-I 0 W/m 5,7 C -0,1 C 24,8 km/h (4 Bft) 100,00 %
09/12/2019 06:05 7,2 C 90 % 1001,5 hPa 0,0 mm 19,9 km/h (4 Bft) SO 230 0 min 0 min 0,000 mm 0,0 UV-I 0 W/m 5,7 C -0,3 C 31,9 km/h (5 Bft) 100,00 %
09/12/2019 06:04 7,2 C 90 % 1001,5 hPa 0,0 mm 15,8 km/h (3 Bft) O-NO 287 0 min 0 min 0,000 mm 0,0 UV-I 0 W/m 5,7 C 1,4 C 26,6 km/h (4 Bft) 100,00 %
09/12/2019 06:03 7,2 C 90 % 1001,5 hPa 0,0 mm 12,7 km/h (3 Bft) O 269 0 min 0 min 0,000 mm 0,0 UV-I 0 W/m 5,7 C 2,9 C 19,5 km/h (3 Bft) 100,00 %
09/12/2019 06:02 7,2 C 90 % 1001,5 hPa 0,0 mm 17,8 km/h (3 Bft) SO 234 0 min 0 min 0,000 mm 0,0 UV-I 0 W/m 5,7 C 0,5 C 26,6 km/h (4 Bft) 100,00 %
09/12/2019 06:01 7,2 C 90 % 1001,4 hPa 0,0 mm 14,7 km/h (3 Bft) O 259 0 min 0 min 0,025 mm 0,0 UV-I 0 W/m 5,7 C 1,9 C 24,8 km/h (4 Bft) 100,00 %
09/12/2019 06:00 7,3 C 90 % 1001,4 hPa 0,0 mm 16,5 km/h (3 Bft) O-SO 250 0 min 0 min 0,000 mm 0,0 UV-I 0 W/m 5,8 C 1,2 C 24,8 km/h (4 Bft) 92,86 %
09/12/2019 05:59 7,3 C 90 % 1001,4 hPa 0,0 mm 13,7 km/h (3 Bft) O-SO 246 0 min 0 min 0,000 mm 0,0 UV-I 0 W/m 5,8 C 2,5 C 17,7 km/h (3 Bft) 93,33 %
09/12/2019 05:58 7,3 C 90 % 1001,4 hPa 0,0 mm 15,1 km/h (3 Bft) SO 227 0 min 0 min 0,000 mm 0,0 UV-I 0 W/m 5,8 C 1,8 C 23,0 km/h (4 Bft) 100,00 %
09/12/2019 05:57 7,3 C 90 % 1001,5 hPa 0,0 mm 17,6 km/h (3 Bft) O 269 0 min 0 min 0,000 mm 0,0 UV-I 0 W/m 5,8 C 0,7 C 21,2 km/h (4 Bft) 100,00 %
09/12/2019 05:56 7,3 C 90 % 1001,5 hPa 0,0 mm 16,8 km/h (3 Bft) O 259 0 min 0 min 0,000 mm 0,0 UV-I 0 W/m 5,8 C 1,1 C 21,2 km/h (4 Bft) 100,00 %
09/12/2019 05:55 7,3 C 90 % 1001,5 hPa 0,0 mm 16,0 km/h (3 Bft) SO 222 0 min 0 min 0,000 mm 0,0 UV-I 0 W/m 5,8 C 1,4 C 26,6 km/h (4 Bft) 93,33 %
09/12/2019 05:54 7,3 C 89 % 1001,5 hPa 0,2 mm 11,8 km/h (2 Bft) O-SO 245 0 min 0 min 0,000 mm 0,0 UV-I 0 W/m 5,6 C 3,5 C 19,5 km/h (3 Bft) 100,00 %
09/12/2019 05:53 7,3 C 89 % 1001,5 hPa 0,0 mm 20,0 km/h (4 Bft) SO 221 0 min 0 min 0,000 mm 0,0 UV-I 0 W/m 5,6 C -0,2 C 30,1 km/h (5 Bft) 100,00 %
09/12/2019 05:52 7,4 C 89 % 1001,5 hPa 0,0 mm 19,0 km/h (3 Bft) O-SO 254 0 min 0 min 0,000 mm 0,0 UV-I 0 W/m 5,7 C 0,3 C 28,3 km/h (5 Bft) 100,00 %
09/12/2019 05:51 7,4 C 89 % 1001,5 hPa 0,0 mm 19,3 km/h (3 Bft) O 259 0 min 0 min 0,000 mm 0,0 UV-I 0 W/m 5,7 C 0,2 C 24,8 km/h (4 Bft) 96,30 %
09/12/2019 05:50 7,4 C 89 % 1001,5 hPa 0,0 mm 17,0 km/h (3 Bft) SO 232 0 min 0 min 0,000 mm 0,0 UV-I 0 W/m 5,7 C 1,1 C 24,8 km/h (4 Bft) 100,00 %
09/12/2019 05:49 7,4 C 89 % 1001,5 hPa 0,0 mm 11,5 km/h (2 Bft) SO 223 0 min 0 min 0,000 mm 0,0 UV-I 0 W/m 5,7 C 3,8 C 23,0 km/h (4 Bft) 100,00 %
09/12/2019 05:48 7,4 C 89 % 1001,5 hPa 0,0 mm 20,6 km/h (4 Bft) SO 230 0 min 0 min 0,000 mm 0,0 UV-I 0 W/m 5,7 C -0,3 C 33,6 km/h (5 Bft) 100,00 %
09/12/2019 05:47 7,4 C 89 % 1001,6 hPa 0,2 mm 21,3 km/h (4 Bft) S-SO 207 0 min 0 min 0,000 mm 0,0 UV-I 0 W/m 5,7 C -0,5 C 31,9 km/h (5 Bft) 100,00 %
09/12/2019 05:46 7,5 C 88 % 1001,6 hPa 0,0 mm 17,3 km/h (3 Bft) SO 223 0 min 0 min 0,000 mm 0,0 UV-I 0 W/m 5,6 C 1,1 C 31,9 km/h (5 Bft) 100,00 %
09/12/2019 05:45 7,5 C 88 % 1001,5 hPa 0,2 mm 24,9 km/h (4 Bft) O-SO 242 0 min 0 min 0,000 mm 0,0 UV-I 0 W/m 5,6 C -1,5 C 37,2 km/h (5 Bft) 100,00 %
09/12/2019 05:44 7,5 C 88 % 1001,5 hPa 0,0 mm 22,9 km/h (4 Bft) SO 232 0 min 0 min 0,000 mm 0,0 UV-I 0 W/m 5,6 C -0,9 C 31,9 km/h (5 Bft) 95,83 %
09/12/2019 05:43 7,5 C 88 % 1001,6 hPa 0,0 mm 23,8 km/h (4 Bft) O 264 0 min 0 min 0,000 mm 0,0 UV-I 0 W/m 5,6 C -1,2 C 37,2 km/h (5 Bft) 100,00 %
09/12/2019 05:42 7,6 C 88 % 1001,6 hPa 0,2 mm 14,4 km/h (3 Bft) O-SO 248 0 min 0 min 0,000 mm 0,0 UV-I 0 W/m 5,7 C 2,5 C 23,0 km/h (4 Bft) 100,00 %
09/12/2019 05:41 7,6 C 88 % 1001,6 hPa 0,2 mm 20,8 km/h (4 Bft) SO 225 0 min 0 min 0,000 mm 0,0 UV-I 0 W/m 5,7 C -0,1 C 40,7 km/h (6 Bft) 91,67 %
09/12/2019 05:40 7,6 C 88 % 1001,6 hPa 0,0 mm 21,3 km/h (4 Bft) O 261 0 min 0 min 0,000 mm 0,0 UV-I 0 W/m 5,7 C -0,3 C 30,1 km/h (5 Bft) 100,00 %
09/12/2019 05:39 7,6 C 88 % 1001,6 hPa 0,0 mm 21,8 km/h (4 Bft) O-SO 237 0 min 0 min 0,000 mm 0,0 UV-I 0 W/m 5,7 C -0,4 C 28,3 km/h (5 Bft) 95,83 %
09/12/2019 05:38 7,6 C 87 % 1001,6 hPa 0,0 mm 17,5 km/h (3 Bft) O 270 0 min 0 min 0,000 mm 0,0 UV-I 0 W/m 5,6 C 1,1 C 30,1 km/h (5 Bft) 96,43 %
09/12/2019 05:37 7,6 C 87 % 1001,6 hPa 0,0 mm 21,1 km/h (4 Bft) SO 214 0 min 0 min 0,000 mm 0,0 UV-I 0 W/m 5,6 C -0,2 C 35,4 km/h (5 Bft) 100,00 %
09/12/2019 05:36 7,6 C 87 % 1001,6 hPa 0,0 mm 22,9 km/h (4 Bft) S-SO 196 0 min 0 min 0,000 mm 0,0 UV-I 0 W/m 5,6 C -0,8 C 31,9 km/h (5 Bft) 92,59 %
09/12/2019 05:35 7,7 C 87 % 1001,6 hPa 0,2 mm 25,7 km/h (4 Bft) SO 232 0 min 0 min 0,000 mm 0,0 UV-I 0 W/m 5,7 C -1,5 C 33,6 km/h (5 Bft) 100,00 %
09/12/2019 05:34 7,7 C 87 % 1001,5 hPa 0,0 mm 25,1 km/h (4 Bft) SO 224 0 min 0 min 0,000 mm 0,0 UV-I 0 W/m 5,7 C -1,3 C 31,9 km/h (5 Bft) 92,59 %
09/12/2019 05:33 7,7 C 87 % 1001,6 hPa 0,0 mm 25,4 km/h (4 Bft) SO 217 0 min 0 min 0,000 mm 0,0 UV-I 0 W/m 5,7 C -1,4 C 42,5 km/h (6 Bft) 96,67 %
09/12/2019 05:32 7,7 C 87 % 1001,6 hPa 0,2 mm 20,8 km/h (4 Bft) SO 229 0 min 0 min 0,000 mm 0,0 UV-I 0 W/m 5,7 C 0,0 C 38,9 km/h (6 Bft) 91,67 %
09/12/2019 05:31 7,7 C 87 % 1001,6 hPa 0,0 mm 24,4 km/h (4 Bft) SO 223 0 min 0 min 0,000 mm 0,0 UV-I 0 W/m 5,7 C -1,1 C 35,4 km/h (5 Bft) 100,00 %
09/12/2019 05:30 7,7 C 87 % 1001,6 hPa 0,0 mm 22,8 km/h (4 Bft) S-SO 198 0 min 0 min 0,000 mm 0,0 UV-I 0 W/m 5,7 C -0,6 C 35,4 km/h (5 Bft) 100,00 %
09/12/2019 05:29 7,8 C 87 % 1001,6 hPa 0,0 mm 16,4 km/h (3 Bft) O-SO 248 0 min 0 min 0,000 mm 0,0 UV-I 0 W/m 5,8 C 1,8 C 26,6 km/h (4 Bft) 94,12 %
09/12/2019 05:28 7,8 C 87 % 1001,7 hPa 0,0 mm 18,4 km/h (3 Bft) SO 223 0 min 0 min 0,000 mm 0,0 UV-I 0 W/m 5,8 C 1,0 C 26,6 km/h (4 Bft) 96,43 %
09/12/2019 05:27 7,8 C 87 % 1001,7 hPa 0,2 mm 23,9 km/h (4 Bft) S-SE 166 0 min 0 min 0,000 mm 0,0 UV-I 0 W/m 5,8 C -0,8 C 38,9 km/h (6 Bft) 100,00 %
09/12/2019 05:26 7,8 C 87 % 1001,7 hPa 0,0 mm 23,2 km/h (4 Bft) O-SO 248 0 min 0 min 0,000 mm 0,0 UV-I 0 W/m 5,8 C -0,6 C 33,6 km/h (5 Bft) 96,00 %
09/12/2019 05:25 7,8 C 87 % 1001,5 hPa 0,0 mm 16,4 km/h (3 Bft) O-NO 296 0 min 0 min 0,000 mm 0,0 UV-I 0 W/m 5,8 C 1,8 C 21,2 km/h (4 Bft) 100,00 %
09/12/2019 05:24 7,8 C 87 % 1001,6 hPa 0,0 mm 24,6 km/h (4 Bft) O-SO 250 0 min 0 min 0,000 mm 0,0 UV-I 0 W/m 5,8 C -1,0 C 35,4 km/h (5 Bft) 100,00 %
09/12/2019 05:23 7,8 C 87 % 1001,4 hPa 0,0 mm 18,2 km/h (3 Bft) O-SO 253 0 min 0 min 0,000 mm 0,0 UV-I 0 W/m 5,8 C 1,1 C 28,3 km/h (5 Bft) 100,00 %
09/12/2019 05:22 7,8 C 86 % 1001,4 hPa 0,0 mm 17,5 km/h (3 Bft) SO 223 0 min 0 min 0,000 mm 0,0 UV-I 0 W/m 5,6 C 1,4 C 33,6 km/h (5 Bft) 100,00 %
09/12/2019 05:21 7,8 C 86 % 1001,5 hPa 0,0 mm 23,8 km/h (4 Bft) S-SO 211 0 min 0 min 0,000 mm 0,0 UV-I 0 W/m 5,6 C -0,8 C 33,6 km/h (5 Bft) 95,83 %
09/12/2019 05:20 7,8 C 86 % 1001,3 hPa 0,0 mm 14,9 km/h (3 Bft) O 259 0 min 0 min 0,000 mm 0,0 UV-I 0 W/m 5,6 C 2,5 C 24,8 km/h (4 Bft) 100,00 %
09/12/2019 05:19 7,8 C 86 % 1001,2 hPa 0,0 mm 16,8 km/h (3 Bft) S-SO 202 0 min 0 min 0,000 mm 0,0 UV-I 0 W/m 5,6 C 1,7 C 24,8 km/h (4 Bft) 100,00 %
09/12/2019 05:18 7,8 C 86 % 1001,3 hPa 0,0 mm 15,7 km/h (3 Bft) SO 234 0 min 0 min 0,000 mm 0,0 UV-I 0 W/m 5,6 C 2,2 C 24,8 km/h (4 Bft) 100,00 %
09/12/2019 05:17 7,8 C 86 % 1001,3 hPa 0,0 mm 21,1 km/h (4 Bft) S-SO 205 0 min 0 min 0,000 mm 0,0 UV-I 0 W/m 5,6 C 0,1 C 35,4 km/h (5 Bft) 95,83 %
09/12/2019 05:16 7,8 C 86 % 1001,3 hPa 0,0 mm 16,9 km/h (3 Bft) O 280 0 min 0 min 0,000 mm 0,0 UV-I 0 W/m 5,6 C 1,6 C 31,9 km/h (5 Bft) 100,00 %
09/12/2019 05:15 7,8 C 86 % 1001,3 hPa 0,0 mm 13,4 km/h (3 Bft) O 266 0 min 0 min 0,000 mm 0,0 UV-I 0 W/m 5,6 C 3,2 C 24,8 km/h (4 Bft) 100,00 %
09/12/2019 05:14 7,8 C 86 % 1001,3 hPa 0,0 mm 19,1 km/h (3 Bft) S-SO 196 0 min 0 min 0,000 mm 0,0 UV-I 0 W/m 5,6 C 0,8 C 33,6 km/h (5 Bft) 100,00 %
09/12/2019 05:13 7,8 C 86 % 1001,2 hPa 0,0 mm 22,9 km/h (4 Bft) O-SO 248 0 min 0 min 0,000 mm 0,0 UV-I 0 W/m 5,6 C -0,5 C 33,6 km/h (5 Bft) 93,75 %
09/12/2019 05:12 7,8 C 86 % 1001,2 hPa 0,0 mm 16,7 km/h (3 Bft) O-SO 257 0 min 0 min 0,000 mm 0,0 UV-I 0 W/m 5,6 C 1,7 C 26,6 km/h (4 Bft) 95,83 %
09/12/2019 05:11 7,8 C 86 % 1001,1 hPa 0,0 mm 8,9 km/h (2 Bft) O 263 0 min 0 min 0,000 mm 0,0 UV-I 0 W/m 5,6 C 5,9 C 12,4 km/h (2 Bft) 100,00 %
09/12/2019 05:10 7,8 C 86 % 1001,2 hPa 0,0 mm 17,1 km/h (3 Bft) S-SO 211 0 min 0 min 0,000 mm 0,0 UV-I 0 W/m 5,6 C 1,6 C 24,8 km/h (4 Bft) 100,00 %
09/12/2019 05:09 7,8 C 86 % 1001,2 hPa 0,0 mm 15,5 km/h (3 Bft) O 261 0 min 0 min 0,000 mm 0,0 UV-I 0 W/m 5,6 C 2,2 C 21,2 km/h (4 Bft) 100,00 %
09/12/2019 05:08 7,8 C 86 % 1001,2 hPa 0,0 mm 19,0 km/h (3 Bft) O 263 0 min 0 min 0,000 mm 0,0 UV-I 0 W/m 5,6 C 0,8 C 28,3 km/h (5 Bft) 100,00 %
09/12/2019 05:07 7,8 C 86 % 1001,3 hPa 0,0 mm 16,9 km/h (3 Bft) O-SO 245 0 min 0 min 0,000 mm 0,0 UV-I 0 W/m 5,6 C 1,6 C 28,3 km/h (5 Bft) 96,88 %
09/12/2019 05:06 7,8 C 86 % 1001,3 hPa 0,0 mm 22,2 km/h (4 Bft) O 280 0 min 0 min 0,000 mm 0,0 UV-I 0 W/m 5,6 C -0,3 C 30,1 km/h (5 Bft) 100,00 %
09/12/2019 05:05 7,8 C 86 % 1001,3 hPa 0,0 mm 24,1 km/h (4 Bft) O-SO 258 0 min 0 min 0,000 mm 0,0 UV-I 0 W/m 5,6 C -0,9 C 38,9 km/h (6 Bft) 96,30 %
09/12/2019 05:04 7,8 C 86 % 1001,2 hPa 0,0 mm 25,8 km/h (4 Bft) O 259 0 min 0 min 0,000 mm 0,0 UV-I 0 W/m 5,6 C -1,4 C 37,2 km/h (5 Bft) 97,44 %
09/12/2019 05:03 7,8 C 86 % 1001,3 hPa 0,0 mm 23,7 km/h (4 Bft) O-SO 248 0 min 0 min 0,000 mm 0,0 UV-I 0 W/m 5,6 C -0,8 C 30,1 km/h (5 Bft) 98,32 %
09/12/2019 05:02 7,8 C 86 % 1001,4 hPa 0,0 mm 21,1 km/h (4 Bft) O-SO 248 0 min 0 min 0,000 mm 0,0 UV-I 0 W/m 5,6 C 0,1 C 28,3 km/h (5 Bft) 96,00 %
09/12/2019 05:01 7,8 C 86 % 1001,3 hPa 0,0 mm 26,2 km/h (4 Bft) SO 226 0 min 0 min 0,025 mm 0,0 UV-I 0 W/m 5,6 C -1,5 C 37,2 km/h (5 Bft) 97,50 %
09/12/2019 05:00 7,8 C 86 % 1001,3 hPa 0,0 mm 23,4 km/h (4 Bft) SO 223 0 min 0 min 0,000 mm 0,0 UV-I 0 W/m 5,6 C -0,7 C 42,5 km/h (6 Bft) 92,86 %
09/12/2019 04:59 7,8 C 86 % 1001,3 hPa 0,0 mm 15,0 km/h (3 Bft) O 261 0 min 0 min 0,000 mm 0,0 UV-I 0 W/m 5,6 C 2,5 C 23,0 km/h (4 Bft) 100,00 %
09/12/2019 04:58 7,8 C 86 % 1001,3 hPa 0,0 mm 19,2 km/h (3 Bft) S-SO 210 0 min 0 min 0,000 mm 0,0 UV-I 0 W/m 5,6 C 0,7 C 37,2 km/h (5 Bft) 93,33 %
09/12/2019 04:57 7,8 C 86 % 1001,3 hPa 0,0 mm 20,7 km/h (4 Bft) O-NO 289 0 min 0 min 0,000 mm 0,0 UV-I 0 W/m 5,6 C 0,2 C 30,1 km/h (5 Bft) 100,00 %
09/12/2019 04:56 7,8 C 86 % 1001,3 hPa 0,0 mm 22,9 km/h (4 Bft) O-SO 254 0 min 0 min 0,000 mm 0,0 UV-I 0 W/m 5,6 C -0,5 C 31,9 km/h (5 Bft) 96,77 %
09/12/2019 04:55 7,8 C 86 % 1001,4 hPa 0,0 mm 20,6 km/h (4 Bft) S-SO 211 0 min 0 min 0,000 mm 0,0 UV-I 0 W/m 5,6 C 0,2 C 30,1 km/h (5 Bft) 100,00 %
09/12/2019 04:54 7,8 C 86 % 1001,2 hPa 0,0 mm 21,0 km/h (4 Bft) O-SO 243 0 min 0 min 0,000 mm 0,0 UV-I 0 W/m 5,6 C 0,1 C 28,3 km/h (5 Bft) 100,00 %
09/12/2019 04:53 7,8 C 86 % 1001,4 hPa 0,0 mm 22,9 km/h (4 Bft) O 263 0 min 0 min 0,000 mm 0,0 UV-I 0 W/m 5,6 C -0,5 C 38,9 km/h (6 Bft) 90,91 %
09/12/2019 04:52 7,8 C 86 % 1001,3 hPa 0,0 mm 21,0 km/h (4 Bft) O 264 0 min 0 min 0,000 mm 0,0 UV-I 0 W/m 5,6 C 0,1 C 35,4 km/h (5 Bft) 100,00 %
09/12/2019 04:51 7,8 C 86 % 1001,3 hPa 0,0 mm 13,9 km/h (3 Bft) SO 228 0 min 0 min 0,000 mm 0,0 UV-I 0 W/m 5,6 C 3,0 C 26,6 km/h (4 Bft) 95,83 %
09/12/2019 04:50 7,8 C 86 % 1001,2 hPa 0,0 mm 25,2 km/h (4 Bft) O-SO 240 0 min 0 min 0,000 mm 0,0 UV-I 0 W/m 5,6 C -1,2 C 33,6 km/h (5 Bft) 100,00 %
09/12/2019 04:49 7,8 C 86 % 1001,3 hPa 0,0 mm 29,1 km/h (5 Bft) O-SO 252 0 min 0 min 0,000 mm 0,0 UV-I 0 W/m 5,6 C -2,2 C 44,3 km/h (6 Bft) 95,83 %
09/12/2019 04:48 7,8 C 86 % 1001,3 hPa 0,0 mm 24,8 km/h (4 Bft) O-SO 246 0 min 0 min 0,000 mm 0,0 UV-I 0 W/m 5,6 C -1,1 C 37,2 km/h (5 Bft) 96,15 %
09/12/2019 04:47 7,8 C 86 % 1001,3 hPa 0,0 mm 29,7 km/h (5 Bft) S 173 0 min 0 min 0,000 mm 0,0 UV-I 0 W/m 5,6 C -2,4 C 44,3 km/h (6 Bft) 100,00 %
09/12/2019 04:46 7,8 C 86 % 1001,3 hPa 0,0 mm 19,5 km/h (3 Bft) O-SO 253 0 min 0 min 0,000 mm 0,0 UV-I 0 W/m 5,6 C 0,6 C 35,4 km/h (5 Bft) 100,00 %
09/12/2019 04:45 7,8 C 86 % 1001,3 hPa 0,0 mm 26,9 km/h (4 Bft) O-SO 248 0 min 0 min 0,000 mm 0,0 UV-I 0 W/m 5,6 C -1,7 C 40,7 km/h (6 Bft) 96,00 %
09/12/2019 04:44 7,8 C 86 % 1001,3 hPa 0,0 mm 26,3 km/h (4 Bft) SO 222 0 min 0 min 0,000 mm 0,0 UV-I 0 W/m 5,6 C -1,5 C 38,9 km/h (6 Bft) 95,65 %
09/12/2019 04:43 7,8 C 86 % 1001,2 hPa 0,0 mm 21,1 km/h (4 Bft) S-SO 198 0 min 0 min 0,000 mm 0,0 UV-I 0 W/m 5,6 C 0,1 C 33,6 km/h (5 Bft) 100,00 %
09/12/2019 04:42 7,8 C 86 % 1001,3 hPa 0,0 mm 23,7 km/h (4 Bft) S 176 0 min 0 min 0,000 mm 0,0 UV-I 0 W/m 5,6 C -0,8 C 35,4 km/h (5 Bft) 93,33 %
09/12/2019 04:41 7,8 C 86 % 1001,3 hPa 0,0 mm 19,4 km/h (3 Bft) SO 231 0 min 0 min 0,000 mm 0,0 UV-I 0 W/m 5,6 C 0,7 C 35,4 km/h (5 Bft) 100,00 %
09/12/2019 04:40 7,8 C 86 % 1001,4 hPa 0,0 mm 16,0 km/h (3 Bft) SO 232 0 min 0 min 0,000 mm 0,0 UV-I 0 W/m 5,6 C 2,0 C 24,8 km/h (4 Bft) 96,88 %
09/12/2019 04:39 7,8 C 86 % 1001,3 hPa 0,0 mm 25,8 km/h (4 Bft) O-SO 244 0 min 0 min 0,000 mm 0,0 UV-I 0 W/m 5,6 C -1,4 C 37,2 km/h (5 Bft) 90,91 %
09/12/2019 04:38 7,8 C 86 % 1001,4 hPa 0,0 mm 28,1 km/h (5 Bft) SO 217 0 min 0 min 0,000 mm 0,0 UV-I 0 W/m 5,6 C -2,0 C 37,2 km/h (5 Bft) 94,12 %
09/12/2019 04:37 7,8 C 86 % 1001,3 hPa 0,0 mm 27,0 km/h (5 Bft) O-SO 242 0 min 0 min 0,000 mm 0,0 UV-I 0 W/m 5,6 C -1,7 C 42,5 km/h (6 Bft) 100,00 %
09/12/2019 04:36 7,8 C 86 % 1001,3 hPa 0,0 mm 15,4 km/h (3 Bft) SO 234 0 min 0 min 0,000 mm 0,0 UV-I 0 W/m 5,6 C 2,3 C 28,3 km/h (5 Bft) 96,43 %
09/12/2019 04:35 7,8 C 86 % 1001,3 hPa 0,0 mm 19,7 km/h (3 Bft) O 275 0 min 0 min 0,000 mm 0,0 UV-I 0 W/m 5,6 C 0,6 C 31,9 km/h (5 Bft) 94,12 %
09/12/2019 04:34 7,8 C 86 % 1001,3 hPa 0,0 mm 25,9 km/h (4 Bft) S 188 0 min 0 min 0,000 mm 0,0 UV-I 0 W/m 5,6 C -1,4 C 33,6 km/h (5 Bft) 96,55 %
09/12/2019 04:33 7,8 C 86 % 1001,4 hPa 0,0 mm 16,6 km/h (3 Bft) O 260 0 min 0 min 0,000 mm 0,0 UV-I 0 W/m 5,6 C 1,8 C 31,9 km/h (5 Bft) 92,86 %
09/12/2019 04:32 7,8 C 86 % 1001,3 hPa 0,0 mm 20,4 km/h (4 Bft) SO 219 0 min 0 min 0,000 mm 0,0 UV-I 0 W/m 5,6 C 0,3 C 35,4 km/h (5 Bft) 100,00 %
09/12/2019 04:31 7,8 C 86 % 1001,2 hPa 0,0 mm 28,5 km/h (5 Bft) O-SO 244 0 min 0 min 0,000 mm 0,0 UV-I 0 W/m 5,6 C -2,1 C 49,6 km/h (7 Bft) 92,86 %
09/12/2019 04:30 7,8 C 86 % 1001,3 hPa 0,0 mm 22,2 km/h (4 Bft) S 190 0 min 0 min 0,000 mm 0,0 UV-I 0 W/m 5,6 C -0,3 C 31,9 km/h (5 Bft) 100,00 %
09/12/2019 04:29 7,8 C 86 % 1001,3 hPa 0,0 mm 16,4 km/h (3 Bft) O-SO 239 0 min 0 min 0,000 mm 0,0 UV-I 0 W/m 5,6 C 1,8 C 33,6 km/h (5 Bft) 91,67 %
09/12/2019 04:28 7,8 C 86 % 1001,3 hPa 0,0 mm 18,3 km/h (3 Bft) SO 222 0 min 0 min 0,000 mm 0,0 UV-I 0 W/m 5,6 C 1,1 C 33,6 km/h (5 Bft) 91,67 %
09/12/2019 04:27 7,8 C 85 % 1001,4 hPa 0,0 mm 15,9 km/h (3 Bft) SO 222 0 min 0 min 0,000 mm 0,0 UV-I 0 W/m 5,4 C 2,1 C 21,2 km/h (4 Bft) 95,83 %
09/12/2019 04:26 7,9 C 85 % 1001,4 hPa 0,0 mm 22,6 km/h (4 Bft) SO 234 0 min 0 min 0,000 mm 0,0 UV-I 0 W/m 5,5 C -0,3 C 37,2 km/h (5 Bft) 92,00 %
09/12/2019 04:25 7,9 C 85 % 1001,5 hPa 0,0 mm 22,9 km/h (4 Bft) O-SO 250 0 min 0 min 0,000 mm 0,0 UV-I 0 W/m 5,5 C -0,4 C 35,4 km/h (5 Bft) 100,00 %
09/12/2019 04:24 7,9 C 85 % 1001,4 hPa 0,0 mm 16,0 km/h (3 Bft) SO 235 0 min 0 min 0,000 mm 0,0 UV-I 0 W/m 5,5 C 2,1 C 30,1 km/h (5 Bft) 100,00 %
09/12/2019 04:23 7,9 C 85 % 1001,5 hPa 0,0 mm 29,3 km/h (5 Bft) O-SO 247 0 min 0 min 0,000 mm 0,0 UV-I 0 W/m 5,5 C -2,1 C 38,9 km/h (6 Bft) 100,00 %
09/12/2019 04:22 7,9 C 85 % 1001,5 hPa 0,0 mm 23,6 km/h (4 Bft) SO 220 0 min 0 min 0,000 mm 0,0 UV-I 0 W/m 5,5 C -0,6 C 37,2 km/h (5 Bft) 95,83 %
09/12/2019 04:21 7,9 C 85 % 1001,6 hPa 0,0 mm 18,9 km/h (3 Bft) SO 219 0 min 0 min 0,000 mm 0,0 UV-I 0 W/m 5,5 C 1,0 C 35,4 km/h (5 Bft) 100,00 %
09/12/2019 04:20 7,9 C 85 % 1001,5 hPa 0,0 mm 16,3 km/h (3 Bft) O-SO 252 0 min 0 min 0,000 mm 0,0 UV-I 0 W/m 5,5 C 2,0 C 21,2 km/h (4 Bft) 94,12 %
09/12/2019 04:19 7,9 C 85 % 1001,5 hPa 0,0 mm 15,3 km/h (3 Bft) SO 224 0 min 0 min 0,000 mm 0,0 UV-I 0 W/m 5,5 C 2,5 C 21,2 km/h (4 Bft) 100,00 %
09/12/2019 04:18 7,9 C 85 % 1001,4 hPa 0,0 mm 21,1 km/h (4 Bft) SO 229 0 min 0 min 0,000 mm 0,0 UV-I 0 W/m 5,5 C 0,2 C 31,9 km/h (5 Bft) 96,55 %
09/12/2019 04:17 7,9 C 84 % 1001,5 hPa 0,0 mm 14,6 km/h (3 Bft) O-SO 253 0 min 0 min 0,000 mm 0,0 UV-I 0 W/m 5,4 C 2,8 C 26,6 km/h (4 Bft) 96,43 %
09/12/2019 04:16 7,9 C 84 % 1001,5 hPa 0,0 mm 20,4 km/h (4 Bft) S 178 0 min 0 min 0,000 mm 0,0 UV-I 0 W/m 5,4 C 0,4 C 24,8 km/h (4 Bft) 100,00 %
09/12/2019 04:15 7,9 C 84 % 1001,6 hPa 0,0 mm 19,2 km/h (3 Bft) O-SO 257 0 min 0 min 0,000 mm 0,0 UV-I 0 W/m 5,4 C 0,9 C 30,1 km/h (5 Bft) 96,30 %
09/12/2019 04:14 7,9 C 84 % 1001,6 hPa 0,0 mm 24,4 km/h (4 Bft) S-SO 193 0 min 0 min 0,000 mm 0,0 UV-I 0 W/m 5,4 C -0,8 C 33,6 km/h (5 Bft) 100,00 %
09/12/2019 04:13 7,9 C 84 % 1001,6 hPa 0,0 mm 19,7 km/h (3 Bft) O-SO 243 0 min 0 min 0,000 mm 0,0 UV-I 0 W/m 5,4 C 0,7 C 33,6 km/h (5 Bft) 96,30 %
09/12/2019 04:12 7,9 C 84 % 1001,6 hPa 0,0 mm 24,0 km/h (4 Bft) O-SO 244 0 min 0 min 0,000 mm 0,0 UV-I 0 W/m 5,4 C -0,7 C 30,1 km/h (5 Bft) 97,22 %
09/12/2019 04:11 7,9 C 84 % 1001,8 hPa 0,0 mm 27,0 km/h (5 Bft) O-SO 257 0 min 0 min 0,000 mm 0,0 UV-I 0 W/m 5,4 C -1,6 C 37,2 km/h (5 Bft) 100,00 %
09/12/2019 04:10 7,9 C 84 % 1001,7 hPa 0,0 mm 29,0 km/h (5 Bft) SO 232 0 min 0 min 0,000 mm 0,0 UV-I 0 W/m 5,4 C -2,1 C 38,9 km/h (6 Bft) 100,00 %
09/12/2019 04:09 7,9 C 84 % 1001,7 hPa 0,0 mm 24,1 km/h (4 Bft) O-SO 244 0 min 0 min 0,000 mm 0,0 UV-I 0 W/m 5,4 C -0,8 C 31,9 km/h (5 Bft) 100,00 %
09/12/2019 04:08 7,9 C 84 % 1001,6 hPa 0,0 mm 33,8 km/h (5 Bft) SO 221 0 min 0 min 0,000 mm 0,0 UV-I 0 W/m 5,4 C -3,1 C 44,3 km/h (6 Bft) 100,00 %
09/12/2019 04:07 7,9 C 84 % 1001,8 hPa 0,0 mm 23,8 km/h (4 Bft) O-SO 237 0 min 0 min 0,000 mm 0,0 UV-I 0 W/m 5,4 C -0,7 C 37,2 km/h (5 Bft) 100,00 %
09/12/2019 04:06 7,9 C 84 % 1001,6 hPa 0,0 mm 22,9 km/h (4 Bft) O-SO 241 0 min 0 min 0,000 mm 0,0 UV-I 0 W/m 5,4 C -0,4 C 35,4 km/h (5 Bft) 100,00 %
09/12/2019 04:05 7,9 C 84 % 1001,7 hPa 0,0 mm 29,7 km/h (5 Bft) SO 229 0 min 0 min 0,000 mm 0,0 UV-I 0 W/m 5,4 C -2,2 C 44,3 km/h (6 Bft) 100,00 %
09/12/2019 04:04 7,9 C 84 % 1001,8 hPa 0,0 mm 20,6 km/h (4 Bft) O-SO 253 0 min 0 min 0,000 mm 0,0 UV-I 0 W/m 5,4 C 0,4 C 31,9 km/h (5 Bft) 100,00 %
09/12/2019 04:03 7,9 C 84 % 1001,8 hPa 0,0 mm 30,2 km/h (5 Bft) O 273 0 min 0 min 0,000 mm 0,0 UV-I 0 W/m 5,4 C -2,3 C 62,0 km/h (7 Bft) 100,00 %
09/12/2019 04:02 7,9 C 84 % 1001,7 hPa 0,0 mm 24,2 km/h (4 Bft) SO 225 0 min 0 min 0,000 mm 0,0 UV-I 0 W/m 5,4 C -0,8 C 31,9 km/h (5 Bft) 100,00 %
09/12/2019 04:01 7,9 C 84 % 1001,8 hPa 0,0 mm 16,6 km/h (3 Bft) O-SO 246 0 min 0 min 0,026 mm 0,0 UV-I 0 W/m 5,4 C 1,9 C 26,6 km/h (4 Bft) 95,83 %
09/12/2019 04:00 7,9 C 84 % 1001,8 hPa 0,0 mm 26,0 km/h (4 Bft) SO 234 0 min 0 min 0,000 mm 0,0 UV-I 0 W/m 5,4 C -1,3 C 37,2 km/h (5 Bft) 100,00 %
09/12/2019 03:59 7,9 C 84 % 1001,8 hPa 0,0 mm 26,5 km/h (4 Bft) S 180 0 min 0 min 0,000 mm 0,0 UV-I 0 W/m 5,4 C -1,4 C 38,9 km/h (6 Bft) 95,65 %
09/12/2019 03:58 7,9 C 84 % 1001,7 hPa 0,0 mm 27,2 km/h (5 Bft) SO 219 0 min 0 min 0,000 mm 0,0 UV-I 0 W/m 5,4 C -1,6 C 37,2 km/h (5 Bft) 96,00 %
09/12/2019 03:57 7,9 C 84 % 1001,6 hPa 0,0 mm 20,5 km/h (4 Bft) O-SO 246 0 min 0 min 0,000 mm 0,0 UV-I 0 W/m 5,4 C 0,4 C 30,1 km/h (5 Bft) 91,67 %
09/12/2019 03:56 7,9 C 84 % 1001,7 hPa 0,0 mm 19,2 km/h (3 Bft) S-SO 200 0 min 0 min 0,000 mm 0,0 UV-I 0 W/m 5,4 C 0,9 C 35,4 km/h (5 Bft) 96,67 %
09/12/2019 03:55 7,9 C 84 % 1001,7 hPa 0,0 mm 17,7 km/h (3 Bft) O-SO 245 0 min 0 min 0,000 mm 0,0 UV-I 0 W/m 5,4 C 1,4 C 30,1 km/h (5 Bft) 97,62 %
09/12/2019 03:53 8,0 C 84 % 1001,9 hPa 0,0 mm 19,8 km/h (3 Bft) O-SO 246 0 min 0 min 0,000 mm 0,0 UV-I 0 W/m 5,5 C 0,8 C 31,9 km/h (5 Bft) 100,00 %
09/12/2019 03:52 8,0 C 84 % 1001,7 hPa 0,0 mm 24,8 km/h (4 Bft) SO 236 0 min 0 min 0,000 mm 0,0 UV-I 0 W/m 5,5 C -0,8 C 38,9 km/h (6 Bft) 100,00 %
09/12/2019 03:51 8,0 C 84 % 1001,7 hPa 0,0 mm 28,6 km/h (5 Bft) O-SO 246 0 min 0 min 0,000 mm 0,0 UV-I 0 W/m 5,5 C -1,8 C 46,0 km/h (6 Bft) 100,00 %
09/12/2019 03:50 8,0 C 84 % 1001,7 hPa 0,0 mm 20,6 km/h (4 Bft) O-SO 238 0 min 0 min 0,000 mm 0,0 UV-I 0 W/m 5,5 C 0,5 C 30,1 km/h (5 Bft) 100,00 %
09/12/2019 03:49 8,0 C 84 % 1001,8 hPa 0,0 mm 24,9 km/h (4 Bft) SO 235 0 min 0 min 0,000 mm 0,0 UV-I 0 W/m 5,5 C -0,8 C 37,2 km/h (5 Bft) 100,00 %
09/12/2019 03:48 8,0 C 84 % 1001,7 hPa 0,0 mm 28,6 km/h (5 Bft) SO 217 0 min 0 min 0,000 mm 0,0 UV-I 0 W/m 5,5 C -1,8 C 37,2 km/h (5 Bft) 100,00 %
09/12/2019 03:47 8,0 C 84 % 1001,9 hPa 0,0 mm 32,6 km/h (5 Bft) O 274 0 min 0 min 0,000 mm 0,0 UV-I 0 W/m 5,5 C -2,7 C 47,8 km/h (6 Bft) 100,00 %
09/12/2019 03:46 8,0 C 84 % 1001,8 hPa 0,0 mm 26,4 km/h (4 Bft) O-SO 257 0 min 0 min 0,000 mm 0,0 UV-I 0 W/m 5,5 C -1,3 C 44,3 km/h (6 Bft) 100,00 %
09/12/2019 03:45 8,0 C 84 % 1001,8 hPa 0,0 mm 17,9 km/h (3 Bft) O-SO 246 0 min 0 min 0,000 mm 0,0 UV-I 0 W/m 5,5 C 1,5 C 28,3 km/h (5 Bft) 95,83 %
09/12/2019 03:44 8,0 C 84 % 1001,9 hPa 0,0 mm 23,6 km/h (4 Bft) SO 221 0 min 0 min 0,000 mm 0,0 UV-I 0 W/m 5,5 C -0,5 C 44,3 km/h (6 Bft) 100,00 %
09/12/2019 03:43 8,0 C 84 % 1001,8 hPa 0,0 mm 14,7 km/h (3 Bft) SO 232 0 min 0 min 0,000 mm 0,0 UV-I 0 W/m 5,5 C 2,8 C 24,8 km/h (4 Bft) 100,00 %
09/12/2019 03:42 8,0 C 84 % 1001,6 hPa 0,0 mm 21,7 km/h (4 Bft) SO 221 0 min 0 min 0,000 mm 0,0 UV-I 0 W/m 5,5 C 0,1 C 37,2 km/h (5 Bft) 100,00 %
09/12/2019 03:41 8,0 C 84 % 1001,9 hPa 0,0 mm 25,6 km/h (4 Bft) SO 228 0 min 0 min 0,000 mm 0,0 UV-I 0 W/m 5,5 C -1,0 C 33,6 km/h (5 Bft) 100,00 %
09/12/2019 03:40 8,0 C 84 % 1001,8 hPa 0,0 mm 17,5 km/h (3 Bft) O-SO 244 0 min 0 min 0,000 mm 0,0 UV-I 0 W/m 5,5 C 1,6 C 35,4 km/h (5 Bft) 100,00 %
09/12/2019 03:39 8,0 C 84 % 1001,8 hPa 0,0 mm 14,1 km/h (3 Bft) O-NO 291 0 min 0 min 0,000 mm 0,0 UV-I 0 W/m 5,5 C 3,1 C 28,3 km/h (5 Bft) 100,00 %
09/12/2019 03:38 8,0 C 84 % 1001,8 hPa 0,0 mm 15,7 km/h (3 Bft) SO 221 0 min 0 min 0,000 mm 0,0 UV-I 0 W/m 5,5 C 2,4 C 24,8 km/h (4 Bft) 100,00 %
09/12/2019 03:37 8,0 C 83 % 1001,8 hPa 0,0 mm 21,5 km/h (4 Bft) O-SO 258 0 min 0 min 0,000 mm 0,0 UV-I 0 W/m 5,3 C 0,2 C 31,9 km/h (5 Bft) 100,00 %
09/12/2019 03:36 8,0 C 83 % 1001,8 hPa 0,0 mm 17,8 km/h (3 Bft) SO 236 0 min 0 min 0,000 mm 0,0 UV-I 0 W/m 5,3 C 1,5 C 37,2 km/h (5 Bft) 100,00 %
09/12/2019 03:35 8,0 C 83 % 1001,8 hPa 0,0 mm 14,6 km/h (3 Bft) SO 235 0 min 0 min 0,000 mm 0,0 UV-I 0 W/m 5,3 C 2,9 C 24,8 km/h (4 Bft) 100,00 %
09/12/2019 03:34 8,0 C 83 % 1001,9 hPa 0,0 mm 24,6 km/h (4 Bft) SO 219 0 min 0 min 0,000 mm 0,0 UV-I 0 W/m 5,3 C -0,8 C 37,2 km/h (5 Bft) 100,00 %
09/12/2019 03:33 8,0 C 83 % 1001,8 hPa 0,0 mm 22,8 km/h (4 Bft) O-SO 237 0 min 0 min 0,000 mm 0,0 UV-I 0 W/m 5,3 C -0,2 C 35,4 km/h (5 Bft) 100,00 %
09/12/2019 03:32 8,0 C 83 % 1001,9 hPa 0,0 mm 25,2 km/h (4 Bft) O-SO 242 0 min 0 min 0,000 mm 0,0 UV-I 0 W/m 5,3 C -0,9 C 38,9 km/h (6 Bft) 100,00 %
09/12/2019 03:31 7,9 C 83 % 1001,9 hPa 0,0 mm 16,5 km/h (3 Bft) SO 214 0 min 0 min 0,000 mm 0,0 UV-I 0 W/m 5,2 C 1,9 C 28,3 km/h (5 Bft) 100,00 %
09/12/2019 03:30 8,0 C 83 % 1001,9 hPa 0,0 mm 28,7 km/h (5 Bft) O-SO 255 0 min 0 min 0,000 mm 0,0 UV-I 0 W/m 5,3 C -1,8 C 37,2 km/h (5 Bft) 100,00 %
09/12/2019 03:29 7,9 C 83 % 1002,0 hPa 0,0 mm 18,1 km/h (3 Bft) O 261 0 min 0 min 0,000 mm 0,0 UV-I 0 W/m 5,2 C 1,3 C 38,9 km/h (6 Bft) 100,00 %
09/12/2019 03:27 7,9 C 83 % 1001,9 hPa 0,0 mm 26,6 km/h (4 Bft) SO 229 0 min 0 min 0,000 mm 0,0 UV-I 0 W/m 5,2 C -1,5 C 42,5 km/h (6 Bft) 96,43 %
09/12/2019 03:26 7,9 C 83 % 1001,9 hPa 0,0 mm 18,6 km/h (3 Bft) O-SO 254 0 min 0 min 0,000 mm 0,0 UV-I 0 W/m 5,2 C 1,1 C 56,6 km/h (7 Bft) 100,00 %
09/12/2019 03:25 7,9 C 83 % 1001,8 hPa 0,0 mm 8,1 km/h (2 Bft) O-SO 245 0 min 0 min 0,000 mm 0,0 UV-I 0 W/m 5,2 C 6,6 C 14,2 km/h (3 Bft) 96,67 %
09/12/2019 03:24 7,9 C 83 % 1002,0 hPa 0,0 mm 13,2 km/h (3 Bft) S-SO 208 0 min 0 min 0,000 mm 0,0 UV-I 0 W/m 5,2 C 3,5 C 28,3 km/h (5 Bft) 100,00 %
09/12/2019 03:23 7,9 C 84 % 1002,0 hPa 0,0 mm 17,1 km/h (3 Bft) O-SO 246 0 min 0 min 0,000 mm 0,0 UV-I 0 W/m 5,4 C 1,7 C 23,0 km/h (4 Bft) 95,83 %
09/12/2019 03:22 7,9 C 84 % 1001,8 hPa 0,0 mm 18,7 km/h (3 Bft) S-SO 213 0 min 0 min 0,000 mm 0,0 UV-I 0 W/m 5,4 C 1,1 C 28,3 km/h (5 Bft) 100,00 %
09/12/2019 03:21 7,9 C 84 % 1002,0 hPa 0,0 mm 21,2 km/h (4 Bft) O-SO 238 0 min 0 min 0,000 mm 0,0 UV-I 0 W/m 5,4 C 0,2 C 37,2 km/h (5 Bft) 95,83 %
09/12/2019 03:20 7,9 C 84 % 1002,1 hPa 0,0 mm 18,1 km/h (3 Bft) SO 232 0 min 0 min 0,000 mm 0,0 UV-I 0 W/m 5,4 C 1,3 C 26,6 km/h (4 Bft) 100,00 %
09/12/2019 03:19 7,9 C 84 % 1002,2 hPa 0,0 mm 25,5 km/h (4 Bft) O-SO 240 0 min 0 min 0,000 mm 0,0 UV-I 0 W/m 5,4 C -1,2 C 33,6 km/h (5 Bft) 100,00 %
09/12/2019 03:18 7,9 C 84 % 1002,1 hPa 0,0 mm 20,2 km/h (4 Bft) O-SO 237 0 min 0 min 0,000 mm 0,0 UV-I 0 W/m 5,4 C 0,5 C 31,9 km/h (5 Bft) 100,00 %
09/12/2019 03:17 7,9 C 84 % 1002,2 hPa 0,0 mm 14,5 km/h (3 Bft) O-NO 285 0 min 0 min 0,000 mm 0,0 UV-I 0 W/m 5,4 C 2,8 C 24,8 km/h (4 Bft) 100,00 %
09/12/2019 03:16 7,9 C 84 % 1002,1 hPa 0,0 mm 20,0 km/h (4 Bft) SO 227 0 min 0 min 0,000 mm 0,0 UV-I 0 W/m 5,4 C 0,6 C 33,6 km/h (5 Bft) 100,00 %
09/12/2019 03:15 7,9 C 84 % 1002,2 hPa 0,0 mm 26,6 km/h (4 Bft) SO 235 0 min 0 min 0,000 mm 0,0 UV-I 0 W/m 5,4 C -1,5 C 33,6 km/h (5 Bft) 100,00 %
09/12/2019 03:14 7,9 C 84 % 1002,1 hPa 0,0 mm 17,5 km/h (3 Bft) SO 235 0 min 0 min 0,000 mm 0,0 UV-I 0 W/m 5,4 C 1,5 C 31,9 km/h (5 Bft) 100,00 %
09/12/2019 03:13 7,9 C 84 % 1002,1 hPa 0,0 mm 11,4 km/h (2 Bft) S-SO 207 0 min 0 min 0,000 mm 0,0 UV-I 0 W/m 5,4 C 4,4 C 19,5 km/h (3 Bft) 100,00 %
09/12/2019 03:12 7,9 C 84 % 1002,1 hPa 0,0 mm 14,8 km/h (3 Bft) O-SO 249 0 min 0 min 0,000 mm 0,0 UV-I 0 W/m 5,4 C 2,7 C 19,5 km/h (3 Bft) 100,00 %
09/12/2019 03:11 7,9 C 84 % 1002,0 hPa 0,0 mm 15,6 km/h (3 Bft) SO 217 0 min 0 min 0,000 mm 0,0 UV-I 0 W/m 5,4 C 2,3 C 28,3 km/h (5 Bft) 100,00 %
09/12/2019 03:10 7,9 C 84 % 1002,2 hPa 0,0 mm 18,0 km/h (3 Bft) O-SO 238 0 min 0 min 0,000 mm 0,0 UV-I 0 W/m 5,4 C 1,3 C 40,7 km/h (6 Bft) 100,00 %
09/12/2019 03:09 7,9 C 84 % 1002,3 hPa 0,0 mm 10,1 km/h (2 Bft) O 271 0 min 0 min 0,000 mm 0,0 UV-I 0 W/m 5,4 C 5,2 C 17,7 km/h (3 Bft) 100,00 %
09/12/2019 03:08 7,9 C 84 % 1002,2 hPa 0,0 mm 15,1 km/h (3 Bft) O-SO 246 0 min 0 min 0,000 mm 0,0 UV-I 0 W/m 5,4 C 2,5 C 19,5 km/h (3 Bft) 100,00 %
09/12/2019 03:07 7,9 C 84 % 1002,3 hPa 0,0 mm 14,9 km/h (3 Bft) S-SO 213 0 min 0 min 0,000 mm 0,0 UV-I 0 W/m 5,4 C 2,6 C 26,6 km/h (4 Bft) 92,31 %
09/12/2019 03:06 7,9 C 84 % 1002,2 hPa 0,0 mm 14,3 km/h (3 Bft) S 191 0 min 0 min 0,000 mm 0,0 UV-I 0 W/m 5,4 C 2,9 C 21,2 km/h (4 Bft) 100,00 %
09/12/2019 03:05 7,8 C 84 % 1002,3 hPa 0,0 mm 16,6 km/h (3 Bft) S 170 0 min 0 min 0,000 mm 0,0 UV-I 0 W/m 5,3 C 1,8 C 31,9 km/h (5 Bft) 100,00 %
09/12/2019 03:04 7,8 C 84 % 1002,3 hPa 0,0 mm 18,5 km/h (3 Bft) O 271 0 min 0 min 0,000 mm 0,0 UV-I 0 W/m 5,3 C 1,0 C 26,6 km/h (4 Bft) 100,00 %
09/12/2019 03:03 7,8 C 84 % 1002,3 hPa 0,0 mm 21,8 km/h (4 Bft) O-SO 252 0 min 0 min 0,000 mm 0,0 UV-I 0 W/m 5,3 C -0,2 C 35,4 km/h (5 Bft) 100,00 %
09/12/2019 03:02 7,8 C 84 % 1002,2 hPa 0,0 mm 16,5 km/h (3 Bft) O 263 0 min 0 min 0,000 mm 0,0 UV-I 0 W/m 5,3 C 1,8 C 26,6 km/h (4 Bft) 100,00 %
09/12/2019 03:01 7,8 C 84 % 1002,4 hPa 0,0 mm 21,1 km/h (4 Bft) S-SO 201 0 min 0 min 0,025 mm 0,0 UV-I 0 W/m 5,3 C 0,1 C 33,6 km/h (5 Bft) 100,00 %
09/12/2019 03:00 7,8 C 84 % 1002,3 hPa 0,0 mm 21,1 km/h (4 Bft) O-SO 255 0 min 0 min 0,000 mm 0,0 UV-I 0 W/m 5,3 C 0,1 C 40,7 km/h (6 Bft) 100,00 %
09/12/2019 02:59 7,8 C 84 % 1002,4 hPa 0,0 mm 11,2 km/h (2 Bft) O 263 0 min 0 min 0,000 mm 0,0 UV-I 0 W/m 5,3 C 4,4 C 15,9 km/h (3 Bft) 100,00 %
09/12/2019 02:58 7,8 C 84 % 1002,4 hPa 0,0 mm 12,9 km/h (3 Bft) SO 234 0 min 0 min 0,000 mm 0,0 UV-I 0 W/m 5,3 C 3,5 C 19,5 km/h (3 Bft) 100,00 %
09/12/2019 02:57 7,8 C 84 % 1002,4 hPa 0,0 mm 20,0 km/h (4 Bft) SO 234 0 min 0 min 0,000 mm 0,0 UV-I 0 W/m 5,3 C 0,4 C 28,3 km/h (5 Bft) 100,00 %
09/12/2019 02:56 7,7 C 84 % 1002,4 hPa 0,0 mm 24,1 km/h (4 Bft) S-SO 196 0 min 0 min 0,000 mm 0,0 UV-I 0 W/m 5,2 C -1,0 C 28,3 km/h (5 Bft) 100,00 %
09/12/2019 02:55 7,7 C 84 % 1002,5 hPa 0,0 mm 18,2 km/h (3 Bft) SO 232 0 min 0 min 0,000 mm 0,0 UV-I 0 W/m 5,2 C 1,0 C 33,6 km/h (5 Bft) 100,00 %
09/12/2019 02:54 7,7 C 84 % 1002,5 hPa 0,0 mm 9,7 km/h (2 Bft) S 191 0 min 0 min 0,000 mm 0,0 UV-I 0 W/m 5,2 C 5,2 C 17,7 km/h (3 Bft) 100,00 %
09/12/2019 02:53 7,7 C 84 % 1002,5 hPa 0,0 mm 20,2 km/h (4 Bft) O-SO 250 0 min 0 min 0,000 mm 0,0 UV-I 0 W/m 5,2 C 0,2 C 30,1 km/h (5 Bft) 96,15 %
09/12/2019 02:52 7,7 C 84 % 1002,5 hPa 0,0 mm 12,2 km/h (2 Bft) O 263 0 min 0 min 0,000 mm 0,0 UV-I 0 W/m 5,2 C 3,8 C 19,5 km/h (3 Bft) 100,00 %
09/12/2019 02:51 7,7 C 84 % 1002,5 hPa 0,0 mm 9,9 km/h (2 Bft) O-SO 245 0 min 0 min 0,000 mm 0,0 UV-I 0 W/m 5,2 C 5,1 C 19,5 km/h (3 Bft) 96,30 %
09/12/2019 02:50 7,7 C 84 % 1002,4 hPa 0,0 mm 9,1 km/h (2 Bft) S 182 0 min 0 min 0,000 mm 0,0 UV-I 0 W/m 5,2 C 5,6 C 14,2 km/h (3 Bft) 100,00 %
09/12/2019 02:49 7,7 C 84 % 1002,5 hPa 0,0 mm 7,4 km/h (2 Bft) O-SO 258 0 min 0 min 0,000 mm 0,0 UV-I 0 W/m 5,2 C 6,9 C 12,4 km/h (2 Bft) 96,43 %
09/12/2019 02:48 7,7 C 84 % 1002,5 hPa 0,0 mm 13,5 km/h (3 Bft) S 172 0 min 0 min 0,000 mm 0,0 UV-I 0 W/m 5,2 C 3,1 C 23,0 km/h (4 Bft) 97,06 %
09/12/2019 02:47 7,7 C 84 % 1002,5 hPa 0,0 mm 8,3 km/h (2 Bft) O-NO 301 0 min 0 min 0,000 mm 0,0 UV-I 0 W/m 5,2 C 6,2 C 17,7 km/h (3 Bft) 100,00 %
09/12/2019 02:46 7,6 C 84 % 1002,6 hPa 0,0 mm 5,9 km/h (2 Bft) O-SO 244 0 min 0 min 0,000 mm 0,0 UV-I 0 W/m 5,1 C 7,6 C 10,6 km/h (2 Bft) 93,75 %
09/12/2019 02:45 7,6 C 84 % 1002,5 hPa 0,0 mm 11,7 km/h (2 Bft) O-SO 242 0 min 0 min 0,000 mm 0,0 UV-I 0 W/m 5,1 C 3,9 C 23,0 km/h (4 Bft) 100,00 %
09/12/2019 02:44 7,6 C 84 % 1002,4 hPa 0,0 mm 10,8 km/h (2 Bft) O 263 0 min 0 min 0,000 mm 0,0 UV-I 0 W/m 5,1 C 4,4 C 17,7 km/h (3 Bft) 100,00 %
09/12/2019 02:43 7,6 C 84 % 1002,4 hPa 0,0 mm 7,9 km/h (2 Bft) O-SO 237 0 min 0 min 0,000 mm 0,0 UV-I 0 W/m 5,1 C 6,4 C 15,9 km/h (3 Bft) 100,00 %
09/12/2019 02:42 7,6 C 84 % 1002,4 hPa 0,0 mm 9,8 km/h (2 Bft) S-SO 213 0 min 0 min 0,000 mm 0,0 UV-I 0 W/m 5,1 C 5,1 C 23,0 km/h (4 Bft) 100,00 %
09/12/2019 02:41 7,6 C 84 % 1002,5 hPa 0,0 mm 4,9 km/h (1 Bft) O 261 0 min 0 min 0,000 mm 0,0 UV-I 0 W/m 5,1 C 7,6 C 12,4 km/h (2 Bft) 100,00 %
09/12/2019 02:40 7,6 C 84 % 1002,5 hPa 0,0 mm 3,4 km/h (1 Bft) S-SO 192 0 min 0 min 0,000 mm 0,0 UV-I 0 W/m 5,1 C 7,6 C 5,3 km/h (1 Bft) 100,00 %
09/12/2019 02:39 7,6 C 84 % 1002,5 hPa 0,0 mm 7,7 km/h (2 Bft) O-SO 242 0 min 0 min 0,000 mm 0,0 UV-I 0 W/m 5,1 C 6,6 C 14,2 km/h (3 Bft) 100,00 %
09/12/2019 02:38 7,6 C 84 % 1002,6 hPa 0,0 mm 9,5 km/h (2 Bft) O 261 0 min 0 min 0,000 mm 0,0 UV-I 0 W/m 5,1 C 5,3 C 24,8 km/h (4 Bft) 100,00 %
09/12/2019 02:37 7,6 C 84 % 1002,6 hPa 0,0 mm 13,3 km/h (3 Bft) SO 234 0 min 0 min 0,000 mm 0,0 UV-I 0 W/m 5,1 C 3,1 C 24,8 km/h (4 Bft) 100,00 %
09/12/2019 02:36 7,6 C 84 % 1002,6 hPa 0,0 mm 15,7 km/h (3 Bft) O-SO 258 0 min 0 min 0,000 mm 0,0 UV-I 0 W/m 5,1 C 1,9 C 21,2 km/h (4 Bft) 100,00 %
09/12/2019 02:35 7,5 C 84 % 1002,5 hPa 0,0 mm 17,1 km/h (3 Bft) S 187 0 min 0 min 0,000 mm 0,0 UV-I 0 W/m 5,0 C 1,2 C 37,2 km/h (5 Bft) 100,00 %
09/12/2019 02:34 7,5 C 84 % 1002,5 hPa 0,0 mm 18,4 km/h (3 Bft) S-SO 196 0 min 0 min 0,000 mm 0,0 UV-I 0 W/m 5,0 C 0,7 C 30,1 km/h (5 Bft) 97,50 %
09/12/2019 02:33 7,5 C 84 % 1002,5 hPa 0,0 mm 8,4 km/h (2 Bft) O-SO 254 0 min 0 min 0,000 mm 0,0 UV-I 0 W/m 5,0 C 5,9 C 21,2 km/h (4 Bft) 100,00 %
09/12/2019 02:31 7,5 C 84 % 1002,6 hPa 0,0 mm 14,4 km/h (3 Bft) S 183 0 min 0 min 0,000 mm 0,0 UV-I 0 W/m 5,0 C 2,4 C 19,5 km/h (3 Bft) 100,00 %
09/12/2019 02:30 7,5 C 84 % 1002,6 hPa 0,0 mm 14,6 km/h (3 Bft) SO 232 0 min 0 min 0,000 mm 0,0 UV-I 0 W/m 5,0 C 2,3 C 37,2 km/h (5 Bft) 100,00 %
09/12/2019 02:29 7,6 C 84 % 1002,6 hPa 0,0 mm 12,2 km/h (2 Bft) O 270 0 min 0 min 0,000 mm 0,0 UV-I 0 W/m 5,1 C 3,6 C 15,9 km/h (3 Bft) 100,00 %
09/12/2019 02:28 7,5 C 84 % 1002,6 hPa 0,0 mm 17,1 km/h (3 Bft) S-SO 207 0 min 0 min 0,000 mm 0,0 UV-I 0 W/m 5,0 C 1,2 C 28,3 km/h (5 Bft) 100,00 %
09/12/2019 02:27 7,5 C 84 % 1002,6 hPa 0,0 mm 9,7 km/h (2 Bft) O-SO 257 0 min 0 min 0,000 mm 0,0 UV-I 0 W/m 5,0 C 5,0 C 15,9 km/h (3 Bft) 96,97 %
09/12/2019 02:26 7,6 C 84 % 1002,6 hPa 0,0 mm 7,0 km/h (2 Bft) NO 309 0 min 0 min 0,000 mm 0,0 UV-I 0 W/m 5,1 C 7,1 C 12,4 km/h (2 Bft) 100,00 %
09/12/2019 02:25 7,6 C 84 % 1002,6 hPa 0,0 mm 10,1 km/h (2 Bft) S-SO 198 0 min 0 min 0,000 mm 0,0 UV-I 0 W/m 5,1 C 4,9 C 21,2 km/h (4 Bft) 96,43 %
09/12/2019 02:24 7,6 C 84 % 1002,6 hPa 0,0 mm 7,2 km/h (2 Bft) O-SO 243 0 min 0 min 0,000 mm 0,0 UV-I 0 W/m 5,1 C 7,0 C 12,4 km/h (2 Bft) 96,30 %
09/12/2019 02:23 7,6 C 84 % 1002,6 hPa 0,0 mm 12,1 km/h (2 Bft) O-SO 254 0 min 0 min 0,000 mm 0,0 UV-I 0 W/m 5,1 C 3,7 C 26,6 km/h (4 Bft) 100,00 %
09/12/2019 02:22 7,6 C 84 % 1002,7 hPa 0,0 mm 4,7 km/h (1 Bft) SO 225 0 min 0 min 0,000 mm 0,0 UV-I 0 W/m 5,1 C 7,6 C 8,9 km/h (2 Bft) 92,31 %
09/12/2019 02:21 7,6 C 84 % 1002,7 hPa 0,0 mm 17,0 km/h (3 Bft) S 178 0 min 0 min 0,000 mm 0,0 UV-I 0 W/m 5,1 C 1,3 C 33,6 km/h (5 Bft) 100,00 %
09/12/2019 02:20 7,6 C 84 % 1002,7 hPa 0,0 mm 9,9 km/h (2 Bft) O 281 0 min 0 min 0,000 mm 0,0 UV-I 0 W/m 5,1 C 5,0 C 24,8 km/h (4 Bft) 95,83 %
09/12/2019 02:19 7,6 C 84 % 1002,6 hPa 0,0 mm 7,4 km/h (2 Bft) O-SO 246 0 min 0 min 0,000 mm 0,0 UV-I 0 W/m 5,1 C 6,8 C 15,9 km/h (3 Bft) 95,83 %
09/12/2019 02:18 7,7 C 84 % 1002,7 hPa 0,0 mm 10,5 km/h (2 Bft) S-SE 167 0 min 0 min 0,000 mm 0,0 UV-I 0 W/m 5,2 C 4,7 C 21,2 km/h (4 Bft) 96,00 %
09/12/2019 02:17 7,7 C 84 % 1002,8 hPa 0,0 mm 9,3 km/h (2 Bft) O-NO 286 0 min 0 min 0,000 mm 0,0 UV-I 0 W/m 5,2 C 5,5 C 14,2 km/h (3 Bft) 91,67 %
09/12/2019 02:16 7,7 C 84 % 1002,7 hPa 0,0 mm 13,2 km/h (3 Bft) S 187 0 min 0 min 0,000 mm 0,0 UV-I 0 W/m 5,2 C 3,2 C 26,6 km/h (4 Bft) 96,00 %
09/12/2019 02:15 7,7 C 84 % 1002,8 hPa 0,0 mm 23,9 km/h (4 Bft) O-SO 239 0 min 0 min 0,000 mm 0,0 UV-I 0 W/m 5,2 C -1,0 C 37,2 km/h (5 Bft) 95,65 %
09/12/2019 02:14 7,7 C 84 % 1002,8 hPa 0,0 mm 6,3 km/h (2 Bft) SO 234 0 min 0 min 0,000 mm 0,0 UV-I 0 W/m 5,2 C 7,7 C 12,4 km/h (2 Bft) 91,67 %
09/12/2019 02:13 7,7 C 84 % 1002,7 hPa 0,0 mm 10,2 km/h (2 Bft) N-NO 340 0 min 0 min 0,000 mm 0,0 UV-I 0 W/m 5,2 C 4,9 C 17,7 km/h (3 Bft) 92,31 %
09/12/2019 02:12 7,7 C 84 % 1002,9 hPa 0,0 mm 6,8 km/h (2 Bft) O-SO 252 0 min 0 min 0,000 mm 0,0 UV-I 0 W/m 5,2 C 7,4 C 14,2 km/h (3 Bft) 96,55 %
09/12/2019 02:10 7,7 C 84 % 1003,0 hPa 0,0 mm 8,9 km/h (2 Bft) S 184 0 min 0 min 0,000 mm 0,0 UV-I 0 W/m 5,2 C 5,8 C 14,2 km/h (3 Bft) 91,67 %
09/12/2019 02:09 7,7 C 84 % 1003,1 hPa 0,0 mm 11,8 km/h (2 Bft) S-SO 207 0 min 0 min 0,000 mm 0,0 UV-I 0 W/m 5,2 C 4,0 C 19,5 km/h (3 Bft) 100,00 %
09/12/2019 02:08 7,7 C 84 % 1003,0 hPa 0,0 mm 18,2 km/h (3 Bft) O-SO 246 0 min 0 min 0,000 mm 0,0 UV-I 0 W/m 5,2 C 1,0 C 35,4 km/h (5 Bft) 96,67 %
09/12/2019 02:07 7,7 C 84 % 1003,2 hPa 0,0 mm 8,5 km/h (2 Bft) SO 232 0 min 0 min 0,000 mm 0,0 UV-I 0 W/m 5,2 C 6,1 C 15,9 km/h (3 Bft) 100,00 %
09/12/2019 02:06 7,6 C 84 % 1003,4 hPa 0,0 mm 14,6 km/h (3 Bft) S-SO 202 0 min 0 min 0,000 mm 0,0 UV-I 0 W/m 5,1 C 2,4 C 24,8 km/h (4 Bft) 96,00 %
09/12/2019 02:05 7,6 C 84 % 1003,3 hPa 0,0 mm 8,8 km/h (2 Bft) SO 229 0 min 0 min 0,000 mm 0,0 UV-I 0 W/m 5,1 C 5,7 C 14,2 km/h (3 Bft) 100,00 %
09/12/2019 02:04 7,6 C 84 % 1003,4 hPa 0,0 mm 7,1 km/h (2 Bft) SO 225 0 min 0 min 0,000 mm 0,0 UV-I 0 W/m 5,1 C 7,0 C 10,6 km/h (2 Bft) 93,33 %
09/12/2019 02:03 7,6 C 84 % 1003,4 hPa 0,0 mm 9,9 km/h (2 Bft) SO 222 0 min 0 min 0,000 mm 0,0 UV-I 0 W/m 5,1 C 5,0 C 14,2 km/h (3 Bft) 100,00 %
09/12/2019 02:02 7,6 C 84 % 1003,3 hPa 0,0 mm 14,3 km/h (3 Bft) SO 223 0 min 0 min 0,000 mm 0,0 UV-I 0 W/m 5,1 C 2,6 C 21,2 km/h (4 Bft) 93,33 %
09/12/2019 02:01 7,6 C 84 % 1003,4 hPa 0,0 mm 14,9 km/h (3 Bft) SO 221 0 min 0 min 0,026 mm 0,0 UV-I 0 W/m 5,1 C 2,3 C 26,6 km/h (4 Bft) 100,00 %
09/12/2019 02:00 7,6 C 84 % 1003,4 hPa 0,0 mm 21,7 km/h (4 Bft) O-SO 238 0 min 0 min 0,000 mm 0,0 UV-I 0 W/m 5,1 C -0,4 C 33,6 km/h (5 Bft) 95,83 %
09/12/2019 01:59 7,6 C 84 % 1003,4 hPa 0,0 mm 16,6 km/h (3 Bft) SO 229 0 min 0 min 0,000 mm 0,0 UV-I 0 W/m 5,1 C 1,5 C 38,9 km/h (6 Bft) 96,00 %
09/12/2019 01:58 7,6 C 84 % 1003,5 hPa 0,0 mm 16,7 km/h (3 Bft) O-SO 241 0 min 0 min 0,000 mm 0,0 UV-I 0 W/m 5,1 C 1,5 C 35,4 km/h (5 Bft) 100,00 %
09/12/2019 01:57 7,6 C 84 % 1003,4 hPa 0,0 mm 22,4 km/h (4 Bft) O-SO 237 0 min 0 min 0,000 mm 0,0 UV-I 0 W/m 5,1 C -0,6 C 35,4 km/h (5 Bft) 95,83 %
09/12/2019 01:56 7,6 C 84 % 1003,5 hPa 0,0 mm 25,8 km/h (4 Bft) O 261 0 min 0 min 0,000 mm 0,0 UV-I 0 W/m 5,1 C -1,6 C 37,2 km/h (5 Bft) 100,00 %
09/12/2019 01:55 7,6 C 84 % 1003,6 hPa 0,0 mm 28,5 km/h (5 Bft) O-SO 258 0 min 0 min 0,000 mm 0,0 UV-I 0 W/m 5,1 C -2,4 C 40,7 km/h (6 Bft) 95,83 %
09/12/2019 01:54 7,6 C 84 % 1003,5 hPa 0,0 mm 27,2 km/h (5 Bft) SO 235 0 min 0 min 0,000 mm 0,0 UV-I 0 W/m 5,1 C -2,0 C 38,9 km/h (6 Bft) 96,00 %
09/12/2019 01:53 7,5 C 84 % 1003,5 hPa 0,0 mm 19,1 km/h (3 Bft) O-SO 250 0 min 0 min 0,000 mm 0,0 UV-I 0 W/m 5,0 C 0,4 C 35,4 km/h (5 Bft) 95,83 %
09/12/2019 01:52 7,5 C 84 % 1003,5 hPa 0,0 mm 25,3 km/h (4 Bft) O-SO 237 0 min 0 min 0,000 mm 0,0 UV-I 0 W/m 5,0 C -1,6 C 38,9 km/h (6 Bft) 100,00 %
09/12/2019 01:51 7,5 C 84 % 1003,5 hPa 0,0 mm 13,5 km/h (3 Bft) O 273 0 min 0 min 0,000 mm 0,0 UV-I 0 W/m 5,0 C 2,8 C 26,6 km/h (4 Bft) 96,30 %
09/12/2019 01:50 7,5 C 84 % 1003,4 hPa 0,0 mm 11,6 km/h (2 Bft) O-SO 248 0 min 0 min 0,000 mm 0,0 UV-I 0 W/m 5,0 C 3,9 C 24,8 km/h (4 Bft) 96,30 %
09/12/2019 01:49 7,4 C 84 % 1003,4 hPa 0,0 mm 14,9 km/h (3 Bft) O-SO 248 0 min 0 min 0,000 mm 0,0 UV-I 0 W/m 4,9 C 2,0 C 21,2 km/h (4 Bft) 96,55 %
09/12/2019 01:48 7,4 C 84 % 1003,4 hPa 0,0 mm 18,7 km/h (3 Bft) S-SO 209 0 min 0 min 0,000 mm 0,0 UV-I 0 W/m 4,9 C 0,4 C 37,2 km/h (5 Bft) 100,00 %
09/12/2019 01:47 7,4 C 84 % 1003,5 hPa 0,0 mm 18,7 km/h (3 Bft) S-SO 197 0 min 0 min 0,000 mm 0,0 UV-I 0 W/m 4,9 C 0,4 C 38,9 km/h (6 Bft) 96,43 %
09/12/2019 01:46 7,4 C 84 % 1003,4 hPa 0,0 mm 14,7 km/h (3 Bft) S 185 0 min 0 min 0,000 mm 0,0 UV-I 0 W/m 4,9 C 2,1 C 28,3 km/h (5 Bft) 100,00 %
09/12/2019 01:45 7,4 C 84 % 1003,6 hPa 0,0 mm 13,5 km/h (3 Bft) O-SO 237 0 min 0 min 0,000 mm 0,0 UV-I 0 W/m 4,9 C 2,7 C 31,9 km/h (5 Bft) 100,00 %
09/12/2019 01:44 7,4 C 84 % 1003,6 hPa 0,0 mm 9,0 km/h (2 Bft) S 177 0 min 0 min 0,000 mm 0,0 UV-I 0 W/m 4,9 C 5,4 C 17,7 km/h (3 Bft) 100,00 %
09/12/2019 01:43 7,4 C 84 % 1003,4 hPa 0,0 mm 10,9 km/h (2 Bft) SO 217 0 min 0 min 0,000 mm 0,0 UV-I 0 W/m 4,9 C 4,2 C 19,5 km/h (3 Bft) 88,89 %
09/12/2019 01:42 7,4 C 84 % 1003,6 hPa 0,0 mm 11,6 km/h (2 Bft) SO 216 0 min 0 min 0,000 mm 0,0 UV-I 0 W/m 4,9 C 3,7 C 26,6 km/h (4 Bft) 97,92 %
09/12/2019 01:40 7,4 C 84 % 1003,6 hPa 0,0 mm 13,1 km/h (3 Bft) S-SO 201 0 min 0 min 0,000 mm 0,0 UV-I 0 W/m 4,9 C 2,9 C 23,0 km/h (4 Bft) 96,00 %
09/12/2019 01:39 7,4 C 84 % 1003,7 hPa 0,0 mm 13,1 km/h (3 Bft) S-SO 200 0 min 0 min 0,000 mm 0,0 UV-I 0 W/m 4,9 C 2,9 C 21,2 km/h (4 Bft) 95,83 %
09/12/2019 01:38 7,4 C 84 % 1003,7 hPa 0,0 mm 18,2 km/h (3 Bft) O-SO 237 0 min 0 min 0,000 mm 0,0 UV-I 0 W/m 4,9 C 0,6 C 37,2 km/h (5 Bft) 95,83 %
09/12/2019 01:37 7,4 C 84 % 1003,7 hPa 0,0 mm 5,8 km/h (2 Bft) O-SO 252 0 min 0 min 0,000 mm 0,0 UV-I 0 W/m 4,9 C 7,4 C 10,6 km/h (2 Bft) 100,00 %
09/12/2019 01:36 7,4 C 84 % 1003,7 hPa 0,0 mm 5,6 km/h (2 Bft) O-SO 243 0 min 0 min 0,000 mm 0,0 UV-I 0 W/m 4,9 C 7,4 C 8,9 km/h (2 Bft) 95,83 %
09/12/2019 01:35 7,4 C 84 % 1003,7 hPa 0,0 mm 9,9 km/h (2 Bft) S-SE 159 0 min 0 min 0,000 mm 0,0 UV-I 0 W/m 4,9 C 4,8 C 15,9 km/h (3 Bft) 100,00 %
09/12/2019 01:34 7,4 C 84 % 1003,6 hPa 0,0 mm 8,8 km/h (2 Bft) O-SO 242 0 min 0 min 0,000 mm 0,0 UV-I 0 W/m 4,9 C 5,5 C 17,7 km/h (3 Bft) 100,00 %
09/12/2019 01:33 7,4 C 84 % 1003,8 hPa 0,0 mm 10,5 km/h (2 Bft) SO 233 0 min 0 min 0,000 mm 0,0 UV-I 0 W/m 4,9 C 4,4 C 14,2 km/h (3 Bft) 100,00 %
09/12/2019 01:32 7,4 C 84 % 1003,9 hPa 0,0 mm 9,0 km/h (2 Bft) SO 215 0 min 0 min 0,000 mm 0,0 UV-I 0 W/m 4,9 C 5,4 C 17,7 km/h (3 Bft) 100,00 %
09/12/2019 01:31 7,4 C 84 % 1003,7 hPa 0,0 mm 12,8 km/h (3 Bft) S 182 0 min 0 min 0,000 mm 0,0 UV-I 0 W/m 4,9 C 3,1 C 33,6 km/h (5 Bft) 100,00 %
09/12/2019 01:30 7,4 C 84 % 1003,8 hPa 0,0 mm 11,2 km/h (2 Bft) S-SO 205 0 min 0 min 0,000 mm 0,0 UV-I 0 W/m 4,9 C 4,0 C 14,2 km/h (3 Bft) 100,00 %
09/12/2019 01:29 7,4 C 84 % 1003,9 hPa 0,0 mm 15,5 km/h (3 Bft) S-SO 197 0 min 0 min 0,000 mm 0,0 UV-I 0 W/m 4,9 C 1,8 C 26,6 km/h (4 Bft) 100,00 %
09/12/2019 01:28 7,4 C 84 % 1003,9 hPa 0,0 mm 14,1 km/h (3 Bft) S-SO 211 0 min 0 min 0,000 mm 0,0 UV-I 0 W/m 4,9 C 2,4 C 26,6 km/h (4 Bft) 100,00 %
09/12/2019 01:27 7,4 C 84 % 1003,9 hPa 0,0 mm 9,9 km/h (2 Bft) S 189 0 min 0 min 0,000 mm 0,0 UV-I 0 W/m 4,9 C 4,8 C 19,5 km/h (3 Bft) 100,00 %
09/12/2019 01:26 7,4 C 84 % 1003,9 hPa 0,0 mm 16,7 km/h (3 Bft) SO 217 0 min 0 min 0,000 mm 0,0 UV-I 0 W/m 4,9 C 1,2 C 24,8 km/h (4 Bft) 100,00 %
09/12/2019 01:25 7,4 C 83 % 1004,0 hPa 0,0 mm 13,8 km/h (3 Bft) SO 236 0 min 0 min 0,000 mm 0,0 UV-I 0 W/m 4,7 C 2,6 C 17,7 km/h (3 Bft) 98,88 %
09/12/2019 01:24 7,4 C 83 % 1004,0 hPa 0,0 mm 14,6 km/h (3 Bft) S-SO 196 0 min 0 min 0,000 mm 0,0 UV-I 0 W/m 4,7 C 2,2 C 19,5 km/h (3 Bft) 96,15 %
09/12/2019 01:23 7,4 C 83 % 1004,0 hPa 0,0 mm 9,0 km/h (2 Bft) SE 138 0 min 0 min 0,000 mm 0,0 UV-I 0 W/m 4,7 C 5,4 C 14,2 km/h (3 Bft) 100,00 %
09/12/2019 01:22 7,4 C 83 % 1004,0 hPa 0,0 mm 11,1 km/h (2 Bft) S 182 0 min 0 min 0,000 mm 0,0 UV-I 0 W/m 4,7 C 4,0 C 23,0 km/h (4 Bft) 100,00 %
09/12/2019 01:21 7,4 C 83 % 1004,1 hPa 0,0 mm 6,9 km/h (2 Bft) SO 232 0 min 0 min 0,000 mm 0,0 UV-I 0 W/m 4,7 C 7,0 C 15,9 km/h (3 Bft) 96,00 %
09/12/2019 01:20 7,4 C 83 % 1004,1 hPa 0,0 mm 11,9 km/h (2 Bft) S 185 0 min 0 min 0,000 mm 0,0 UV-I 0 W/m 4,7 C 3,6 C 23,0 km/h (4 Bft) 100,00 %
09/12/2019 01:19 7,4 C 83 % 1004,1 hPa 0,0 mm 5,5 km/h (2 Bft) O-SO 255 0 min 0 min 0,000 mm 0,0 UV-I 0 W/m 4,7 C 7,4 C 10,6 km/h (2 Bft) 100,00 %
09/12/2019 01:18 7,5 C 83 % 1004,1 hPa 0,0 mm 12,5 km/h (2 Bft) S 182 0 min 0 min 0,000 mm 0,0 UV-I 0 W/m 4,8 C 3,4 C 31,9 km/h (5 Bft) 100,00 %
09/12/2019 01:17 7,5 C 83 % 1004,2 hPa 0,0 mm 7,1 km/h (2 Bft) S 182 0 min 0 min 0,000 mm 0,0 UV-I 0 W/m 4,8 C 6,9 C 10,6 km/h (2 Bft) 100,00 %
09/12/2019 01:16 7,5 C 83 % 1004,2 hPa 0,0 mm 8,9 km/h (2 Bft) SO 224 0 min 0 min 0,000 mm 0,0 UV-I 0 W/m 4,8 C 5,6 C 19,5 km/h (3 Bft) 100,00 %
09/12/2019 01:15 7,5 C 83 % 1004,1 hPa 0,0 mm 7,4 km/h (2 Bft) S-SE 168 0 min 0 min 0,000 mm 0,0 UV-I 0 W/m 4,8 C 6,7 C 12,4 km/h (2 Bft) 100,00 %
09/12/2019 01:14 7,5 C 83 % 1004,1 hPa 0,0 mm 7,5 km/h (2 Bft) S 182 0 min 0 min 0,000 mm 0,0 UV-I 0 W/m 4,8 C 6,6 C 15,9 km/h (3 Bft) 100,00 %
09/12/2019 01:13 7,5 C 83 % 1004,2 hPa 0,0 mm 14,5 km/h (3 Bft) SO 234 0 min 0 min 0,000 mm 0,0 UV-I 0 W/m 4,8 C 2,3 C 19,5 km/h (3 Bft) 100,00 %
09/12/2019 01:12 7,5 C 83 % 1004,2 hPa 0,0 mm 7,5 km/h (2 Bft) O-NO 289 0 min 0 min 0,000 mm 0,0 UV-I 0 W/m 4,8 C 6,6 C 14,2 km/h (3 Bft) 100,00 %
09/12/2019 01:11 7,6 C 83 % 1004,2 hPa 0,0 mm 17,1 km/h (3 Bft) SE 125 0 min 0 min 0,000 mm 0,0 UV-I 0 W/m 4,9 C 1,3 C 33,6 km/h (5 Bft) 100,00 %
09/12/2019 01:10 7,6 C 83 % 1004,3 hPa 0,0 mm 18,1 km/h (3 Bft) SO 234 0 min 0 min 0,000 mm 0,0 UV-I 0 W/m 4,9 C 0,9 C 31,9 km/h (5 Bft) 95,83 %
09/12/2019 01:09 7,6 C 83 % 1004,3 hPa 0,0 mm 22,4 km/h (4 Bft) O 260 0 min 0 min 0,000 mm 0,0 UV-I 0 W/m 4,9 C -0,6 C 35,4 km/h (5 Bft) 100,00 %
09/12/2019 01:08 7,6 C 83 % 1004,3 hPa 0,0 mm 18,9 km/h (3 Bft) S 186 0 min 0 min 0,000 mm 0,0 UV-I 0 W/m 4,9 C 0,6 C 35,4 km/h (5 Bft) 100,00 %
09/12/2019 01:07 7,6 C 83 % 1004,4 hPa 0,0 mm 19,8 km/h (3 Bft) O 262 0 min 0 min 0,000 mm 0,0 UV-I 0 W/m 4,9 C 0,3 C 28,3 km/h (5 Bft) 96,00 %
09/12/2019 01:06 7,6 C 83 % 1004,5 hPa 0,0 mm 18,0 km/h (3 Bft) O 261 0 min 0 min 0,000 mm 0,0 UV-I 0 W/m 4,9 C 0,9 C 28,3 km/h (5 Bft) 92,59 %
09/12/2019 01:05 7,6 C 83 % 1004,4 hPa 0,0 mm 11,0 km/h (2 Bft) S-SE 150 0 min 0 min 0,000 mm 0,0 UV-I 0 W/m 4,9 C 4,3 C 17,7 km/h (3 Bft) 100,00 %
09/12/2019 01:04 7,6 C 83 % 1004,5 hPa 0,0 mm 8,6 km/h (2 Bft) O-NO 282 0 min 0 min 0,000 mm 0,0 UV-I 0 W/m 4,9 C 5,9 C 19,5 km/h (3 Bft) 93,75 %
09/12/2019 01:03 7,6 C 83 % 1004,3 hPa 0,0 mm 14,8 km/h (3 Bft) O 269 0 min 0 min 0,000 mm 0,0 UV-I 0 W/m 4,9 C 2,3 C 19,5 km/h (3 Bft) 100,00 %
09/12/2019 01:02 7,6 C 83 % 1004,4 hPa 0,0 mm 14,3 km/h (3 Bft) SO 230 0 min 0 min 0,000 mm 0,0 UV-I 0 W/m 4,9 C 2,6 C 23,0 km/h (4 Bft) 96,30 %
09/12/2019 01:01 7,6 C 83 % 1004,4 hPa 0,0 mm 13,1 km/h (3 Bft) O-SO 244 0 min 0 min 0,025 mm 0,0 UV-I 0 W/m 4,9 C 3,2 C 19,5 km/h (3 Bft) 96,15 %
09/12/2019 01:00 7,6 C 83 % 1004,4 hPa 0,0 mm 19,3 km/h (3 Bft) SO 222 0 min 0 min 0,000 mm 0,0 UV-I 0 W/m 4,9 C 0,4 C 30,1 km/h (5 Bft) 96,43 %
09/12/2019 00:59 7,6 C 83 % 1004,5 hPa 0,0 mm 14,9 km/h (3 Bft) SO 224 0 min 0 min 0,000 mm 0,0 UV-I 0 W/m 4,9 C 2,3 C 24,8 km/h (4 Bft) 100,00 %
09/12/2019 00:58 7,6 C 83 % 1004,4 hPa 0,0 mm 9,7 km/h (2 Bft) O-SO 245 0 min 0 min 0,000 mm 0,0 UV-I 0 W/m 4,9 C 5,1 C 17,7 km/h (3 Bft) 100,00 %
09/12/2019 00:57 7,6 C 83 % 1004,5 hPa 0,0 mm 9,6 km/h (2 Bft) O 259 0 min 0 min 0,000 mm 0,0 UV-I 0 W/m 4,9 C 5,2 C 12,4 km/h (2 Bft) 100,00 %
09/12/2019 00:56 7,6 C 83 % 1004,6 hPa 0,0 mm 14,3 km/h (3 Bft) SO 223 0 min 0 min 0,000 mm 0,0 UV-I 0 W/m 4,9 C 2,6 C 23,0 km/h (4 Bft) 100,00 %
09/12/2019 00:54 7,6 C 83 % 1004,6 hPa 0,0 mm 8,6 km/h (2 Bft) O 263 0 min 0 min 0,000 mm 0,0 UV-I 0 W/m 4,9 C 5,9 C 17,7 km/h (3 Bft) 96,30 %
09/12/2019 00:53 7,6 C 83 % 1004,5 hPa 0,0 mm 16,8 km/h (3 Bft) O 261 0 min 0 min 0,000 mm 0,0 UV-I 0 W/m 4,9 C 1,4 C 28,3 km/h (5 Bft) 100,00 %
09/12/2019 00:52 7,6 C 83 % 1004,6 hPa 0,0 mm 24,5 km/h (4 Bft) SO 221 0 min 0 min 0,000 mm 0,0 UV-I 0 W/m 4,9 C -1,3 C 38,9 km/h (6 Bft) 100,00 %
09/12/2019 00:51 7,6 C 83 % 1004,5 hPa 0,0 mm 19,1 km/h (3 Bft) O 263 0 min 0 min 0,000 mm 0,0 UV-I 0 W/m 4,9 C 0,5 C 30,1 km/h (5 Bft) 100,00 %
09/12/2019 00:50 7,6 C 83 % 1004,7 hPa 0,0 mm 13,5 km/h (3 Bft) O-SO 252 0 min 0 min 0,000 mm 0,0 UV-I 0 W/m 4,9 C 3,0 C 19,5 km/h (3 Bft) 100,00 %
09/12/2019 00:49 7,6 C 83 % 1004,7 hPa 0,0 mm 15,8 km/h (3 Bft) O-SO 240 0 min 0 min 0,000 mm 0,0 UV-I 0 W/m 4,9 C 1,9 C 26,6 km/h (4 Bft) 100,00 %
09/12/2019 00:48 7,6 C 84 % 1004,6 hPa 0,0 mm 22,9 km/h (4 Bft) O-SO 243 0 min 0 min 0,000 mm 0,0 UV-I 0 W/m 5,1 C -0,8 C 35,4 km/h (5 Bft) 100,00 %
09/12/2019 00:47 7,6 C 84 % 1004,5 hPa 0,0 mm 13,5 km/h (3 Bft) O-SO 257 0 min 0 min 0,000 mm 0,0 UV-I 0 W/m 5,1 C 3,0 C 23,0 km/h (4 Bft) 100,00 %
09/12/2019 00:46 7,6 C 84 % 1004,5 hPa 0,0 mm 13,9 km/h (3 Bft) SO 223 0 min 0 min 0,000 mm 0,0 UV-I 0 W/m 5,1 C 2,8 C 21,2 km/h (4 Bft) 100,00 %
09/12/2019 00:45 7,6 C 84 % 1004,5 hPa 0,0 mm 16,3 km/h (3 Bft) O-SO 257 0 min 0 min 0,000 mm 0,0 UV-I 0 W/m 5,1 C 1,6 C 31,9 km/h (5 Bft) 96,00 %
09/12/2019 00:44 7,6 C 84 % 1004,6 hPa 0,0 mm 11,5 km/h (2 Bft) S-SO 213 0 min 0 min 0,000 mm 0,0 UV-I 0 W/m 5,1 C 4,0 C 17,7 km/h (3 Bft) 100,00 %
09/12/2019 00:43 7,6 C 84 % 1004,6 hPa 0,0 mm 16,5 km/h (3 Bft) S 190 0 min 0 min 0,000 mm 0,0 UV-I 0 W/m 5,1 C 1,6 C 23,0 km/h (4 Bft) 100,00 %
09/12/2019 00:42 7,6 C 84 % 1004,6 hPa 0,0 mm 15,2 km/h (3 Bft) SO 234 0 min 0 min 0,000 mm 0,0 UV-I 0 W/m 5,1 C 2,1 C 21,2 km/h (4 Bft) 98,95 %
09/12/2019 00:41 7,6 C 84 % 1004,6 hPa 0,0 mm 19,0 km/h (3 Bft) S-SO 205 0 min 0 min 0,000 mm 0,0 UV-I 0 W/m 5,1 C 0,6 C 26,6 km/h (4 Bft) 100,00 %
09/12/2019 00:40 7,6 C 84 % 1004,7 hPa 0,0 mm 16,7 km/h (3 Bft) O-SO 245 0 min 0 min 0,000 mm 0,0 UV-I 0 W/m 5,1 C 1,5 C 30,1 km/h (5 Bft) 100,00 %
09/12/2019 00:39 7,6 C 84 % 1004,7 hPa 0,0 mm 13,2 km/h (3 Bft) O-SO 244 0 min 0 min 0,000 mm 0,0 UV-I 0 W/m 5,1 C 3,1 C 21,2 km/h (4 Bft) 100,00 %
09/12/2019 00:38 7,6 C 84 % 1004,9 hPa 0,0 mm 20,6 km/h (4 Bft) S-SO 212 0 min 0 min 0,000 mm 0,0 UV-I 0 W/m 5,1 C -0,0 C 30,1 km/h (5 Bft) 100,00 %
09/12/2019 00:37 7,6 C 84 % 1004,8 hPa 0,0 mm 21,2 km/h (4 Bft) O 265 0 min 0 min 0,000 mm 0,0 UV-I 0 W/m 5,1 C -0,2 C 35,4 km/h (5 Bft) 100,00 %
09/12/2019 00:36 7,6 C 84 % 1004,9 hPa 0,0 mm 16,0 km/h (3 Bft) O-SO 240 0 min 0 min 0,000 mm 0,0 UV-I 0 W/m 5,1 C 1,8 C 21,2 km/h (4 Bft) 100,00 %
09/12/2019 00:35 7,6 C 84 % 1004,9 hPa 0,0 mm 24,5 km/h (4 Bft) S-SO 211 0 min 0 min 0,000 mm 0,0 UV-I 0 W/m 5,1 C -1,3 C 33,6 km/h (5 Bft) 100,00 %
09/12/2019 00:34 7,6 C 84 % 1005,0 hPa 0,0 mm 19,1 km/h (3 Bft) SO 236 0 min 0 min 0,000 mm 0,0 UV-I 0 W/m 5,1 C 0,5 C 33,6 km/h (5 Bft) 92,59 %
09/12/2019 00:33 7,6 C 84 % 1004,9 hPa 0,0 mm 18,5 km/h (3 Bft) SO 236 0 min 0 min 0,000 mm 0,0 UV-I 0 W/m 5,1 C 0,7 C 28,3 km/h (5 Bft) 96,30 %
09/12/2019 00:32 7,6 C 84 % 1004,8 hPa 0,0 mm 25,3 km/h (4 Bft) SO 224 0 min 0 min 0,000 mm 0,0 UV-I 0 W/m 5,1 C -1,5 C 35,4 km/h (5 Bft) 95,83 %
09/12/2019 00:31 7,6 C 84 % 1004,8 hPa 0,0 mm 24,7 km/h (4 Bft) SO 225 0 min 0 min 0,000 mm 0,0 UV-I 0 W/m 5,1 C -1,3 C 35,4 km/h (5 Bft) 100,00 %
09/12/2019 00:30 7,6 C 84 % 1004,9 hPa 0,0 mm 15,9 km/h (3 Bft) O-SO 254 0 min 0 min 0,000 mm 0,0 UV-I 0 W/m 5,1 C 1,8 C 33,6 km/h (5 Bft) 95,83 %
09/12/2019 00:29 7,6 C 84 % 1004,9 hPa 0,0 mm 13,6 km/h (3 Bft) SO 227 0 min 0 min 0,000 mm 0,0 UV-I 0 W/m 5,1 C 2,9 C 19,5 km/h (3 Bft) 100,00 %
09/12/2019 00:28 7,6 C 85 % 1004,9 hPa 0,0 mm 20,1 km/h (4 Bft) O-NO 283 0 min 0 min 0,000 mm 0,0 UV-I 0 W/m 5,2 C 0,2 C 31,9 km/h (5 Bft) 95,83 %
09/12/2019 00:27 7,6 C 85 % 1004,8 hPa 0,0 mm 15,1 km/h (3 Bft) O-SO 249 0 min 0 min 0,000 mm 0,0 UV-I 0 W/m 5,2 C 2,2 C 26,6 km/h (4 Bft) 100,00 %
09/12/2019 00:26 7,6 C 85 % 1004,9 hPa 0,0 mm 18,5 km/h (3 Bft) SO 227 0 min 0 min 0,000 mm 0,0 UV-I 0 W/m 5,2 C 0,7 C 33,6 km/h (5 Bft) 96,00 %
09/12/2019 00:25 7,6 C 85 % 1004,7 hPa 0,0 mm 16,2 km/h (3 Bft) O-SO 249 0 min 0 min 0,000 mm 0,0 UV-I 0 W/m 5,2 C 1,7 C 21,2 km/h (4 Bft) 100,00 %
09/12/2019 00:24 7,6 C 85 % 1004,9 hPa 0,0 mm 24,8 km/h (4 Bft) SO 233 0 min 0 min 0,000 mm 0,0 UV-I 0 W/m 5,2 C -1,4 C 44,3 km/h (6 Bft) 96,00 %
09/12/2019 00:23 7,6 C 85 % 1004,9 hPa 0,0 mm 23,7 km/h (4 Bft) SO 230 0 min 0 min 0,000 mm 0,0 UV-I 0 W/m 5,2 C -1,0 C 42,5 km/h (6 Bft) 100,00 %
09/12/2019 00:22 7,6 C 85 % 1004,9 hPa 0,0 mm 24,9 km/h (4 Bft) O-SO 241 0 min 0 min 0,000 mm 0,0 UV-I 0 W/m 5,2 C -1,4 C 31,9 km/h (5 Bft) 100,00 %
09/12/2019 00:21 7,6 C 85 % 1004,9 hPa 0,0 mm 23,7 km/h (4 Bft) SO 218 0 min 0 min 0,000 mm 0,0 UV-I 0 W/m 5,2 C -1,0 C 37,2 km/h (5 Bft) 100,00 %
09/12/2019 00:20 7,6 C 85 % 1004,9 hPa 0,0 mm 23,6 km/h (4 Bft) O-SO 253 0 min 0 min 0,000 mm 0,0 UV-I 0 W/m 5,2 C -1,0 C 33,6 km/h (5 Bft) 100,00 %
09/12/2019 00:19 7,6 C 85 % 1004,9 hPa 0,0 mm 16,4 km/h (3 Bft) O 259 0 min 0 min 0,000 mm 0,0 UV-I 0 W/m 5,2 C 1,6 C 28,3 km/h (5 Bft) 100,00 %
09/12/2019 00:18 7,6 C 85 % 1005,0 hPa 0,0 mm 25,9 km/h (4 Bft) SO 235 0 min 0 min 0,000 mm 0,0 UV-I 0 W/m 5,2 C -1,7 C 37,2 km/h (5 Bft) 100,00 %
09/12/2019 00:17 7,6 C 85 % 1005,0 hPa 0,0 mm 19,4 km/h (3 Bft) O-SO 255 0 min 0 min 0,000 mm 0,0 UV-I 0 W/m 5,2 C 0,4 C 26,6 km/h (4 Bft) 100,00 %
09/12/2019 00:16 7,6 C 85 % 1005,0 hPa 0,0 mm 20,5 km/h (4 Bft) O-SO 241 0 min 0 min 0,000 mm 0,0 UV-I 0 W/m 5,2 C 0,0 C 30,1 km/h (5 Bft) 100,00 %
09/12/2019 00:15 7,6 C 85 % 1005,0 hPa 0,0 mm 16,6 km/h (3 Bft) O-SO 256 0 min 0 min 0,000 mm 0,0 UV-I 0 W/m 5,2 C 1,5 C 30,1 km/h (5 Bft) 100,00 %
09/12/2019 00:14 7,7 C 85 % 1005,1 hPa 0,0 mm 16,9 km/h (3 Bft) SO 235 0 min 0 min 0,000 mm 0,0 UV-I 0 W/m 5,3 C 1,5 C 31,9 km/h (5 Bft) 100,00 %
09/12/2019 00:13 7,6 C 85 % 1005,1 hPa 0,0 mm 19,8 km/h (3 Bft) O 260 0 min 0 min 0,000 mm 0,0 UV-I 0 W/m 5,2 C 0,3 C 31,9 km/h (5 Bft) 100,00 %
09/12/2019 00:11 7,7 C 85 % 1005,2 hPa 0,0 mm 21,2 km/h (4 Bft) S 191 0 min 0 min 0,000 mm 0,0 UV-I 0 W/m 5,3 C -0,1 C 33,6 km/h (5 Bft) 95,65 %
09/12/2019 00:10 7,7 C 85 % 1005,1 hPa 0,0 mm 21,8 km/h (4 Bft) O-SO 241 0 min 0 min 0,000 mm 0,0 UV-I 0 W/m 5,3 C -0,3 C 31,9 km/h (5 Bft) 100,00 %
09/12/2019 00:09 7,7 C 85 % 1005,1 hPa 0,0 mm 24,2 km/h (4 Bft) SO 235 0 min 0 min 0,000 mm 0,0 UV-I 0 W/m 5,3 C -1,1 C 35,4 km/h (5 Bft) 100,00 %
09/12/2019 00:08 7,7 C 85 % 1005,0 hPa 0,0 mm 15,8 km/h (3 Bft) SO 235 0 min 0 min 0,000 mm 0,0 UV-I 0 W/m 5,3 C 2,0 C 23,0 km/h (4 Bft) 100,00 %
09/12/2019 00:07 7,7 C 85 % 1005,0 hPa 0,0 mm 18,5 km/h (3 Bft) SO 227 0 min 0 min 0,000 mm 0,0 UV-I 0 W/m 5,3 C 0,9 C 35,4 km/h (5 Bft) 100,00 %
09/12/2019 00:06 7,7 C 86 % 1005,0 hPa 0,0 mm 17,5 km/h (3 Bft) O-SO 240 0 min 0 min 0,000 mm 0,0 UV-I 0 W/m 5,5 C 1,3 C 30,1 km/h (5 Bft) 100,00 %
09/12/2019 00:05 7,7 C 86 % 1005,0 hPa 0,0 mm 15,2 km/h (3 Bft) O-SO 250 0 min 0 min 0,000 mm 0,0 UV-I 0 W/m 5,5 C 2,3 C 26,6 km/h (4 Bft) 100,00 %
09/12/2019 00:03 7,7 C 86 % 1005,0 hPa 0,0 mm 14,7 km/h (3 Bft) O-SO 242 0 min 0 min 0,000 mm 0,0 UV-I 0 W/m 5,5 C 2,5 C 21,2 km/h (4 Bft) 100,00 %
09/12/2019 00:02 7,7 C 86 % 1005,0 hPa 0,0 mm 11,9 km/h (2 Bft) O 281 0 min 0 min 0,000 mm 0,0 UV-I 0 W/m 5,5 C 3,9 C 26,6 km/h (4 Bft) 96,30 %
09/12/2019 00:01 7,7 C 86 % 1005,0 hPa 0,0 mm 21,3 km/h (4 Bft) SO 236 0 min 0 min 0,000 mm 0,0 UV-I 0 W/m 5,5 C -0,1 C 30,1 km/h (5 Bft) 100,00 %
09/12/2019 00:00 7,7 C 86 % 1005,2 hPa 0,0 mm 20,3 km/h (4 Bft) S-SO 213 0 min 0 min 0,000 mm 0,0 UV-I 0 W/m 5,5 C 0,2 C 30,1 km/h (5 Bft) 96,55 %
_ Min-Heure 07:30 14:45 08:07 - 02:40 - - - - - - - 01:19 04:08 02:40 08:59
Minimum _ 6,6 C 79 % 1000,9 hPa - 3,4 km/h (1 Bft) - - - - - - - 4,7 C -3,1 C 5,3 km/h (1 Bft) 6,67 %
_ Max-Heure 12:44 10:03 14:47 06:24 04:08 - - 12:16 00:00 13:01 12:35 12:43 11:07 02:14 04:03 00:01
Maximum _ 9,8 C 96 % 1013,1 hPa 0,4 mm 33,8 km/h
SO (5 Bft)
- - 2 min 0 min 0,102 mm 0,6 UV-I 383 W/m 7,5 C 7,7 C 62,0 km/h
SO (7 Bft)
100,00 %
Moyenne _ 7,8 C 88 % 1004,2 hPa #12,2 mm 16,2 km/h (3 Bft) O-SO - #38 min. #0 min. #0,432 mm 0,5 UV-I 90 W/m 5,9 C 2,3 C 26,4 km/h (4 Bft) 95,08 %
Grandfresnoy - Oise - Picardie